[[{"header":{"parameterUnit":"m.s-1","parameterCategory":1,"la1":31.0,"la2":29.5877,"lo1":-88.7671,"lo2":-86.6584,"dy":0.0162,"dx":0.0185,"nx":115,"ny":88,"refTime":"2026-05-17T12:00:00:Z","depth":0,"parameterNumber":2,"parameterNumberName":"U-component_of_WINDS"},"data":[0.0,0.0,0.0,0.0,0.0,0.0,0.0,0.0,0.0,0.0,0.0,0.0,0.0,0.0,0.0,0.0,0.0,0.0,0.0,0.0,0.0,0.0,0.0,0.0,0.0,0.0,0.0,0.0,0.0,0.0,0.0,0.0,0.0,0.0,0.0,0.0,0.0,0.0,0.0,0.0,0.0,0.0,0.0,0.0,0.0,0.0,0.0,0.0,0.0,0.0,0.0,0.0,0.0,0.0,0.0,0.0,0.0,0.0,0.0,0.0,0.0,0.0,0.0,0.0,0.0,0.0,0.0,0.0,0.0,0.0,0.0,0.0,0.0,0.0,0.0,0.0,0.0,0.0,0.0,0.0,0.0,0.0,0.0,0.0,0.0,0.0,0.0,0.0,0.0,0.0,0.0,0.0,0.0,0.0,0.0,0.0,0.0,0.0,0.0,0.0,0.0,0.0,0.0,0.0,0.0,0.0,0.0,0.0,0.0,0.0,0.0,0.0,0.0,0.0,0.0,0.0,0.0,0.0,0.0,0.0,0.0,0.0,0.0,0.0,0.0,0.0,0.0,0.0,0.0,0.0,0.0,0.0,0.0,0.0,0.0,0.0,0.0,0.0,0.0,0.0,0.0,0.0,0.0,0.0,0.0,0.0,0.0,0.0,0.0,0.0,0.0,0.0,0.0,0.0,0.0,0.0,0.0,0.0,0.0,0.0,0.0,0.0,0.0,0.0,0.0,0.0,0.0,0.0,0.0,0.0,0.0,0.0,0.0,0.0,0.0,0.0,0.0,0.0,0.0,0.0,0.0,0.0,0.0,0.0,0.0,0.0,0.0,0.0,0.0,0.0,0.0,0.0,0.0,0.0,0.0,0.0,0.0,0.0,0.0,0.0,0.0,0.0,0.0,0.0,0.0,0.0,0.0,0.0,0.0,0.0,0.0,0.0,0.0,0.0,0.0,0.0,0.0,0.0,0.0,0.0,0.0,0.0,0.0,0.0,0.0,0.0,0.0,0.0,0.0,0.0,0.0,0.0,0.0,0.0,0.0,0.0,0.0,0.0,0.0,0.0,0.0,0.0,0.0,0.0,0.0,0.0,0.0,0.0,0.0,0.0,0.0,0.0,0.0,0.0,0.0,0.0,0.0,0.0,0.0,0.0,0.0,0.0,0.0,0.0,0.0,0.0,0.0,0.0,0.0,0.0,0.0,0.0,0.0,0.0,0.0,0.0,0.0,0.0,0.0,0.0,0.0,0.0,0.0,0.0,0.0,0.0,0.0,0.0,0.0,0.0,0.0,0.0,0.0,0.0,0.0,0.0,0.0,0.0,0.0,0.0,0.0,0.0,0.0,0.0,0.0,0.0,0.0,0.0,0.0,0.0,0.0,0.0,0.0,0.0,0.0,0.0,0.0,0.0,0.0,0.0,0.0,0.0,0.0,0.0,0.0,0.0,0.0,0.0,0.0,0.0,0.0,0.0,0.0,0.0,0.0,0.0,0.0,0.0,0.0,0.0,0.0,0.0,0.0,0.0,0.0,0.0,0.0,0.0,0.0,0.0,0.0,0.0,0.0,0.0,0.0,0.0,0.0,0.0,0.0,0.0,0.0,0.0,0.0,0.0,0.0,0.0,0.0,0.0,0.0,0.0,0.0,0.0,0.0,0.0,0.0,0.0,0.0,0.0,0.0,0.0,0.0,0.0,0.0,0.0,0.0,0.0,0.0,0.0,0.0,0.0,0.0,0.0,0.0,0.0,0.0,0.0,0.0,0.0,0.0,0.0,0.0,0.0,0.0,0.0,0.0,0.0,0.0,0.0,0.0,0.0,0.0,0.0,0.0,0.0,0.0,0.0,0.0,0.0,0.0,0.0,0.0,0.0,0.0,0.0,0.0,0.0,0.0,0.0,0.0,0.0,0.0,0.0,0.0,0.0,0.0,0.0,0.0,0.0,0.0,0.0,0.0,0.0,0.0,0.0,0.0,0.0,0.0,0.0,0.0,0.0,0.0,0.0,0.0,0.0,0.0,0.0,0.0,0.0,0.0,0.0,0.0,0.0,0.0,0.0,0.0,0.0,0.0,0.0,0.0,0.0,0.0,0.0,0.0,0.0,0.0,0.0,0.0,0.0,0.0,0.0,0.0,0.0,0.0,0.0,0.0,0.0,0.0,0.0,0.0,0.0,0.0,0.0,0.0,0.0,0.0,0.0,0.0,0.0,0.0,0.0,0.0,0.0,0.0,0.0,0.0,0.0,0.0,0.0,0.0,0.0,0.0,0.0,0.0,0.0,0.0,0.0,0.0,0.0,0.0,0.0,0.0,0.0,0.0,0.0,0.0,0.0,0.0,0.0,0.0,0.0,0.0,0.0,0.0,0.0,0.0,0.0,0.0,0.0,0.0,0.0,0.0,0.0,0.0,0.0,0.0,0.0,0.0,0.0,0.0,0.0,0.0,0.0,0.0,0.0,0.0,0.0,0.0,0.0,0.0,0.0,0.0,0.0,0.0,0.0,0.0,0.0,0.0,0.0,0.0,0.0,0.0,0.0,0.0,0.0,0.0,0.0,0.0,0.0,0.0,0.0,0.0,0.0,0.0,0.0,0.0,0.0,0.0,0.0,0.0,0.0,0.0,0.0,0.0,0.0,0.0,0.0,0.0,0.0,0.0,0.0,0.0,0.0,0.0,0.0,0.0,0.0,0.0,0.0,0.0,0.0,0.0,0.0,0.0,0.0,0.0,0.0,0.0,0.0,0.0,0.0,0.0,0.0,0.0,0.0,0.0,0.0,0.0,0.0,0.0,0.0,0.0,0.0,0.0,0.0,0.0,0.0,0.0,0.0,0.0,0.0,0.0,0.0,0.0,0.0,0.0,0.0,0.0,0.0,0.0,0.0,0.0,0.0,0.0,0.0,0.0,0.0,0.0,0.0,0.0,0.0,0.0,0.0,0.0,0.0,0.0,0.0,0.0,0.0,0.0,0.0,0.0,0.0,0.0,0.0,0.0,0.0,0.0,0.0,0.0,0.0,0.0,0.0,0.0,0.0,0.0,0.0,0.0,0.0,0.0,0.0,0.0,0.0,0.0,0.0,0.0,0.0,0.0,0.0,0.0,0.0,0.0,0.0,0.0,0.0,0.0,0.0,0.0,0.0,0.0,0.0,0.0,0.0,0.0,0.0,0.0,0.0,0.0,0.0,0.0,0.0,0.0,0.0,0.0,0.0,0.0,0.0,0.0,0.0,0.0,0.0,0.0,0.0,0.0,0.0,0.0,0.0,0.0,0.0,0.0,0.0,0.0,0.0,0.0,0.0,0.0,0.0,0.0,0.0,0.0,0.0,0.0,0.0,0.0,0.0,0.0,0.0,0.0,0.0,0.0,0.0,0.0,0.0,0.0,0.0,0.0,0.0,0.0,0.0,0.0,0.0,0.0,0.0,0.0,0.0,0.0,0.0,0.0,0.0,0.0,0.0,0.0,0.0,0.0,0.0,0.0,0.0,0.0,0.0,0.0,0.0,0.0,0.0,0.0,0.0,0.0,0.0,0.0,0.0,0.0,0.0,0.0,0.0,0.0,0.0,0.0,0.0,0.0,0.0,0.0,0.0,0.0,0.0,0.0,0.0,0.0,0.0,0.0,0.0,0.0,0.0,0.0,0.0,0.0,0.0,0.0,0.0,0.0,0.0,0.0,0.0,0.0,0.0,0.0,0.0,0.0,0.0,0.0,0.0,0.0,0.0,0.0,0.0,0.0,0.0,0.0,0.0,0.0,0.0,0.0,0.0,0.0,0.0,0.0,0.0,0.0,0.0,0.0,0.0,0.0,0.0,0.0,0.0,0.0,0.0,0.0,0.0,0.0,0.0,0.0,0.0,0.0,0.0,0.0,0.0,0.0,0.0,0.0,0.0,0.0,0.0,0.0,0.0,0.0,0.0,0.0,0.0,0.0,0.0,0.0,0.0,0.0,0.0,0.0,0.0,0.0,0.0,0.0,0.0,0.0,0.0,0.0,0.0,0.0,0.0,0.0,0.0,0.0,0.0,0.0,0.0,0.0,0.0,0.0,0.0,0.0,0.0,0.0,0.0,0.0,0.0,0.0,0.0,0.0,0.0,0.0,0.0,0.0,0.0,0.0,0.0,0.0,0.0,0.0,0.0,0.0,0.0,0.0,0.0,0.0,0.0,0.0,0.0,0.0,0.0,0.0,0.0,0.0,0.0,0.0,0.0,0.0,0.0,0.0,0.0,0.0,0.0,0.0,0.0,0.0,0.0,0.0,0.0,0.0,0.0,0.0,0.0,0.0,0.0,0.0,0.0,0.0,0.0,0.0,0.0,0.0,0.0,0.0,0.0,0.0,0.0,0.0,0.0,0.0,0.0,0.0,0.0,0.0,0.0,0.0,0.0,0.0,0.0,0.0,0.0,0.0,0.0,0.0,0.0,0.0,0.0,0.0,0.0,0.0,0.0,0.0,0.0,0.0,0.0,0.0,0.0,0.0,0.0,0.0,0.0,0.0,0.0,0.0,0.0,0.0,0.0,0.0,0.0,0.0,0.0,0.0,0.0,0.0,0.0,0.0,0.0,0.0,0.0,0.0,0.0,0.0,0.0,0.0,0.0,0.0,0.0,0.0,0.0,0.0,0.0,0.0,0.0,0.0,0.0,0.0,0.0,0.0,0.0,0.0,0.0,0.0,0.0,0.0,0.0,0.0,0.0,0.0,0.0,0.0,0.0,0.0,0.0,0.0,0.0,0.0,0.0,0.0,0.0,0.0,0.0,0.0,0.0,0.0,0.0,0.0,0.0,0.0,0.0,0.0,0.0,0.0,0.0,0.0,0.0,0.0,0.0,0.0,0.0,0.0,0.0,0.0,0.0,0.0,0.0,0.0,0.0,0.0,0.0,0.0,0.0,0.0,0.0,0.0,0.0,0.0,0.0,0.0,0.0,0.0,0.0,0.0,0.0,0.0,0.0,0.0,0.0,0.0,0.0,0.0,0.0,0.0,0.0,0.0,0.0,0.0,0.0,0.0,0.0,0.0,0.0,0.0,0.0,0.0,0.0,0.0,0.0,0.0,0.0,0.0,0.0,0.0,0.0,0.0,0.0,0.0,0.0,0.0,0.0,0.0,0.0,0.0,0.0,0.0,0.0,0.0,0.0,0.0,0.0,0.0,0.0,0.0,0.0,0.0,0.0,0.0,0.0,0.0,0.0,0.0,0.0,0.0,0.0,0.0,0.0,0.0,0.0,0.0,0.0,0.0,0.0,0.0,0.0,0.0,0.0,0.0,0.0,0.0,0.0,0.0,0.0,-0.0683,-0.0459,0.0,0.0,0.0,0.0,0.0,0.0,0.0,0.0,0.0,0.0,0.0,0.0,0.0,0.0,0.0,0.0,0.0,0.0,0.0,0.0,0.0,0.0,0.0,0.0,0.0,0.0,0.0,0.0,0.0,0.0,0.0,0.0,0.0,0.0,0.0,0.0,0.0,0.0,0.0,0.0,0.0,0.0,0.0,0.0,0.0,0.0,0.0,0.0,0.0,0.0,0.0,0.0,0.0,0.0,0.0,0.0,0.0,0.0,0.0,0.0,0.0,0.0,0.0,0.0,0.0,0.0,0.0,0.0,0.0,0.0,0.0,0.0,0.0,0.0,0.0,0.0,0.0,0.0,0.0,0.0,0.0,0.0,0.0,0.0,0.0,0.0,0.0,0.0,0.0,0.0,0.0,0.0,0.0,0.0,0.0,0.0,0.0,0.0,0.0,0.0,0.0,0.0,0.0,0.0,0.0,0.0,0.0,0.0,0.0,0.0,0.0,-0.0875,-0.2654,-0.2711,0.0,0.0,0.0,0.0,0.0,0.0,0.0,0.0,0.0,0.0,0.0,0.0,0.0,0.0,0.0,0.0,0.0,0.0,0.0,0.0,0.0,0.0,0.0,0.0,0.0,0.0,0.0,0.0,0.0,0.0,0.0,0.0,0.0,0.0,0.0,0.0,0.0,0.0,0.0,0.0,0.0,0.0,0.0,0.0,0.0,0.0,0.0,0.0,0.0,0.0,0.0,0.0,0.0,0.0,0.0,0.0,0.0,0.0,0.0,0.0,0.0,0.0,0.0,0.0,0.0,0.0,0.0,0.0,0.0,0.0,0.0,0.0,0.0,0.0,0.0,0.0,0.0,0.0,0.0,0.0,0.0,0.0,0.0,0.0,0.0,0.0,0.0,0.0,0.0,0.0,0.0,0.0,0.0,0.0,0.0,0.0,0.0,0.0,0.0,0.0,0.0,0.0,0.0,0.0,0.0,0.0,0.0,0.0,0.0,0.0,0.0,0.0,0.0,-0.2812,-0.2944,-0.205,0.0,0.0,0.0,0.0,0.0,0.0,0.0,0.0,0.0,0.0,0.0,0.0,0.0,0.0,0.0,0.0,0.0,0.0,0.0,0.0,0.0,0.0,0.0,0.0,0.0,0.0,0.0,0.0,0.0,0.0,0.0,0.0,0.0,0.0,0.0,0.0,0.0,0.0,0.0,0.0,0.0,0.0,0.0,0.0,0.0,0.0,0.0,0.0,0.0,0.0,0.0,0.0,0.0,0.0,0.0,0.0,0.0,0.0,0.0,0.0,0.0,0.0,0.0,0.0,0.0,0.0,0.0,0.0,0.0,0.0,0.0,0.0,0.0,0.0,0.0,0.0,0.0,0.0,0.0,0.0,0.0,0.0,0.0,0.0,0.0,0.0,0.0,0.0,0.0,0.0,0.0,0.0,0.0,0.0,0.0,0.0,0.0,0.0,0.0,0.0,0.0,0.0,0.0,0.0,0.0,0.0,0.0,0.0,0.0,0.0,-0.281,0.0,-0.2776,-0.2855,-0.2249,-0.086,0.0,0.0,0.0,0.0,0.0,0.0,0.0,0.0,0.0,0.0,0.0,0.0,0.0,0.0,0.0,0.0,0.0,0.0,0.0,0.0,0.0,0.0,0.0,0.0,0.0,0.0,0.0,0.0,0.0,0.0,0.0,0.0,0.0,0.0,0.0,0.0,0.0,0.0,0.0,0.0,0.0,0.0,0.0,0.0,0.0,0.0,0.0,0.0,0.0,0.0,0.0,0.0,0.0,0.0,0.0,0.0,0.0,0.0,0.0,0.0,0.0,0.0,0.0,0.0,0.0,0.0,0.0,0.0,0.0,0.0,0.0,0.0,0.0,0.0,0.0,0.0,0.0,0.0,0.0,0.0,0.0,0.0,0.0,0.0,0.0,0.0,0.0,0.0,0.0,0.0,0.0,0.0,0.0,0.0,0.0,0.0,0.0,0.0,0.0,0.0,0.0,0.0,0.0,0.0,0.0,0.0,0.0,0.0,0.0,-0.2323,-0.2781,-0.2849,-0.2781,-0.2741,0.0,0.0,0.0,0.0,0.0,0.0,0.0,0.0,0.0,0.0,0.0,0.0,0.0,0.0,0.0,0.0,0.0,0.0,0.0,0.0,0.0,0.0,0.0,0.0,0.0,0.0,0.0,0.0,0.0,0.0,0.0,0.0,0.0,0.0,0.0,0.0,0.0,0.0,0.0,0.0,0.0,0.0,0.0,0.0,0.0,0.0,0.0,0.0,0.0,0.0,0.0,0.0,0.0,0.0,0.0,0.0,0.0,0.0,0.0,0.0,0.0,0.0,0.0,0.0,0.0,0.0,0.0,0.0,0.0,0.0,0.0,0.0,0.0,0.0,0.0,0.0,0.0,0.0,0.0,0.0,0.0,0.0,0.0,0.0,0.0,0.0,0.0,0.0,0.0,0.0,0.0,0.0,0.0,0.0,0.0,0.0,0.0,0.0,0.0,0.0,0.0,0.0,0.0,0.0,0.0,0.0,0.0,0.0,0.0,-0.239,-0.262,-0.2559,-0.2286,-0.2533,-0.2476,0.0,0.0,0.0,0.0,0.0,0.0,0.0,0.0,0.0,0.0,0.0,0.0,0.0,0.0,0.0,0.0,0.0,0.0,0.0,0.0,0.0,0.0,0.0,0.0,0.0,0.0,0.0,0.0,0.0,0.0,0.0,0.0,0.0,0.0,0.0,0.0,0.0,0.0,0.0,0.0,0.0,0.0,0.0,0.0,0.0,0.0,0.0,0.0,0.0,0.0,0.0,0.0,0.0,0.0,0.0,0.0,0.0,0.0,0.0,0.0,0.0,0.0,0.0,0.0,0.0,0.0,0.0,0.0,0.0,0.0,0.0,0.0,0.0,0.0,0.0,0.0,0.0,0.0,0.0,0.0,0.0,0.0,0.0,0.0,0.0,0.0,0.0,0.0,0.0,0.0,0.0,0.0,0.0,0.0,0.0,0.0,0.0,0.0,0.0,0.0,0.0,0.0,0.0,0.0,0.0,0.0,0.0,0.0,0.0,-0.2412,0.0,-0.2222,0.0,-0.2372,-0.214,0.0,0.0,0.0,0.0,0.0,0.0,0.0,0.0,0.0,0.0,0.0,0.0,0.0,0.0,0.0,0.0,0.0,0.0,0.0,0.0,0.0,0.0,0.0,0.0,0.0,0.0,0.0,0.0,0.0,0.0,0.0,0.0,0.0,0.0,0.0,0.0,0.0,0.0,0.0,0.0,0.0,0.0,0.0,0.0,0.0,0.0,0.0,0.0,0.0,0.0,0.0,0.0,0.0,0.0,0.0,0.0,0.0,0.0,0.0,0.0,0.0,0.0,0.0,0.0,0.0,0.0,0.0,0.0,0.0,0.0,0.0,0.0,0.0,0.0,0.0,0.0,0.0,0.0,0.0,0.0,0.0,0.0,0.0,0.0,0.0,0.0,0.0,0.0,0.0,0.0,0.0,0.0,0.0,0.0,0.0,0.0,0.0,0.0,0.0,0.0,0.0,0.0,0.0,0.0,0.0,0.0,0.0,0.0,0.0,-0.1448,-0.1776,-0.1802,-0.1459,-0.2217,-0.1816,0.0,0.0,0.0,0.0,0.0,0.0,0.0,0.0,0.0,0.0,0.0,0.0,0.0,0.0,0.0,0.0,0.0,0.0,0.0,0.0,0.0,0.0,0.0,0.0,0.0,0.0,0.0,0.0,0.0,0.0,0.0,0.0,0.0,0.0,0.0,0.0,0.0,0.0,0.0,0.0,0.0,0.0,0.0,0.0,0.0,0.0,0.0,0.0,0.0,0.0,0.0,0.0,0.0,0.0,0.0,0.0,0.0,0.0,0.0,0.0,0.0,0.0,0.0,0.0,0.0,0.0,0.0,0.0,0.0,0.0,0.0,0.0,0.0,0.0,0.0,0.0,0.0,0.0,0.0,0.0,0.0,0.0,0.0,0.0,0.0,0.0,0.0,0.0,0.0,0.0,0.0,0.0,0.0,0.0,0.0,0.0,0.0,0.0,0.0,0.0,0.0,0.0,0.0,0.0,0.0,0.0,0.0,0.0,0.0,-0.2278,-0.2353,-0.2362,-0.2278,-0.1342,-0.0881,0.0,0.0,0.0,0.0,0.0,0.0,0.0,0.0,0.0,0.0,0.0,0.0,0.0,0.0,0.0,0.0,0.0,0.0,0.0,0.0,0.0,0.0,0.0,0.0,0.0,0.0,0.0,0.0,0.0,0.0,0.0,0.0,0.0,0.0,0.0,0.0,0.0,0.0,0.0,0.0,0.0,0.0,0.0,0.0,0.0,0.0,0.0,0.0,0.0,0.0,0.0,0.0,0.0,0.0,0.0,0.0,0.0,0.0,0.0,0.0,0.0,0.0,0.0,0.0,0.0,0.0,0.0,0.0,0.0,0.0,0.0,0.0,0.0,0.0,0.0,0.0,0.0,0.0,0.0,0.0,0.0,0.0,0.0,0.0,0.0,0.0,0.0,0.0,0.0,0.0,0.0,0.0,0.0,0.0,0.0,0.0,0.0,0.0,0.0,0.0,0.0,0.0,0.0,0.0,0.0,0.0,0.0,0.0,0.0,-0.2467,-0.2568,-0.2626,-0.2655,-0.1556,-0.0934,-0.0855,0.0,0.0,0.0,0.0,0.0,0.0,0.0,0.0,0.0,0.0,0.0,0.0,0.0,0.0,0.0,0.0,0.0,0.0,0.0,0.0,0.0,0.0,0.0,0.0,0.0,0.0,0.0,0.0,0.0,0.0,0.0,0.0,0.0,0.0,0.0,0.0,0.0,0.0,0.0,0.0,0.0,0.0,0.0,0.0,0.0,0.0,0.0,0.0,0.0,0.0,0.0,0.0,0.0,0.0,0.0,0.0,0.0,0.0,0.0,0.0,0.0,0.0,0.0,0.0,0.0,0.0,0.0,0.0,0.0,0.0,0.0,0.0,0.0,0.0,0.0,0.0,0.0,0.0,0.0,0.0,0.0,0.0,0.0,0.0,0.0,0.0,0.0,0.0,0.0,0.0,0.0,0.0,0.0,0.0,0.0,0.0,0.0,0.0,0.0,0.0,0.0,0.0,0.0,0.0,0.0,0.0,0.0,0.0,-0.2238,-0.247,-0.2592,-0.2573,-0.2563,-0.1811,0.0,0.0,0.0,0.0,0.0,0.0,0.0,0.0,0.0,0.0,0.0,0.0,0.0,0.0,0.0,0.0,0.0,0.0,0.0,0.0,0.0,0.0,0.0,0.0,0.0,0.0,0.0,0.0,0.0,0.0,0.0,0.0,0.0,0.0,0.0,0.0,0.0,0.0,0.0,0.0,0.0,0.0,0.0,0.0,0.0,0.0,0.0,0.0,0.0,0.0,0.0,0.0,0.0,0.0,0.0,0.0,0.0,0.0,0.0,0.0,0.0,0.0,0.0,0.0,0.0,0.0,0.0,0.0,0.0,0.0,0.0,0.0,0.0,0.0,0.0,0.0,0.0,0.0,0.0,0.0,0.0,0.0,0.0,0.0,0.0,0.0,0.0,0.0,0.0,0.0,0.0,0.0,0.0,0.0,0.0,0.0,0.0,0.0,0.0,0.0,0.0,0.0,0.0,0.0,0.0,0.0,0.0,0.0,0.0,-0.2681,-0.2546,-0.2422,-0.2378,-0.2431,-0.198,0.0,0.0,0.0,0.0,0.0,0.0,0.0,0.0,0.0,0.0,0.0,0.0,0.0,0.0,0.0,0.0,0.0,0.0,0.0,0.0,0.0,0.0,0.0,0.0,0.0,0.0,0.0,0.0,0.0,0.0,0.0,0.0,0.0,0.0,0.0,0.0,0.0,0.0,0.0,0.0,0.0,0.0,0.0,0.0,0.0,0.0,0.0,0.0,0.0,0.0,0.0,0.0,0.0,0.0,0.0,0.0,0.0,0.0,0.0,0.0,0.0,0.0,0.0,0.0,0.0,0.0,0.0,0.0,0.0,0.0,0.0,0.0,0.0,0.0,0.0,0.0,0.0,0.0,0.0,0.0,0.0,0.0,0.0,0.0,0.0,0.0,0.0,0.0,0.0,0.0,0.0,0.0,0.0,0.0,0.0,0.0,0.0,0.0,0.0,0.0,0.0,0.0,0.0,0.0,0.0,0.0,0.0,0.0,-0.2079,-0.2461,-0.229,-0.2166,-0.213,-0.226,-0.2119,0.0,0.0,0.0,0.0,0.0,0.0,0.0,0.0,0.0,0.0,0.0,0.0,0.0,0.0,0.0,0.0,0.0,0.0,0.0,0.0,0.0,0.0,0.0,0.0,0.0,0.0,0.0,0.0,0.0,0.0,0.0,0.0,0.0,0.0,0.0,0.0,0.0,0.0,0.0,0.0,0.0,0.0,0.0,0.0,0.0,0.0,0.0,0.0,0.0,0.0,0.0,0.0,0.0,0.0,0.0,0.0,0.0,0.0,0.0,0.0,0.0,0.0,0.0,0.0,0.0,0.0,0.0,0.0,0.0,0.0,0.0,0.0,0.0,0.0,0.0,0.0,0.0,0.0,0.0,0.0,0.0,0.0,0.0,0.0,0.0,0.0,0.0,0.0,0.0,0.0,0.0,0.0,0.0,0.0,0.0,0.0,0.0,0.0,0.0,0.0,0.0,0.0,0.0,0.0,0.0,0.0,0.0,0.0,-0.1735,-0.1972,-0.1934,-0.1922,-0.1967,-0.209,-0.2151,0.0,0.0,0.0,0.0,0.0,0.0,0.0,0.0,0.0,0.0,0.0,0.0,0.0,0.0,0.0,0.0,0.0,0.0,0.0,0.0,0.0,0.0,0.0,0.0,0.0,0.0,0.0,0.0,0.0,0.0,0.0,0.0,0.0,0.0,0.0,0.0,0.0,0.0,0.0,0.0,0.0,0.0,0.0,0.0,0.0,0.0,0.0,0.0,0.0,0.0,0.0,0.0,0.0,0.0,0.0,0.0,0.0,0.0,0.0,0.0,0.0,0.0,0.0,0.0,0.0,0.0,0.0,0.0,0.0,0.0,0.0,0.0,0.0,0.0,0.0,0.0,0.0,0.0,0.0,0.0,0.0,0.0,0.0,0.0,0.0,0.0,0.0,0.0,0.0,0.0,0.0,0.0,0.0,0.0,0.0,0.0,0.0,0.0,0.0,0.0,0.0,0.0,0.0,0.0,0.0,0.0,0.0,0.0,-0.205,-0.2442,-0.2205,-0.2131,-0.2292,-0.2074,-0.195,0.0,0.0,0.0,0.0,0.0,0.0,0.0,0.0,0.0,0.0,0.0,0.0,0.0,0.0,0.0,0.0,0.0,0.0,0.0,0.0,0.0,0.0,0.0,0.0,0.0,0.0,0.0,0.0,0.0,0.0,0.0,0.0,0.0,0.0,0.0,0.0,0.0,0.0,0.0,0.0,0.0,0.0,0.0,0.0,0.0,0.0,0.0,0.0,0.2319,0.0,0.0,0.0,0.0,0.0,0.0,0.0,0.0,0.0,0.0,0.0,0.0,0.0,0.0,0.0,0.0,0.0,0.0,0.0,0.0,0.0,0.0,0.0,0.0,0.0,0.0,0.0,0.0,0.0,0.0,0.0,0.0,0.0,0.0,0.0,0.0,0.0,0.0,0.0,0.0,0.0,0.0,0.0,0.0,0.0,0.0,0.0,0.0,0.0,0.0,0.0,0.0,0.0,0.0,0.0,0.0,0.0,0.0,0.0,-0.1962,-0.2261,-0.2095,-0.2061,-0.215,-0.1994,-0.1895,0.0,0.0,0.0,0.0,0.0,0.0,0.0,0.0,0.0,0.0,0.0,0.0,0.0,0.0,0.0,0.0,0.0,0.0,0.0,0.0,0.0,0.0,0.0,0.0,0.0,0.0,0.0,0.0,0.0,0.0,0.0,0.0,0.0,0.0,0.0,0.0,0.0,0.0,0.0,0.0,0.0,0.0,0.0,0.0,0.0,0.0,0.0,0.0,0.0,0.0,0.0,0.0,0.0,0.0,0.0,0.0,0.0,0.0,0.0,0.0,0.0,0.0,0.0,0.0,0.0,0.0,0.0,0.0,0.0,0.0,0.0,0.0,0.0,0.0,0.0,0.0,0.0,0.0,0.0,0.0,0.0,0.0,0.0,0.0,0.0,0.0,0.0,0.0,0.0,0.0,0.0,0.0,0.0,0.0,0.0,0.0,0.0,0.0,0.0,0.0,0.0,0.0,0.0,0.0,0.0,0.0,0.0,-0.153,-0.1787,-0.1895,-0.1895,-0.1895,-0.1895,-0.1895,-0.1895,-0.1895,0.0,0.0,0.0,0.0,0.0,0.0,0.0,0.0,0.0,0.0,0.0,0.0,0.0,0.0,0.0,0.0,0.0,0.0,0.0,0.0,0.0,0.0,0.0,0.0,0.0,0.0,0.0,0.0,0.0,0.0,0.0,0.0,0.0,0.0,0.0,0.0,0.0,0.0,0.0,0.189,0.0,0.0,0.0,0.0,0.0,0.0,0.0,0.0,0.3071,0.0,0.0,0.0,0.0,0.0,0.0,0.0,0.0,0.0,0.0,0.0,0.0,0.0,0.0,0.0,0.0,0.0,0.0,0.0,0.0,0.0,0.0,0.0,0.0,0.0,0.0,0.0,0.0,0.0,0.0,0.0,0.0,0.0,0.0,0.0,0.0,0.0,0.0,0.0,0.0,0.0,0.0,0.0,0.0,0.0,0.0,0.0,0.0,0.0,0.0,0.0,0.0,0.0,0.0,0.0,0.0,-0.1732,-0.1817,-0.1862,-0.1895,-0.1895,-0.1895,-0.1895,-0.1895,-0.1895,-0.1895,0.0,0.0,0.0,0.0,0.0,0.0,0.0,0.0,0.0,0.0,0.0,0.0,0.0,0.0,0.0,0.0,0.0,0.0,0.0,0.0,0.0,0.0,0.0,0.0,0.0,0.0,0.0,0.0,0.0,0.0,0.0,0.0,0.0,0.0,0.0,0.0,0.0,0.0,0.0,0.1923,0.3298,0.0,0.0,0.0,0.0,0.0,0.0,0.0,0.0,0.2689,0.0,0.0,0.0,0.0,0.0,0.0,0.0,0.0,0.0,0.0,0.0,0.0,0.0,0.0,0.0,0.0,0.0,0.0,0.0,0.0,0.0,0.0,0.0,0.0,0.0,0.0,0.0,0.0,0.0,0.0,0.0,0.0,0.0,0.0,0.0,0.0,0.0,0.0,0.0,0.0,0.0,0.0,0.0,0.0,0.0,0.0,0.0,0.0,0.0,0.0,0.0,0.0,0.0,0.0,0.0,-0.1404,-0.1739,-0.1895,-0.1895,-0.1895,-0.1895,-0.1895,-0.1895,-0.1895,0.0,0.0,0.0,0.0,0.0,0.0,0.0,0.0,0.0,0.0,0.0,0.0,0.0,0.0,0.0,0.0,0.0,0.0,0.0,0.0,0.0,0.0,0.0,0.0,0.0,0.0,0.0,0.0,0.0,0.0,0.0,0.0,0.0,0.0,0.0,0.0,0.0,0.0,0.0,0.0,0.2634,0.3216,0.2962,0.0,0.0,0.0,0.0,0.0,0.0,0.2609,0.3008,0.0,0.0,0.0,0.0,0.0,0.0,0.0,0.0,0.0,0.0,0.0,0.0,0.0,0.0,0.0,0.0,0.0,0.0,0.0,0.0,0.0,0.0,0.0,0.0,0.0,0.0,0.0,0.0,0.0,0.0,0.0,0.0,0.0,0.0,0.0,0.0,0.0,0.0,0.0,0.0,0.0,0.0,0.0,0.0,0.0,0.0,0.0,0.0,0.0,0.0,0.0,0.0,0.0,0.0,0.0,-0.1201,-0.1655,-0.1895,-0.1895,-0.1895,-0.1895,-0.1895,-0.1895,-0.1895,0.0,0.0,0.0,0.0,0.0,0.0,0.0,0.0,0.0,0.0,0.0,0.0,0.0,0.0,0.0,0.0,0.0,0.0,0.0,0.0,0.0,0.0,0.0,0.0,0.0,0.0,0.0,0.0,0.0,0.0,0.0,0.0,0.0,0.0,0.0,0.0,0.0,0.0,0.0,0.0,0.0,0.3037,0.2656,0.2928,0.0,0.0,0.0,0.0,0.3298,0.3298,0.0,0.0,0.0,0.0,0.0,0.0,0.0,0.0,0.0,0.0,0.0,0.0,0.0,0.0,0.0,0.0,0.0,0.0,0.0,0.0,0.0,0.0,0.0,0.0,0.0,0.0,0.0,0.0,0.0,0.0,0.0,0.0,0.0,0.0,0.0,0.0,0.0,0.0,0.0,0.0,0.0,0.0,0.0,0.0,0.0,0.0,0.0,0.0,0.0,0.0,0.0,0.0,0.0,0.0,0.0,0.0,-0.1797,-0.1854,-0.1895,-0.1895,-0.1895,-0.1895,-0.1895,-0.1895,-0.1862,0.0,0.0,0.0,0.0,0.0,0.0,0.0,0.0,0.0,0.0,0.0,0.0,0.0,0.0,0.0,0.0,0.0,0.0,0.0,0.0,0.0,0.0,0.0,0.0,0.0,0.0,0.0,0.0,0.0,0.0,0.0,0.0,0.0,0.0,0.0,0.0,0.0,0.0,0.0,0.0,0.0,0.2666,0.2607,0.2637,0.2849,0.0,0.0,0.0,0.3298,0.3298,0.0,0.0,0.0,0.0,0.0,0.0,0.0,0.0,0.0,0.0,0.0,0.0,0.0,0.0,0.0,0.0,0.0,0.0,0.0,0.0,0.0,0.0,0.0,0.0,0.0,0.0,0.0,0.0,0.0,0.0,0.0,0.0,0.0,0.0,0.0,0.0,0.0,0.0,0.0,0.0,0.0,0.0,0.0,0.0,0.0,0.0,0.0,0.0,0.0,0.0,0.0,0.0,0.0,0.0,0.0,-0.1612,-0.205,-0.2038,-0.2046,-0.2066,-0.2002,-0.1955,-0.1953,-0.1921,-0.1862,0.0,0.0,0.0,0.0,0.0,0.0,0.0,0.0,0.0,0.0,0.0,0.0,0.0,0.0,0.0,0.0,0.0,0.0,0.0,0.0,0.0,0.0,0.0,0.0,0.0,0.0,0.0,0.0,0.0,0.0,0.0,0.0,0.0,0.0,0.0,0.0,0.0,0.0,0.0,0.0,0.0,0.0,0.1886,0.2043,0.0,0.0,0.0,0.2903,0.3694,0.0,0.0,0.0,0.0,0.0,0.0,0.0,0.0,0.0,0.0,0.0,0.0,0.0,0.0,0.0,0.0,0.0,0.0,0.0,0.0,0.0,0.0,0.0,0.0,0.0,0.0,0.0,0.0,0.0,0.0,0.0,0.0,0.0,0.0,0.0,0.0,0.0,0.0,0.0,0.0,0.0,0.0,0.0,0.0,0.0,0.0,0.0,0.0,0.0,0.0,0.0,0.0,0.0,0.0,0.0,0.0,0.0,-0.2088,-0.2102,-0.2135,-0.2168,-0.2102,-0.2015,-0.1963,-0.1891,0.0,0.0,0.0,0.0,0.0,0.0,0.0,0.0,0.0,0.0,0.0,0.0,0.0,0.0,0.0,0.0,0.0,0.0,0.0,0.0,0.0,0.0,0.0,0.0,0.0,0.0,0.0,0.0,0.0,0.0,0.0,0.0,0.0,0.0,0.0,0.0,0.0,0.0,0.0,0.0,0.0,0.0,0.2661,0.1893,0.2277,0.2881,0.0,0.0,0.2987,0.4028,0.3092,0.2545,0.0,0.0,0.0,0.0,0.0,0.0,0.0,0.0,0.0,0.0,0.0,0.0,0.0,0.0,0.0,0.0,0.0,0.0,0.0,0.0,0.0,0.0,0.0,0.0,0.0,0.0,0.0,0.0,0.0,0.0,0.0,0.0,0.0,0.0,0.0,0.0,0.0,0.0,0.0,0.0,0.0,0.0,0.0,0.0,0.0,0.0,0.0,0.0,0.0,0.0,0.0,0.0,0.0,0.0,0.0,-0.1811,-0.2076,-0.2168,-0.2108,-0.2168,-0.2058,-0.1818,-0.1803,-0.1803,0.0,0.0,0.0,0.0,0.0,0.0,0.0,0.0,0.0,0.0,0.0,0.0,0.0,0.0,0.0,0.0,0.0,0.0,0.0,0.0,0.0,0.0,0.0,0.0,0.0,0.0,0.0,0.0,0.0,0.0,0.0,0.0,0.0,0.0,0.0,0.0,0.0,0.0,0.0,0.0,0.0,0.3697,0.3397,0.4063,0.4687,0.0,0.0,0.4103,0.4191,0.329,0.2592,0.2686,0.0,0.0,0.0,0.0,0.0,0.0,0.0,0.0,0.0,0.0,0.0,0.0,0.0,0.0,0.0,0.0,0.0,0.0,0.0,0.0,0.0,0.0,0.0,0.0,0.0,0.0,0.0,0.0,0.0,0.0,0.0,0.0,0.0,0.0,0.0,0.0,0.0,0.0,0.0,0.0,0.0,0.0,0.0,0.0,0.0,0.0,0.0,0.0,0.0,0.0,0.0,0.0,0.0,-0.1674,-0.1925,-0.2099,-0.223,-0.2282,-0.2308,-0.2198,-0.1927,-0.1836,-0.1803,0.0,0.0,0.0,0.0,0.0,0.0,0.0,0.0,0.0,0.0,0.0,0.0,0.0,0.0,0.0,0.0,0.0,0.0,0.0,0.0,0.0,0.0,0.0,0.0,0.0,0.0,0.0,0.0,0.0,0.0,0.0,0.0,0.0,0.0,0.0,0.0,0.0,0.0,0.0,0.0,0.0,0.2593,0.2845,0.3524,0.0,0.0,0.3817,0.3859,0.4645,0.4415,0.4144,0.4144,0.3275,0.0,0.0,0.0,0.0,0.0,0.0,0.0,0.0,0.0,0.0,0.0,0.0,0.0,0.0,0.0,0.0,0.0,0.0,0.0,0.0,0.0,0.0,0.0,0.0,0.0,0.0,0.0,0.0,0.0,0.0,0.0,0.0,0.0,0.0,0.0,0.0,0.0,0.0,0.0,0.0,0.0,0.0,0.0,0.0,0.0,0.0,0.0,0.0,0.0,0.0,0.0,0.0,-0.1712,-0.1948,-0.2109,-0.223,-0.2322,-0.2407,-0.2299,-0.1947,-0.1927,-0.1875,0.0,0.0,0.0,0.0,0.0,0.0,0.0,0.0,0.0,0.0,0.0,0.0,0.0,0.0,0.0,0.0,0.0,0.0,0.0,0.0,0.0,0.0,0.0,0.0,0.0,0.0,0.0,0.0,0.0,0.0,0.0,0.0,0.0,0.0,0.0,0.0,0.0,0.0,0.0,0.0,0.0,0.2012,0.2441,0.2902,0.3255,0.3474,0.3379,0.3723,0.4903,0.5098,0.4952,0.452,0.0,0.0,0.0,0.0,0.0,0.0,0.0,0.0,0.0,0.0,0.0,0.0,0.0,0.0,0.0,0.0,0.0,0.0,0.0,0.0,0.0,0.0,0.0,0.0,0.0,0.0,0.0,0.0,0.0,0.0,0.0,0.0,0.0,0.0,0.0,0.0,0.0,0.0,0.0,0.0,0.0,0.0,0.0,0.0,0.0,0.0,0.0,0.0,0.0,0.0,0.0,0.0,0.0,0.0,-0.1797,-0.2063,-0.2168,-0.2123,-0.2435,-0.2349,-0.1835,-0.2064,-0.2076,-0.1775,0.0,0.0,0.0,0.0,0.0,0.0,0.0,0.0,0.0,0.0,0.0,0.0,0.0,0.0,0.0,0.0,0.0,0.0,0.0,0.0,0.0,0.0,0.0,0.0,0.0,0.0,0.0,0.0,0.0,0.0,0.0,0.0,0.0,0.0,0.0,0.0,0.0,0.0,0.0,0.2477,0.2482,0.2501,0.2517,0.2772,0.34,0.3485,0.3869,0.4942,0.5098,0.4612,0.0,0.0,0.0,0.0,0.0,0.0,0.0,0.0,0.0,0.0,0.0,0.0,0.0,0.0,0.0,0.0,0.0,0.0,0.0,0.0,0.0,0.0,0.0,0.0,0.0,0.0,0.0,-0.2855,-0.1586,0.0,0.0,0.0,0.0,0.0,0.0,0.0,0.0,0.0,0.0,0.0,-0.3641,-0.3771,0.0,0.0,0.0,0.0,0.0,0.0,0.0,0.0,0.0,0.0,0.0,0.0,-0.1943,-0.2076,-0.2102,-0.214,-0.2184,-0.2495,-0.2491,-0.215,-0.2338,-0.1881,-0.0657,0.0,0.0,0.0,0.0,0.0,0.0,0.0,0.0,0.0,0.0,0.0,0.0,0.0,0.0,0.0,0.0,0.0,0.0,0.0,0.0,0.0,0.0,0.0,0.0,0.0,0.0,0.0,0.0,0.0,0.0,0.0,0.0,0.0,0.0,0.0,0.0,0.0,0.2092,0.2457,0.2506,0.2506,0.2506,0.2506,0.2686,0.0,0.0,0.0,0.0,0.0,0.0,0.0,0.0,0.0,0.0,0.0,0.0,0.0,0.0,0.4651,0.5199,0.4338,0.3852,0.5025,0.0,0.0,0.0,0.0,0.0,0.0,0.0,0.0,0.0,0.0,0.0,0.0,0.0,0.0,0.0,0.0,-0.2619,0.0,0.0,0.0,0.0,0.0,0.0,0.0,0.0,-0.4248,-0.4185,-0.4026,-0.4274,-0.4183,0.0,-0.3984,-0.3596,0.0,0.0,0.0,0.0,0.0,0.0,0.0,0.0,-0.2286,-0.2434,-0.2236,-0.2168,-0.2213,-0.2573,-0.264,-0.235,-0.2332,-0.178,-0.0664,-0.1141,-0.1329,0.0,0.0,0.0,0.0,0.0,0.0,0.0,0.0,0.0,0.0,0.0,0.0,0.0,0.0,0.0,0.0,0.0,0.0,0.0,0.0,0.0,0.0,0.0,0.0,0.0,0.0,0.0,0.0,0.0,0.0,0.0,0.0,0.0,0.2127,0.1951,0.1927,0.2107,0.2129,0.2118,0.2129,0.0,0.0,0.0,0.0,0.0,0.0,0.0,0.4404,0.3973,0.3513,0.3234,0.3277,0.3058,0.3095,0.3757,0.0,0.0,0.5675,0.4821,0.4023,0.4325,0.5492,0.6324,0.6022,0.6611,0.7274,0.0,0.0,0.0,0.0,0.0,0.0,0.0,0.0,-0.4354,-0.4844,0.0,-0.4539,0.0,0.0,0.0,0.0,0.0,0.0,0.0,0.0,-0.4848,-0.5038,-0.5038,-0.5077,-0.4886,-0.4483,-0.4875,-0.467,-0.3933,-0.3471,0.0,0.0,0.0,0.0,0.0,0.0,-0.259,-0.2912,-0.2474,-0.2225,-0.2237,-0.2654,-0.2744,-0.2454,-0.2064,-0.1835,-0.177,-0.1469,-0.134,-0.14,-0.1071,0.0,0.0,0.0,0.0,0.0,0.0,0.0,0.0,0.0,0.0,0.0,0.0,0.0,0.0,0.0,0.0,0.0,0.0,0.0,0.0,0.0023,0.0,0.0,0.0,0.0,0.0,0.0,0.0,0.0,0.0,0.0,0.1239,0.0893,0.0873,0.1329,0.0,0.0,0.0,0.0,0.1225,0.1251,0.2479,0.3433,0.3437,0.3494,0.3574,0.3778,0.0,0.0,0.2079,0.2121,0.2133,0.2131,0.2452,0.3109,0.4708,0.5029,0.5134,0.5408,0.6094,0.6761,0.7037,0.6742,0.6625,-0.7668,0.0,0.0,0.0,0.0,-0.635,-0.643,-0.6626,-0.6638,-0.6616,-0.6574,-0.628,0.0,0.0,0.0,0.0,0.0,0.0,-0.5374,-0.5724,-0.5825,-0.5898,-0.5978,-0.5731,-0.5527,-0.539,-0.5195,-0.4981,-0.4757,-0.4633,-0.4053,-0.3077,0.0,0.0,0.0,0.0,-0.3303,-0.3495,-0.2979,-0.269,-0.2696,-0.2686,-0.2854,-0.317,-0.2842,-0.2393,-0.1816,-0.1566,-0.1405,-0.1335,-0.1156,0.0,0.0,0.0,0.0,0.0,0.0,0.0,0.0,0.0,0.0,0.0,0.0,0.0,0.0,0.0,0.0,0.0,0.0,0.0,0.1197,0.0511,0.0,0.0,0.0,0.0,0.0,0.0,0.0,0.0,0.0,0.0,0.0973,0.0745,0.0737,0.0,0.0,0.0888,0.1464,0.1504,0.1497,0.1475,0.0,0.0,0.0,0.2973,0.3259,0.252,0.2113,0.1911,0.1947,0.2023,0.2108,0.2108,0.2366,0.2779,0.3236,0.4328,0.5135,0.5473,0.5991,0.6418,0.6527,0.6436,0.6401,-0.945,-0.8743,-0.7851,-0.7429,-0.736,-0.736,-0.7439,-0.76,-0.76,-0.747,-0.7264,-0.7112,-0.6662,-0.6021,-0.5916,0.0,0.0,0.0,-0.6184,-0.6498,-0.6563,-0.6563,-0.6493,-0.6278,-0.6149,-0.6128,-0.5575,-0.5319,-0.5349,-0.5165,-0.4671,-0.387,0.0,0.0,-0.3816,-0.3687,-0.3748,-0.4012,-0.3499,-0.3215,-0.3215,-0.3135,-0.33,-0.3667,-0.3344,-0.2788,-0.2021,-0.1748,-0.1476,-0.1164,-0.0833,-0.0629,0.0,0.0,0.0,0.0,0.0,0.0,0.0,0.0,0.0,0.0,0.0,0.0103,0.0,0.0,0.0,0.0,0.0228,0.0556,0.1042,0.0861,0.0,0.0,0.0,0.0,0.0,0.0,0.0,0.0751,0.1382,0.1559,0.081,0.0704,0.0701,0.07,0.1004,0.1479,0.2139,0.0,0.2235,0.2235,0.2303,0.2384,0.2466,0.2667,0.2603,0.1963,0.1867,0.1895,0.19,0.202,0.2102,0.2133,0.226,0.2445,0.2588,0.3942,0.5185,0.5443,0.5605,0.5775,0.6065,0.5908,0.5852,-1.0994,-1.065,-0.8702,-0.7725,-0.7536,-0.7883,-0.793,-0.7718,-0.7718,-0.7749,-0.7776,-0.7436,-0.7243,-0.72,-0.6878,0.0,-0.7273,-0.7045,-0.6912,-0.6926,-0.719,-0.7142,-0.6851,-0.6819,-0.681,-0.679,-0.6081,-0.5754,-0.5765,-0.5399,-0.4991,-0.4609,-0.4561,-0.4531,-0.4492,-0.4107,-0.4087,-0.4444,-0.398,-0.3717,-0.3637,-0.3798,-0.3902,-0.3991,-0.358,-0.3026,-0.2414,-0.1999,-0.1539,-0.0982,-0.0344,0.0,0.0,0.0,0.0,0.0,0.0,0.0,0.0,0.0,0.0,0.0,0.0,0.0,0.0,0.0,0.0,0.0,0.0532,0.0,0.0046,0.1005,0.0,0.0,0.0,0.0703,0.0757,0.1093,0.1183,0.0745,0.0,0.0,0.0701,0.0,0.0754,0.0754,0.1731,0.2636,0.3144,0.3166,0.3208,0.3141,0.3184,0.3275,0.3319,0.2685,0.2155,0.2122,0.204,0.2079,0.1942,0.1994,0.2082,0.2108,0.2113,0.2323,0.2716,0.4016,0.4959,0.5126,0.4968,0.4949,0.5425,0.52,0.5108,-1.1987,-1.1753,-1.0705,-0.9852,-0.9218,-0.9317,-0.9116,-0.8761,-0.8736,-0.8749,-0.8756,-0.8659,-0.8508,-0.8308,-0.801,-0.7941,-0.8025,-0.7924,-0.7914,-0.8025,-0.8093,-0.8107,-0.8134,-0.7841,-0.7693,-0.7648,-0.7149,-0.6808,-0.6602,-0.6168,-0.5786,-0.5489,-0.5137,-0.4796,-0.4521,-0.4699,-0.4818,-0.4848,-0.444,-0.3874,-0.3209,-0.3497,-0.3777,-0.3991,-0.3267,-0.2937,-0.3035,-0.2239,-0.1736,-0.1571,-0.0566,0.0,0.0,0.0,0.0,0.0,0.0,0.0,0.0,0.0,0.0,0.0,0.0,0.0059,0.02,0.0,0.0199,0.0,0.0406,0.0154,0.0027,0.0254,0.0,0.0,0.1136,0.0842,0.1199,0.1009,0.0827,0.0723,0.07,0.0698,0.0698,0.1012,0.1235,0.1237,0.1658,0.2274,0.3052,0.3208,0.3208,0.3187,0.3165,0.3272,0.3444,0.3293,0.3089,0.3125,0.3287,0.3074,0.2064,0.1921,0.1989,0.2077,0.2108,0.271,0.412,0.3879,0.3258,0.3321,0.3782,0.4155,0.3915,0.4346,0.463,-1.2891,-1.2796,-1.2246,-1.1607,-1.0912,-1.0409,-1.0044,-0.9814,-0.9799,-0.9703,-0.9607,-0.9374,-0.9146,-0.8995,-0.8862,-0.8782,-0.8751,-0.8793,-0.8757,-0.8634,-0.8775,-0.8761,-0.8634,-0.8423,-0.8317,-0.8279,-0.7711,-0.7374,-0.7268,-0.6808,-0.6518,-0.6452,-0.5826,-0.5422,-0.527,-0.5156,-0.5068,-0.5,-0.4716,-0.4151,-0.3324,-0.3669,-0.3822,-0.3684,-0.3401,-0.327,-0.3328,-0.236,-0.1671,-0.1384,-0.0511,0.0,0.0,0.0,0.0,0.0,0.0,0.0,0.0,0.0,0.0,0.0,0.0,0.0,0.0,0.0,0.043,0.0,0.0199,-0.0031,-0.0084,-0.0152,0.014,0.0908,0.0641,0.057,0.1026,0.0855,0.0698,0.0698,0.0698,0.0698,0.0717,0.111,0.1399,0.1399,0.1532,0.1806,0.2285,0.2502,0.2567,0.2589,0.2583,0.2826,0.3389,0.3506,0.3531,0.3657,0.3796,0.3452,0.2163,0.1895,0.1942,0.2072,0.2108,0.2483,0.3674,0.3295,0.2612,0.2671,0.3037,0.3575,0.4115,0.4152,0.3865,-1.3669,-1.3665,-1.3382,-1.3002,-1.2461,-1.1487,-1.0939,-1.0743,-1.0707,-1.0553,-1.0321,-0.9797,-0.9562,-0.9588,-0.9573,-0.9532,-0.9482,-0.9657,-0.9464,-0.9069,-0.9343,-0.9238,-0.88,-0.8811,-0.88,-0.8789,-0.8151,-0.788,-0.7953,-0.7422,-0.7253,-0.7336,-0.6563,-0.619,-0.6213,-0.5573,-0.5185,-0.5056,-0.489,-0.4438,-0.3698,-0.3979,-0.3872,-0.3371,-0.3582,-0.3662,-0.3523,-0.2462,-0.1644,-0.1129,-0.0406,0.0,0.0,0.0,0.0,0.0,0.0,0.0,0.0,0.0,0.0,0.0,0.0,0.0,0.0,0.0454,0.0557,0.0,0.0,-0.0047,-0.0174,-0.0274,-0.0267,-0.0036,0.0022,0.0228,0.0615,0.0632,0.0615,0.0609,0.0665,0.0698,0.0717,0.1019,0.1219,0.1366,0.1421,0.1455,0.1444,0.1651,0.1817,0.1792,0.1902,0.2535,0.3287,0.3506,0.3569,0.3786,0.388,0.3481,0.2417,0.2221,0.2245,0.2348,0.2267,0.2233,0.2504,0.2592,0.2598,0.2603,0.2647,0.3157,0.4359,0.3988,0.3214,-1.4157,-1.4124,-1.3812,-1.3563,-1.3351,-1.3148,-1.2249,-1.0954,-1.1106,-1.0962,-1.0621,-1.0497,-1.0478,-1.0545,-1.0482,-1.0425,-1.0448,-1.0417,-1.016,-0.9727,-0.9825,-0.9671,-0.9286,-0.9326,-0.9351,-0.9339,-0.9218,-0.9038,-0.884,-0.8379,-0.8042,-0.7857,-0.7322,-0.6837,-0.6455,0.0,0.0,0.0,-0.4997,-0.4575,-0.4116,-0.3834,-0.3634,-0.3451,-0.3002,0.0,-0.4103,-0.2921,-0.2231,-0.2231,-0.0827,0.0,0.0,0.0,0.0,0.0,0.0,0.0,0.0,0.0,0.0,0.0,0.0042,0.0081,-0.0492,-0.0119,0.0131,0.0,0.0,-0.0005,-0.0033,-0.0074,-0.0063,-0.0006,0.02,0.0374,0.0446,0.0267,0.0139,0.0145,0.0452,0.069,0.0671,0.0469,0.0569,0.1221,0.1399,0.1399,0.1399,0.1455,0.1577,0.1795,0.2339,0.2999,0.3432,0.3485,0.3527,0.3601,0.3772,0.3779,0.3528,0.3468,0.3554,0.3673,0.2875,0.2118,0.2199,0.24,0.2573,0.2588,0.2593,0.2721,0.3139,0.3017,0.2869,-1.4933,0.0,-1.4392,-1.4114,0.0,-1.4049,-1.3428,-1.2434,-1.2354,-1.2123,-1.1728,-1.145,-1.1234,-1.1067,-1.1078,-1.0939,-1.0719,-1.0979,-1.0665,-0.9962,-0.9977,-0.9751,-0.9299,-0.9338,-0.9351,-0.9363,-0.9311,-0.9271,-0.918,-0.8898,-0.8705,-0.8643,-0.7991,-0.7572,-0.7326,-0.6699,-0.6,-0.521,-0.5136,-0.4794,-0.4218,-0.3797,-0.357,-0.3495,0.0,0.0,0.0,0.0,0.0,0.0,0.0,0.0,0.0,0.0,0.0,0.0,0.0,-0.0126,-0.0428,-0.0841,-0.1015,-0.0813,-0.0412,-0.0331,-0.0687,-0.0473,-0.0242,0.0,0.0,0.0,0.0,0.0,0.0,0.0,0.0128,0.0206,0.0195,0.0089,0.0,0.0,0.0211,0.0346,0.0359,0.0178,0.0189,0.0672,0.1239,0.1585,0.1585,0.1488,0.1499,0.1759,0.2154,0.2529,0.2697,0.3207,0.3495,0.3538,0.3713,0.3872,0.3911,0.3911,0.3931,0.3953,0.299,0.2102,0.2113,0.2245,0.2386,0.2514,0.2583,0.2612,0.2646,0.268,0.2742,-1.5725,-1.5786,-1.4997,-1.4683,-1.4699,-1.4558,-1.4326,-1.3983,0.0,0.0,0.0,-1.2271,-1.1854,-1.1509,-1.1589,-1.1374,-1.0993,-1.1464,-1.1176,-1.0227,-1.0164,-0.9849,-0.9331,-0.9226,-0.9217,-0.9217,-0.9176,-0.919,-0.9287,-0.9191,-0.9203,-0.9225,-0.8619,-0.8277,-0.8127,-0.72,-0.6173,-0.5142,-0.5316,-0.5069,-0.4319,-0.399,-0.3749,-0.361,-0.3394,-0.3176,-0.3007,-0.3135,-0.3092,-0.2868,-0.2649,-0.2713,-0.3042,-0.2146,-0.1193,-0.0367,-0.0206,-0.0383,-0.0857,-0.1358,-0.143,-0.0924,-0.0834,-0.0762,-0.0698,-0.0698,-0.0502,-0.005,0.0,0.0,0.0,0.0,0.0,0.0,0.0,0.0,0.0,0.0,0.0,0.0,0.0,0.0,0.0,0.0,0.0,0.0,0.0992,0.1759,0.177,0.1607,0.1574,0.177,0.1891,0.1847,0.1946,0.2557,0.3202,0.317,0.3524,0.3835,0.389,0.3911,0.3911,0.3921,0.3005,0.2536,0.2521,0.2377,0.2221,0.2426,0.2534,0.2593,0.2598,0.2641,0.2695,-1.6369,-1.6494,-1.568,-1.5416,-1.5459,-1.48,-1.447,-1.4326,-1.3387,-1.2808,-1.2532,-1.2419,-1.2325,-1.2224,-1.2141,-1.2017,-1.1924,-1.2035,-1.1757,0.0,-1.0809,-1.0377,-0.9794,-0.9433,-0.9274,-0.9287,-0.9286,-0.9286,-0.9313,-0.9286,-0.9274,-0.9287,-0.919,-0.8776,-0.8112,-0.7452,-0.6667,-0.579,-0.5646,-0.5296,-0.473,-0.4666,-0.4429,-0.4034,-0.3708,-0.3369,-0.3014,-0.267,-0.2528,-0.2647,-0.2437,-0.2443,-0.2642,-0.2003,-0.1531,-0.1365,-0.1011,-0.0809,-0.0883,-0.0986,-0.0993,-0.0901,-0.084,-0.0773,-0.0709,-0.0698,-0.0496,0.0,0.0,0.0,0.0,0.0,0.0,0.0,0.0,0.0,0.0,0.0,0.0,0.0,0.0,0.0,0.0,0.0,0.0,0.0,0.086,0.1541,0.1718,0.177,0.177,0.1792,0.1803,0.1803,0.1847,0.2037,0.2359,0.2287,0.302,0.3541,0.3706,0.3768,0.3779,0.3869,0.3296,0.3315,0.3939,0.3065,0.2478,0.2442,0.2511,0.2588,0.2583,0.2617,0.2627,-1.7114,-1.7112,-1.6439,-1.5963,-1.5632,-1.4858,-1.4294,-1.3921,-1.3446,-1.319,-1.3121,-1.3069,-1.2808,-1.2401,-1.2365,-1.2282,-1.2156,-1.2258,-1.1925,-1.1291,-1.0879,-1.0386,-0.9851,-0.9408,-0.9203,-0.9203,-0.9203,-0.9203,-0.919,-0.9203,-0.919,-0.919,-0.9218,-0.8777,-0.788,-0.7591,-0.6929,-0.5877,-0.583,-0.5475,-0.4812,-0.4793,-0.4573,-0.4105,-0.3913,-0.3457,-0.2762,-0.2618,-0.2513,-0.2384,-0.2151,-0.2204,-0.255,-0.1971,-0.1583,-0.1583,-0.1394,-0.116,-0.0915,-0.0888,-0.0888,-0.0891,-0.094,-0.0926,-0.083,-0.0734,-0.0609,-0.0413,-0.0607,-0.0542,0.0,0.0,0.0,0.0,0.0,0.0,0.0,0.0,0.0,0.0,0.0,0.0,0.0,0.0,0.0,0.0,0.0806,0.1433,0.1574,0.1707,0.185,0.1942,0.1883,0.1803,0.1803,0.1861,0.1975,0.2078,0.2446,0.2772,0.2923,0.303,0.3137,0.3143,0.295,0.3249,0.4135,0.4096,0.348,0.2676,0.2524,0.2533,0.2578,0.2617,0.2666,-1.7763,-1.7759,-1.7104,-1.6351,-1.553,-1.4948,-1.4349,-1.3749,-1.3715,-1.3648,-1.3598,-1.3463,-1.3035,-1.2449,-1.2473,-1.2383,-1.2228,-1.2347,-1.2066,-1.1492,-1.0888,-1.0394,-0.9927,-0.9393,-0.9092,-0.9092,-0.9092,-0.9092,-0.9092,-0.9092,-0.9092,-0.9081,-0.9069,-0.8648,-0.7848,-0.7601,-0.6978,-0.6023,-0.5874,-0.5493,-0.4831,-0.4793,-0.4619,-0.4284,-0.422,-0.3729,-0.2856,-0.2755,-0.2605,-0.2305,-0.2036,-0.2037,-0.2355,-0.1896,-0.1583,-0.1583,-0.1583,-0.1405,-0.0969,-0.0978,-0.0981,-0.092,-0.1048,-0.1129,-0.1099,-0.0871,-0.0734,-0.0761,-0.1097,-0.1073,0.0,0.0,0.0,0.0,0.0,0.0,0.0,0.0,0.0,0.0,0.0,0.0,0.0,0.0,0.0,0.0,0.0819,0.1366,0.1421,0.1585,0.1773,0.1942,0.1931,0.1861,0.1817,0.1803,0.1894,0.2067,0.2122,0.2199,0.2232,0.2331,0.2457,0.2545,0.2549,0.2837,0.3587,0.4282,0.4176,0.331,0.3016,0.2955,0.3188,0.3304,0.3063,-1.8257,-1.8277,-1.7571,-1.6445,-1.5291,-1.5335,-1.5021,-1.444,-1.4287,-1.4026,-1.3674,-1.3052,-1.2662,-1.2431,-1.2473,-1.2389,-1.221,-1.233,-1.2283,-1.1995,-1.112,-1.0625,-1.0424,-0.9566,-0.9092,-0.9092,-0.9092,-0.9092,-0.9092,-0.9092,-0.9092,-0.9065,-0.8809,-0.862,-0.8382,-0.7413,-0.6713,-0.6419,-0.568,-0.5127,-0.4822,-0.4793,-0.4785,-0.4738,-0.472,-0.4369,-0.3578,-0.2966,-0.2603,-0.2546,-0.2303,-0.2077,-0.1894,-0.1693,-0.1599,-0.1618,-0.1611,-0.1389,-0.0993,-0.1183,-0.122,-0.0945,-0.1163,-0.1403,-0.1638,-0.1207,-0.083,-0.0844,-0.1157,-0.1342,-0.1288,-0.1232,-0.0873,-0.0225,0.0,0.0,0.0,0.0,0.0,0.0,0.0,0.0,0.0,0.0,0.0,0.0,0.0728,0.1274,0.1288,0.1285,0.1507,0.1773,0.1953,0.1975,0.1861,0.1803,0.1894,0.2067,0.21,0.21,0.2122,0.2126,0.2199,0.2473,0.2506,0.2658,0.2999,0.3605,0.4053,0.3728,0.3687,0.408,0.4472,0.4584,0.4224,-1.8242,-1.8313,-1.8096,-1.7394,-1.6445,-1.6025,-1.5636,-1.5287,-1.4761,-1.4375,-1.4033,-1.3201,-1.2733,-1.2585,-1.2526,-1.2425,-1.2318,-1.2312,-1.2228,-1.208,-1.1393,-1.09,-1.0539,-0.9861,-0.9368,-0.9117,-0.9092,-0.9092,-0.9092,-0.9092,-0.8999,-0.8809,-0.867,-0.8421,-0.8017,-0.7113,-0.6474,-0.6187,-0.5385,-0.4912,-0.4812,-0.4793,-0.4793,-0.4793,-0.4793,-0.4458,-0.3781,-0.3516,-0.3184,-0.2655,-0.2486,-0.2238,-0.183,-0.1711,-0.194,-0.244,-0.225,-0.1862,-0.1344,-0.1591,-0.1649,-0.1441,-0.1457,-0.1577,-0.1775,-0.1573,-0.1421,-0.1389,-0.1533,-0.1574,-0.1433,-0.1399,-0.123,-0.0907,-0.0828,-0.0627,0.0,0.0,0.0,0.0,0.0,0.0,0.0,0.0,0.0,0.0,0.0515,0.0808,0.0808,0.0683,0.0949,0.1593,0.1872,0.1931,0.1953,0.1975,0.1975,0.1953,0.2034,0.21,0.21,0.21,0.2188,0.2451,0.2495,0.2528,0.2626,0.2977,0.3358,0.3519,0.416,0.4613,0.4764,0.4863,0.4629,-1.8103,-1.8222,-1.8347,-1.7927,-1.7147,-1.6591,-1.6213,-1.5946,-1.5296,-1.4808,-1.4453,-1.3662,-1.3078,-1.2757,-1.2609,-1.252,-1.2413,-1.2282,-1.2222,-1.2062,-1.1578,-1.1119,-1.0768,-1.0248,-0.977,-0.937,-0.9299,-0.9219,-0.9115,-0.9092,-0.8971,-0.8753,-0.8572,-0.8266,-0.7779,-0.6868,-0.6262,-0.5966,-0.5213,-0.4793,-0.4793,-0.4793,-0.4793,-0.4793,-0.4793,-0.4531,-0.3952,-0.3882,-0.3592,-0.2982,-0.2795,-0.2557,-0.2224,-0.2028,-0.2302,-0.3026,-0.2692,-0.231,-0.2048,-0.2082,-0.2009,-0.1822,-0.1751,-0.1741,-0.1789,-0.1803,-0.1773,-0.1679,-0.1748,-0.1696,-0.1552,-0.1444,-0.1399,-0.1399,-0.1399,-0.1074,0.0,-0.0381,0.0,0.0,0.0,0.0,0.0,0.0,0.0,0.0,0.0169,0.0349,0.0427,0.0504,0.0905,0.1659,0.1792,0.1861,0.1997,0.2067,0.1997,0.1964,0.2034,0.21,0.21,0.21,0.2188,0.2429,0.2473,0.2528,0.2593,0.2751,0.2999,0.351,0.4097,0.4643,0.4773,0.4802,0.4941,-1.7794,-1.8169,-1.8208,-1.776,-1.6927,-1.697,-1.6724,-1.635,-1.5905,-1.5443,-1.4893,-1.4443,-1.3758,-1.2833,-1.2733,-1.2573,-1.2401,-1.2377,-1.2294,-1.2146,-1.1601,-1.1302,-1.1245,-1.0791,-1.0275,-0.9735,-0.9701,-0.9506,-0.9115,-0.9092,-0.9092,-0.9038,-0.8527,-0.8215,-0.7992,-0.6816,-0.6061,-0.6006,-0.5296,-0.482,-0.4812,-0.4812,-0.4821,-0.4802,-0.4793,-0.4676,-0.4412,-0.3865,-0.3588,-0.3732,-0.3248,-0.3039,-0.3144,-0.273,-0.2701,-0.3074,-0.2719,-0.2642,-0.2932,-0.2631,-0.2249,-0.1934,-0.1999,-0.1992,-0.1821,-0.1803,-0.1718,-0.1466,-0.1685,-0.1781,-0.1707,-0.1552,-0.1444,-0.1421,-0.141,-0.133,-0.1308,-0.1185,-0.0884,-0.0291,0.0,0.0,0.0,0.0,0.0,0.0,0.0,0.0124,0.0439,0.1074,0.1493,0.159,0.1692,0.1781,0.1803,0.1986,0.2078,0.2056,0.2056,0.21,0.21,0.2133,0.2276,0.2396,0.2462,0.2528,0.2593,0.2778,0.3042,0.3457,0.3897,0.4319,0.4733,0.4774,0.4872,-1.7929,-1.8169,-1.8063,-1.7872,-1.7734,-1.7622,-1.7538,-1.7441,-1.6701,-1.611,-1.5564,-1.4776,-1.396,-1.3224,-1.2908,-1.2591,-1.2294,-1.224,-1.2186,-1.2115,-1.1918,-1.1641,-1.1302,-1.1108,-1.058,-0.9907,-0.9793,-0.9563,-0.9138,-0.9092,-0.9092,-0.9026,-0.8684,-0.846,-0.8259,-0.729,-0.6706,-0.661,-0.5962,-0.5449,-0.5185,-0.5187,-0.5058,-0.4811,-0.4793,-0.4704,-0.4496,-0.4374,-0.4181,-0.3806,-0.358,-0.34,-0.3286,-0.307,-0.3009,-0.316,-0.302,-0.3002,-0.3117,-0.2845,-0.2672,-0.2687,-0.2383,-0.2106,-0.1869,-0.1803,-0.1762,-0.1707,-0.1729,-0.174,-0.1607,-0.1596,-0.1662,-0.1629,-0.1496,-0.1399,-0.1399,-0.1399,-0.1241,-0.0884,0.0,0.0,0.0,0.0,0.0,0.0,0.0,0.0,0.0349,0.074,0.0951,0.0916,0.0905,0.0894,0.0895,0.164,0.2078,0.2089,0.21,0.2089,0.2089,0.21,0.221,0.2258,0.2364,0.2484,0.2538,0.2723,0.2999,0.3294,0.3731,0.4145,0.4724,0.4694,0.4734,-1.7848,-1.7935,-1.7922,-1.7983,-1.8083,-1.7963,-1.7983,-1.8008,-1.7296,-1.6655,-1.6051,-1.5337,-1.46,-1.3844,-1.3328,-1.2932,-1.257,-1.2285,-1.212,-1.2113,-1.2084,-1.1911,-1.1618,-1.1561,-1.1124,-1.0328,-0.9915,-0.962,-0.9336,-0.9175,-0.9092,-0.9079,-0.8742,-0.8558,-0.8343,-0.7562,-0.7047,-0.6837,-0.6321,-0.5784,-0.5463,-0.5408,-0.5216,-0.4856,-0.4793,-0.4724,-0.4605,-0.4724,-0.4525,-0.3978,-0.3765,-0.3556,-0.3292,-0.3223,-0.3208,-0.3208,-0.3202,-0.3208,-0.3187,-0.3009,-0.3004,-0.3149,-0.2724,-0.2274,-0.1869,-0.1803,-0.1803,-0.1803,-0.1803,-0.1707,-0.1596,-0.1618,-0.167,-0.1662,-0.1507,-0.1399,-0.1399,-0.1399,-0.1232,-0.0851,-0.0359,0.0,0.0,0.0,0.0,0.0,0.0,0.0,0.0225,0.0349,0.0394,0.0394,0.0461,0.0484,0.0528,0.1054,0.1416,0.1471,0.1599,0.1721,0.2012,0.2045,0.2111,0.2148,0.2243,0.2375,0.2523,0.2697,0.2913,0.3165,0.3393,0.3744,0.4201,0.4574,0.4654,-1.7516,-1.7557,-1.7774,-1.7882,-1.7868,-1.7882,-1.7902,-1.7814,-1.7571,-1.6963,-1.6277,-1.6244,-1.5472,-1.4571,-1.3914,-1.3593,-1.3199,-1.2581,-1.2202,-1.2113,-1.2084,-1.2084,-1.2026,-1.2015,-1.1721,-1.1119,-1.0248,-0.9804,-0.9724,-0.931,-0.9092,-0.904,-0.8795,-0.8572,-0.8244,-0.7596,-0.7019,-0.676,-0.6371,-0.5896,-0.5459,-0.5461,-0.528,-0.4895,-0.4812,-0.4793,-0.4793,-0.4793,-0.4565,-0.413,-0.3848,-0.3563,-0.3266,-0.3208,-0.3208,-0.3208,-0.3208,-0.3208,-0.3208,-0.3181,-0.3159,-0.3165,-0.2907,-0.2448,-0.1913,-0.1803,-0.1781,-0.1759,-0.1759,-0.1759,-0.1707,-0.1555,-0.1455,-0.141,-0.1399,-0.1399,-0.1399,-0.1399,-0.1085,-0.0393,0.0,0.0,0.0,0.0169,0.0214,0.0,0.0,0.0,0.0,0.0247,0.0382,0.0394,0.0394,0.0394,0.0394,0.0428,0.0565,0.0704,0.0867,0.1054,0.1632,0.1846,0.2067,0.2137,0.2232,0.2359,0.249,0.2664,0.2875,0.3106,0.3249,0.3383,0.3671,0.4058,0.4554,-1.7372,-1.7496,-1.7591,-1.7632,-1.7632,-1.7632,-1.7632,-1.7591,-1.7385,-1.7028,-1.652,-1.617,-1.5551,-1.4842,-1.4221,-1.3722,-1.3293,-1.2882,-1.2489,-1.2141,-1.2084,-1.2084,-1.2084,-1.2084,-1.1819,-1.1211,-1.0271,-0.9789,-0.9735,-0.9333,-0.9092,-0.9079,-0.8999,-0.8905,-0.8726,-0.8185,-0.7788,-0.7655,-0.7135,-0.6639,-0.6233,-0.5929,-0.5623,-0.5252,-0.4959,-0.4793,-0.4793,-0.4793,-0.4574,-0.4119,-0.3968,-0.3685,-0.3298,-0.3208,-0.3208,-0.3208,-0.3208,-0.3208,-0.3208,-0.3208,-0.3208,-0.3187,-0.3095,-0.2648,-0.1935,-0.1803,-0.1714,-0.1585,-0.153,-0.1532,-0.1519,-0.1466,-0.142,-0.1402,-0.1399,-0.1399,-0.1399,-0.1399,-0.1277,-0.0962,-0.0403,0.0,0.0,0.0101,0.0169,0.0225,0.0112,0.0,0.0,0.0257,0.0394,0.0394,0.0394,0.0412,0.0424,0.0425,0.0467,0.0579,0.0658,0.0751,0.1263,0.1824,0.2012,0.2153,0.2249,0.2359,0.2487,0.2621,0.2821,0.3025,0.3202,0.3255,0.3266,0.3598,0.4099,-1.7479,-1.7406,-1.7455,-1.7496,-1.7496,-1.7496,-1.7496,-1.7488,-1.7282,-1.6997,-1.6649,-1.6325,-1.5868,-1.5338,-1.4663,-1.4066,-1.3571,-1.3116,-1.262,-1.2153,-1.2084,-1.2084,-1.2084,-1.2084,-1.1946,-1.1469,-1.0585,-1.0087,-1.0068,-0.9451,-0.904,-0.8919,-0.8916,-0.8767,-0.8589,-0.8223,-0.7966,-0.7792,-0.7408,-0.7004,-0.6634,-0.6361,-0.602,-0.5614,-0.5095,-0.4965,-0.5174,-0.4943,-0.4574,-0.4191,-0.3896,-0.3528,-0.3223,-0.3208,-0.3208,-0.3208,-0.3208,-0.3208,-0.3208,-0.3208,-0.3208,-0.3208,-0.3208,-0.2988,-0.2383,-0.2077,-0.1707,-0.1585,-0.1455,-0.1399,-0.1426,-0.1585,-0.1643,-0.1657,-0.1509,-0.1426,-0.1399,-0.1399,-0.1399,-0.123,-0.0884,-0.0592,-0.0515,-0.0112,0.0034,0.0202,0.0202,0.0159,0.0215,0.0349,0.0397,0.0424,0.044,0.0445,0.0447,0.044,0.0434,0.0525,0.0616,0.073,0.1028,0.1708,0.2104,0.2214,0.2307,0.2431,0.2553,0.255,0.2686,0.2902,0.3153,0.3208,0.324,0.3283,0.3661,-1.7748,-1.7246,-1.7406,-1.7455,-1.7455,-1.7475,-1.7455,-1.7434,-1.724,-1.6985,-1.6714,-1.6506,-1.6361,-1.5972,-1.515,-1.4538,-1.4061,-1.3333,-1.2747,-1.2321,-1.213,-1.2084,-1.2084,-1.2084,-1.2049,-1.1877,-1.1067,-1.0665,-1.0585,-0.9692,-0.8989,-0.8783,-0.8686,-0.834,-0.7999,-0.7744,-0.7608,-0.7403,-0.7246,-0.7004,-0.668,-0.6593,-0.6415,-0.602,-0.5382,-0.5273,-0.5672,-0.5223,-0.4666,-0.4268,-0.3685,-0.3323,-0.3213,-0.3208,-0.3208,-0.3208,-0.3208,-0.3208,-0.3208,-0.3208,-0.3208,-0.3208,-0.3208,-0.3208,-0.2999,-0.2437,-0.1946,-0.178,-0.166,-0.1543,-0.1604,-0.1795,-0.2018,-0.2023,-0.1657,-0.1439,-0.1458,-0.1456,-0.1399,-0.1399,-0.1388,-0.1377,-0.1221,-0.0538,0.0,0.0059,0.0201,0.0292,0.0423,0.0444,0.0479,0.0474,0.0472,0.0467,0.0468,0.0469,0.046,0.048,0.0582,0.0676,0.0994,0.1692,0.2355,0.2436,0.2461,0.2565,0.2633,0.2696,0.2731,0.2914,0.3078,0.3166,0.3225,0.3268,0.3359,-1.7748,-1.7212,-1.7261,-1.7282,-1.7269,-1.7282,-1.7282,-1.724,-1.6976,-1.6829,-1.6616,-1.6129,-1.5901,-1.5712,-1.5271,-1.4791,-1.4236,-1.3688,-1.3153,-1.2682,-1.2263,-1.2107,-1.2084,-1.2084,-1.2084,-1.198,-1.1406,-1.113,-1.1039,-1.008,-0.945,-0.9175,-0.8753,-0.8418,-0.8095,-0.7787,-0.7671,-0.754,-0.7299,-0.7174,-0.7013,-0.6725,-0.6552,-0.6434,-0.6082,-0.5916,-0.594,-0.5633,-0.5046,-0.4346,-0.3896,-0.3493,-0.3262,-0.3219,-0.3208,-0.3208,-0.3208,-0.3208,-0.3208,-0.3208,-0.3208,-0.3208,-0.3252,-0.3208,-0.3208,-0.2999,-0.2496,-0.2111,-0.2074,-0.22,-0.2001,-0.2018,-0.2095,-0.2044,-0.171,-0.1556,-0.1752,-0.1622,-0.1399,-0.1399,-0.142,-0.1436,-0.1258,0.0,0.0,0.0,0.0,0.024,0.0409,0.0487,0.0487,0.0487,0.0478,0.0482,0.0482,0.0482,0.0482,0.0477,0.0532,0.0596,0.1128,0.1885,0.2532,0.2969,0.2867,0.2909,0.2964,0.3018,0.3041,0.3039,0.3585,0.3906,0.3411,0.3254,0.3333,-1.7957,-1.7212,-1.7212,-1.7212,-1.7212,-1.7212,-1.7212,-1.7178,-1.6997,-1.6816,-1.6616,-1.6098,-1.5746,-1.5591,-1.5255,-1.4844,-1.4396,-1.4075,-1.3555,-1.2854,-1.2337,-1.2107,-1.2084,-1.2084,-1.2084,-1.2038,-1.1572,-1.1325,-1.1119,-1.0282,-0.9638,-0.9139,-0.8696,-0.823,-0.7749,-0.7598,-0.7496,-0.7447,-0.7285,-0.7196,-0.7178,-0.6986,-0.6857,-0.6806,-0.6701,-0.6565,-0.6299,-0.6074,-0.5586,-0.4941,-0.4396,-0.3896,-0.3503,-0.3266,-0.3208,-0.3208,-0.3208,-0.3208,-0.3208,-0.3208,-0.3208,-0.327,-0.3404,-0.3525,-0.3418,-0.3299,-0.2908,-0.2895,-0.278,-0.2501,-0.2214,-0.2097,-0.2097,-0.2071,-0.1836,-0.1794,-0.2081,-0.1881,-0.172,-0.1694,-0.1694,-0.1691,-0.1691,-0.116,-0.0625,0.0,0.0,0.0,0.041,0.0449,0.0487,0.0487,0.0487,0.0487,0.0487,0.0487,0.0487,0.0487,0.0497,0.0557,0.1071,0.1845,0.233,0.2789,0.3011,0.3204,0.3178,0.3193,0.3249,0.351,0.4204,0.4298,0.3747,0.3542,0.3579,-1.8244,-1.7212,-1.7212,-1.7212,-1.7212,-1.7212,-1.7212,-1.7212,-1.7052,-1.685,-1.6573,-1.6219,-1.5746,-1.5524,-1.521,-1.4878,-1.4499,-1.4395,-1.3728,-1.3004,-1.2383,-1.2084,-1.2084,-1.2084,-1.2084,-1.2038,-1.1595,-1.1463,-1.1257,-1.0466,-0.9685,-0.9199,-0.8647,-0.7954,-0.7539,-0.7275,-0.7211,-0.724,-0.7225,-0.7196,-0.7196,-0.715,-0.7093,-0.7073,-0.7064,-0.6952,-0.6728,-0.6496,-0.6164,-0.5839,-0.504,-0.4482,-0.4038,-0.3636,-0.3438,-0.3488,-0.353,-0.3463,-0.3246,-0.3276,-0.3269,-0.3324,-0.3784,-0.4084,-0.379,-0.3516,-0.3401,-0.3626,-0.3153,-0.257,-0.2197,-0.2097,-0.2097,-0.2089,-0.2071,-0.2087,-0.2097,-0.2097,-0.2097,-0.2097,-0.2087,-0.2095,-0.2097,-0.1964,-0.1607,-0.0834,0.0,0.0,0.0364,0.0468,0.0487,0.0487,0.0487,0.0487,0.0487,0.0487,0.0487,0.0487,0.0487,0.0572,0.0898,0.1499,0.191,0.2311,0.2709,0.301,0.3204,0.3261,0.3337,0.3584,0.4022,0.4067,0.3957,0.4043,0.4094,-1.8209,-1.7212,-1.7212,-1.7212,-1.7212,-1.7212,-1.7212,-1.717,-1.6663,-1.647,-1.6188,-1.5669,-1.5356,-1.521,-1.5153,-1.5028,-1.4867,-1.4534,-1.3866,-1.2923,-1.2355,-1.2136,-1.2095,-1.2084,-1.2084,-1.2049,-1.1992,-1.1905,-1.1698,-1.1177,-1.0568,-0.9841,-0.9019,-0.8359,-0.7671,-0.7333,-0.7196,-0.7196,-0.7196,-0.7196,-0.7196,-0.7196,-0.7181,-0.7175,-0.7116,-0.6975,-0.6848,-0.6734,-0.6648,-0.6393,-0.5822,-0.5285,-0.5122,-0.4678,-0.4367,-0.4336,-0.4363,-0.4063,-0.347,-0.3597,-0.3658,-0.3415,-0.3772,-0.4126,-0.4317,-0.3869,-0.3672,-0.3645,-0.3107,-0.2633,-0.2181,-0.2097,-0.2097,-0.2097,-0.2097,-0.2097,-0.2097,-0.2097,-0.2097,-0.2097,-0.2097,-0.2097,-0.2097,-0.1845,-0.1609,-0.1425,-0.0838,0.0,0.0319,0.0471,0.0487,0.0487,0.0487,0.0487,0.0487,0.0505,0.0555,0.0606,0.0623,0.0639,0.096,0.1111,0.1529,0.2011,0.2494,0.2792,0.3179,0.3224,0.3286,0.3548,0.377,0.3814,0.3935,0.4216,0.4524,-1.7996,-1.7225,-1.7212,-1.7212,-1.7212,-1.7212,-1.7212,-1.7136,-1.6842,-1.6479,-1.6166,-1.5748,-1.5446,-1.5108,-1.5119,-1.5119,-1.5005,-1.4603,-1.4004,-1.3237,-1.2716,-1.2348,-1.2107,-1.2084,-1.2084,-1.2084,-1.2084,-1.2084,-1.1957,-1.156,-1.0979,-1.0421,-0.9446,-0.8654,-0.8029,-0.7521,-0.722,-0.7196,-0.7196,-0.7196,-0.7196,-0.7196,-0.7196,-0.7175,-0.7056,-0.69,-0.6811,-0.6811,-0.6712,-0.6544,-0.6295,-0.6159,-0.5968,-0.531,-0.4852,-0.4796,-0.4784,-0.4596,-0.4172,-0.4166,-0.4245,-0.3954,-0.4051,-0.4214,-0.4395,-0.4213,-0.4066,-0.3934,-0.3618,-0.3155,-0.2247,-0.2097,-0.2097,-0.2097,-0.2097,-0.2097,-0.2097,-0.2097,-0.2097,-0.2097,-0.2097,-0.2097,-0.1997,-0.1792,-0.164,-0.1507,-0.1457,-0.0654,0.0353,0.0487,0.0487,0.0487,0.0487,0.0487,0.0487,0.0538,0.0639,0.074,0.0875,0.0892,0.1061,0.1094,0.1145,0.1644,0.2161,0.2878,0.3212,0.3229,0.3294,0.3557,0.3726,0.3709,0.38,0.4093,0.4428,-1.7826,-1.7212,-1.7212,-1.7212,-1.7199,-1.7157,-1.7115,-1.7115,-1.6976,-1.6466,-1.6166,-1.6057,-1.5536,-1.5198,-1.5119,-1.5119,-1.4982,-1.4603,-1.404,-1.3501,-1.3038,-1.2555,-1.2199,-1.2084,-1.2084,-1.2084,-1.2084,-1.2084,-1.1969,-1.1646,-1.1331,-1.0803,-0.9863,-0.9099,-0.8529,-0.7841,-0.7368,-0.7244,-0.7196,-0.719,-0.7175,-0.7175,-0.7175,-0.7145,-0.7011,-0.687,-0.6826,-0.6781,-0.6675,-0.6345,-0.6522,-0.6629,-0.6391,-0.5858,-0.5109,-0.5125,-0.5014,-0.4723,-0.4651,-0.4705,-0.473,-0.4736,-0.4513,-0.4355,-0.4433,-0.4488,-0.4411,-0.4305,-0.407,-0.356,-0.2344,-0.2097,-0.2097,-0.2097,-0.2097,-0.2097,-0.2097,-0.2097,-0.2097,-0.2097,-0.2097,-0.2097,-0.2031,-0.1895,-0.1742,-0.1607,-0.1557,-0.1204,-0.0184,0.0487,0.0487,0.0487,0.0487,0.0487,0.0487,0.0522,0.0623,0.083,0.1016,0.1108,0.1133,0.1108,0.1144,0.133,0.1861,0.2527,0.3076,0.3212,0.3344,0.359,0.3693,0.3693,0.3819,0.3993,0.4307,-1.8153,-1.7212,-1.7212,-1.7212,-1.7157,-1.6913,-1.6808,-1.6667,-1.6216,-1.5822,-1.5714,-1.5424,-1.5289,-1.5119,-1.5119,-1.5119,-1.4982,-1.466,-1.4165,-1.3613,-1.3153,-1.267,-1.2176,-1.2084,-1.2084,-1.2084,-1.2084,-1.2084,-1.2048,-1.1992,-1.1639,-1.1211,-1.0681,-0.9959,-0.9045,-0.8413,-0.784,-0.7424,-0.7296,-0.7239,-0.7218,-0.7134,-0.711,-0.711,-0.6966,-0.6878,-0.6818,-0.6796,-0.6659,-0.6322,-0.6091,-0.5998,-0.5998,-0.6114,-0.6176,-0.5951,-0.5261,-0.4796,-0.4796,-0.4796,-0.4646,-0.45,-0.4528,-0.4516,-0.4468,-0.4533,-0.4517,-0.4382,-0.4199,-0.3707,-0.2281,-0.2164,-0.2097,-0.2097,-0.2097,-0.2097,-0.2097,-0.2097,-0.2097,-0.2097,-0.2097,-0.2097,-0.2047,-0.1978,-0.1878,-0.1742,-0.1623,-0.1188,-0.0318,0.0252,0.0487,0.0487,0.0487,0.0487,0.0487,0.0522,0.0607,0.0854,0.1053,0.1215,0.1213,0.1155,0.1216,0.1365,0.1566,0.2026,0.251,0.3064,0.3262,0.3393,0.3541,0.3712,0.377,0.3884,0.4107,-1.8427,-1.7669,-1.7669,-1.7486,-1.7204,-1.7018,-1.685,-1.6659,-1.6324,-1.5944,-1.5657,-1.5412,-1.5244,-1.5153,-1.5119,-1.5119,-1.5028,-1.4901,-1.4337,-1.3705,-1.3337,-1.282,-1.2199,-1.2107,-1.2084,-1.2084,-1.2084,-1.1975,-1.1829,-1.1993,-1.182,-1.1384,-1.0886,-1.0255,-0.9578,-0.8832,-0.8359,-0.7856,-0.7634,-0.7469,-0.7395,-0.7199,-0.7044,-0.6999,-0.6945,-0.6878,-0.6826,-0.6811,-0.6644,-0.6315,-0.5982,-0.5639,-0.5521,-0.5568,-0.578,-0.5671,-0.5173,-0.4796,-0.4796,-0.4796,-0.471,-0.4614,-0.4662,-0.4614,-0.4479,-0.4463,-0.4463,-0.4366,-0.4296,-0.4032,-0.3348,-0.2606,-0.2164,-0.2097,-0.2097,-0.2097,-0.2097,-0.2097,-0.2097,-0.2097,-0.2097,-0.2097,-0.2097,-0.2047,-0.1997,-0.1878,-0.1726,-0.1171,-0.0502,-0.0117,0.0201,0.0487,0.0487,0.0487,0.0487,0.0505,0.056,0.0801,0.1106,0.1271,0.1328,0.1263,0.1264,0.1337,0.1555,0.1706,0.261,0.3378,0.3295,0.3307,0.3704,0.3969,0.3786,0.3787,0.4059,-1.8767,-1.8244,-1.8153,-1.7813,-1.7395,-1.7175,-1.6892,-1.6637,-1.6488,-1.6042,-1.5568,-1.5479,-1.5322,-1.5153,-1.5119,-1.5119,-1.5119,-1.5096,-1.4568,-1.396,-1.3774,-1.3245,-1.2516,-1.2233,-1.2222,-1.2084,-1.2084,-1.192,-1.1781,-1.1829,-1.1756,-1.1414,-1.0765,-1.0295,-0.9917,-0.9223,-0.8767,-0.8389,-0.8179,-0.7921,-0.7722,-0.734,-0.705,-0.6963,-0.6913,-0.6848,-0.6811,-0.6811,-0.6621,-0.6376,-0.6075,-0.5671,-0.4966,-0.4796,-0.4796,-0.4796,-0.4796,-0.4796,-0.4796,-0.4796,-0.478,-0.4732,-0.4672,-0.4597,-0.4469,-0.4382,-0.4312,-0.4296,-0.4296,-0.428,-0.3951,-0.3233,-0.2527,-0.2097,-0.2097,-0.2097,-0.2097,-0.2097,-0.2097,-0.2097,-0.2097,-0.2097,-0.2097,-0.2097,-0.2047,-0.2031,-0.1878,-0.1692,-0.1071,-0.0636,-0.0235,0.0286,0.0487,0.0487,0.0487,0.0487,0.0557,0.0697,0.1068,0.1356,0.1383,0.1379,0.1381,0.1356,0.1338,0.1622,0.2672,0.3603,0.3792,0.3967,0.4197,0.4308,0.4267,0.4121,0.4185,-1.9355,-1.878,-1.831,-1.8048,-1.7861,-1.7145,-1.6586,-1.6253,-1.5957,-1.5536,-1.5198,-1.5176,-1.5153,-1.5108,-1.5119,-1.5119,-1.5119,-1.5073,-1.4786,-1.4247,-1.4178,-1.3693,-1.2919,-1.2808,-1.2447,-1.2176,-1.2084,-1.2084,-1.192,-1.1748,-1.1571,-1.1361,-1.0943,-1.0518,-0.9901,-0.9529,-0.9189,-0.8624,-0.8444,-0.832,-0.8058,-0.7557,-0.7352,-0.7157,-0.7009,-0.6852,-0.682,-0.6796,-0.6659,-0.6422,-0.6568,-0.6013,-0.5062,-0.4796,-0.4796,-0.4796,-0.4796,-0.4796,-0.4796,-0.4796,-0.4796,-0.4796,-0.4764,-0.4614,-0.4431,-0.4334,-0.4296,-0.4296,-0.4296,-0.4296,-0.4296,-0.4102,-0.3348,-0.2593,-0.2097,-0.2097,-0.2097,-0.2097,-0.2097,-0.2097,-0.2097,-0.2097,-0.2097,-0.2097,-0.2097,-0.2081,-0.2031,-0.1826,-0.1457,-0.087,-0.0369,0.0235,0.0487,0.0487,0.051,0.0507,0.0566,0.0641,0.0923,0.1323,0.1411,0.1411,0.1411,0.138,0.133,0.163,0.2632,0.3462,0.4144,0.4466,0.4521,0.4682,0.4864,0.4678,0.4413,-1.9943,-1.9368,-1.877,-1.8375,-1.8013,-1.7299,-1.6671,-1.6231,-1.6013,-1.5625,-1.5187,-1.5119,-1.5119,-1.5119,-1.5119,-1.5119,-1.5119,-1.5119,-1.4844,-1.4488,-1.4339,-1.3889,-1.3096,-1.2866,-1.2632,-1.2245,-1.2095,-1.2084,-1.1968,-1.1712,-1.1423,-1.1124,-1.0753,-1.0368,-0.9857,-0.9677,-0.9411,-0.9067,-0.8785,-0.8451,-0.8132,-0.7921,-0.7671,-0.7321,-0.7166,-0.7019,-0.6873,-0.6796,-0.6751,-0.6614,-0.6766,-0.6384,-0.5521,-0.5046,-0.4796,-0.4796,-0.4796,-0.4796,-0.4796,-0.478,-0.478,-0.4796,-0.478,-0.4662,-0.4398,-0.4296,-0.4296,-0.4296,-0.4296,-0.4296,-0.4296,-0.4296,-0.3441,-0.2673,-0.2131,-0.2097,-0.2097,-0.2097,-0.2097,-0.2097,-0.2097,-0.2097,-0.2097,-0.2097,-0.2097,-0.2064,-0.1961,-0.1759,-0.1221,-0.0519,-0.005,0.037,0.0487,0.0487,0.0539,0.056,0.0629,0.0674,0.0674,0.1055,0.1345,0.1411,0.1411,0.1411,0.1383,0.1866,0.2699,0.3475,0.4302,0.4578,0.4753,0.4871,0.4985,0.4952,0.4801,-2.0425,-1.9956,-1.9368,-1.8885,-1.8479,-1.7878,-1.7246,-1.6663,-1.6643,-1.6177,-1.558,-1.5383,-1.5257,-1.5119,-1.5119,-1.5119,-1.5119,-1.5119,-1.4901,-1.466,-1.4465,-1.4119,-1.3624,-1.3302,-1.2981,-1.2291,-1.2371,-1.2256,-1.1973,-1.159,-1.1161,-1.0859,-1.0351,-1.005,-0.9873,-0.9619,-0.9376,-0.934,-0.9014,-0.8707,-0.8446,-0.8447,-0.8126,-0.7774,-0.744,-0.7253,-0.7114,-0.7011,-0.6987,-0.7106,-0.6858,-0.6522,-0.6029,-0.5284,-0.4844,-0.4796,-0.4796,-0.4726,-0.471,-0.471,-0.4742,-0.4732,-0.47,-0.4565,-0.4366,-0.4296,-0.4296,-0.4296,-0.4296,-0.4296,-0.4296,-0.4296,-0.3495,-0.2722,-0.2097,-0.2097,-0.2097,-0.2097,-0.2097,-0.2097,-0.2097,-0.2097,-0.2097,-0.2097,-0.2081,-0.2064,-0.1895,-0.172,-0.1182,-0.0541,-0.0018,0.0318,0.0565,0.0566,0.0583,0.0639,0.0685,0.0697,0.0697,0.0876,0.1211,0.139,0.1411,0.1411,0.1411,0.2322,0.3252,0.3851,0.4429,0.467,0.4893,0.4941,0.5007,0.5007,0.5029,-2.0686,-2.0594,-1.9982,-1.9695,-1.9564,-1.9054,-1.8318,-1.7552,-1.7614,-1.7111,-1.6282,-1.5993,-1.5464,-1.52,-1.5119,-1.5119,-1.5119,-1.5119,-1.505,-1.5028,-1.5005,-1.4637,-1.4224,-1.3969,-1.3693,-1.29,-1.2686,-1.2426,-1.1986,-1.1263,-1.1,-1.0783,-1.0088,-0.9713,-0.9534,-0.9437,-0.9317,-0.9308,-0.9136,-0.9096,-0.8965,-0.8904,-0.8701,-0.8298,-0.7843,-0.7569,-0.7774,-0.7577,-0.7492,-0.7663,-0.7242,-0.6952,-0.6585,-0.5451,-0.4901,-0.505,-0.5069,-0.4918,-0.4672,-0.4662,-0.4678,-0.4571,-0.4491,-0.4481,-0.4312,-0.4296,-0.4296,-0.4345,-0.4454,-0.4498,-0.4427,-0.4193,-0.378,-0.2659,-0.2097,-0.2097,-0.2097,-0.2097,-0.2097,-0.2097,-0.217,-0.2267,-0.2184,-0.22,-0.2105,-0.2081,-0.2257,-0.2094,-0.1664,-0.1045,-0.0332,0.015,0.0541,0.0674,0.0676,0.0697,0.0697,0.0697,0.0697,0.092,0.1211,0.13,0.1412,0.1411,0.1523,0.2655,0.3631,0.3961,0.4338,0.4784,0.5007,0.5007,0.5007,0.5007,0.5007,-2.0699,-2.0673,-2.0438,-2.0137,-1.976,-1.9159,-1.8471,-1.7882,-1.7786,-1.7171,-1.6187,-1.5647,-1.5303,-1.5154,-1.5119,-1.5119,-1.5119,-1.5119,-1.5119,-1.5119,-1.5062,-1.4821,-1.4545,-1.427,-1.3877,-1.311,-1.2792,-1.2442,-1.1856,-1.112,-1.0706,-1.037,-0.9939,-0.9605,-0.9397,-0.9288,-0.9208,-0.9168,-0.9188,-0.9208,-0.9076,-0.9019,-0.8856,-0.8499,-0.8255,-0.7937,-0.792,-0.7971,-0.7945,-0.7842,-0.7612,-0.7517,-0.7173,-0.5786,-0.5305,-0.5608,-0.5681,-0.5335,-0.4787,-0.4747,-0.4668,-0.447,-0.4477,-0.4532,-0.4405,-0.4318,-0.4302,-0.4443,-0.4828,-0.5018,-0.5153,-0.5084,-0.4543,-0.2888,-0.2138,-0.2162,-0.2181,-0.2216,-0.2216,-0.2261,-0.246,-0.2645,-0.2476,-0.2301,-0.2202,-0.2116,-0.2339,-0.2404,-0.1966,-0.1345,-0.0567,0.0112,0.0562,0.0697,0.0697,0.0697,0.0697,0.0719,0.0742,0.092,0.1145,0.1323,0.1411,0.1411,0.1411,0.2034,0.2788,0.3653,0.425,0.4696,0.4919,0.5007,0.5007,0.5007,0.5007,-2.0699,-2.0699,-2.0699,-2.0465,-2.0046,-1.9616,-1.8969,-1.8363,-1.8326,-1.7555,-1.6326,-1.5808,-1.5464,-1.5372,-1.5154,-1.5119,-1.5119,-1.5119,-1.5119,-1.5119,-1.5073,-1.489,-1.4706,-1.4511,-1.4258,-1.3426,-1.3091,-1.2791,-1.2315,-1.1168,-1.0784,-1.0528,-1.0051,-0.963,-0.9297,-0.9177,-0.9096,-0.9056,-0.9096,-0.9168,-0.8996,-0.8987,-0.8956,-0.8684,-0.8545,-0.8459,-0.8382,-0.8433,-0.8425,-0.8338,-0.8235,-0.8227,-0.7559,-0.6709,-0.5926,-0.6131,-0.6304,-0.5983,-0.5468,-0.4962,-0.4716,-0.4411,-0.4657,-0.4728,-0.4692,-0.4595,-0.4623,-0.4849,-0.537,-0.5701,-0.5701,-0.5519,-0.464,-0.303,-0.254,-0.2473,-0.246,-0.2495,-0.2449,-0.2449,-0.2658,-0.2805,-0.2636,-0.2437,-0.2233,-0.2228,-0.2499,-0.2498,-0.2158,-0.1459,-0.0551,0.009,0.0652,0.0697,0.0697,0.0697,0.0742,0.0965,0.0965,0.0898,0.1055,0.1256,0.1411,0.1411,0.1411,0.1411,0.1856,0.2632,0.3605,0.4583,0.4762,0.4919,0.5007,0.5007,0.5007,-2.0699,-2.0699,-2.0699,-2.0674,-2.057,-2.0646,-2.008,-1.9173,-1.9045,-1.8378,-1.7191,-1.6681,-1.6174,-1.5808,-1.5383,-1.5211,-1.5119,-1.5119,-1.5119,-1.5119,-1.504,-1.5039,-1.4971,-1.4845,-1.4483,-1.4365,-1.3832,-1.3307,-1.2973,-1.1706,-1.1175,-1.0787,-1.0231,-0.9659,-0.924,-0.9076,-0.8996,-0.8996,-0.9024,-0.9016,-0.8996,-0.8996,-0.8944,-0.891,-0.8887,-0.881,-0.881,-0.8791,-0.8791,-0.8765,-0.8773,-0.8773,-0.8565,-0.7017,-0.6243,-0.6261,-0.6325,-0.6298,-0.6232,-0.5479,-0.4934,-0.4601,-0.4911,-0.5088,-0.5377,-0.5301,-0.5099,-0.5307,-0.5626,-0.5701,-0.5701,-0.5583,-0.447,-0.3459,-0.2923,-0.2734,-0.2712,-0.2706,-0.265,-0.2626,-0.2767,-0.2862,-0.2729,-0.2551,-0.2317,-0.2352,-0.2667,-0.2578,-0.2245,-0.1257,-0.0247,0.0135,0.0697,0.0697,0.0697,0.0697,0.0787,0.1055,0.1188,0.11,0.1121,0.1323,0.1411,0.1411,0.1411,0.1411,0.1411,0.1523,0.2544,0.3517,0.4495,0.481,0.4919,0.5007,0.5007,-2.0699,-2.0699,-2.0699,-2.0511,-2.0296,-2.0561,-2.0067,-1.8992,-1.8351,-1.7818,-1.7378,-1.6841,-1.6348,-1.5946,-1.5693,-1.5418,-1.5142,-1.5119,-1.5119,-1.5062,-1.4949,-1.4834,-1.4811,-1.4687,-1.4406,-1.3939,-1.3619,-1.3358,-1.272,-1.1909,-1.1443,-1.102,-1.0297,-0.9708,-0.9454,-0.9225,-0.8996,-0.8996,-0.8996,-0.8996,-0.8996,-0.8996,-0.8996,-0.8996,-0.8996,-0.8996,-0.8996,-0.8996,-0.8996,-0.8996,-0.8996,-0.8996,-0.8663,-0.721,-0.6083,-0.5981,-0.5938,-0.5917,-0.5906,-0.5558,-0.5435,-0.5273,-0.5202,-0.5372,-0.5604,-0.5577,-0.5593,-0.5636,-0.5696,-0.5701,-0.5701,-0.5701,-0.482,-0.3409,-0.2841,-0.2843,-0.2835,-0.2841,-0.283,-0.2816,-0.2884,-0.2909,-0.2801,-0.269,-0.2489,-0.2245,-0.2447,-0.2467,-0.2201,-0.0785,0.0382,0.045,0.0697,0.0697,0.0697,0.0697,0.0808,0.1054,0.1233,0.1323,0.1367,0.1411,0.1411,0.1411,0.1411,0.1411,0.1411,0.1433,0.1611,0.2344,0.3495,0.4565,0.4941,0.5007,0.5007,-2.0699,-2.0699,-2.0699,-2.0359,-1.9901,-2.0271,-1.9811,-1.878,-1.7996,-1.7634,-1.753,-1.7091,-1.6598,-1.6209,-1.5851,-1.5567,-1.512,-1.4983,-1.496,-1.4949,-1.4789,-1.4674,-1.4569,-1.4466,-1.4334,-1.3857,-1.3623,-1.3371,-1.3169,-1.2409,-1.1787,-1.1114,-1.0286,-1.0038,-0.9791,-0.9495,-0.8996,-0.8996,-0.8996,-0.8996,-0.8996,-0.8996,-0.8996,-0.8996,-0.8996,-0.8996,-0.8996,-0.8996,-0.8996,-0.8996,-0.8996,-0.8996,-0.8411,-0.7467,-0.6157,-0.5868,-0.5701,-0.5701,-0.5712,-0.5707,-0.5615,-0.5615,-0.5528,-0.5545,-0.5663,-0.5653,-0.5669,-0.5696,-0.5701,-0.5701,-0.5701,-0.5701,-0.4932,-0.3527,-0.2909,-0.2909,-0.2909,-0.2909,-0.2909,-0.2909,-0.2865,-0.2865,-0.2865,-0.2801,-0.2667,-0.2422,-0.2223,-0.2201,-0.2201,-0.1054,0.0314,0.0674,0.0697,0.0697,0.0697,0.0697,0.0853,0.1053,0.121,0.1323,0.1411,0.1411,0.1411,0.1411,0.1411,0.1411,0.1411,0.1478,0.1567,0.1988,0.2807,0.3825,0.4762,0.5007,0.5007,-2.0687,-2.0699,-2.0687,-2.0182,-1.9551,-1.9695,-1.9422,-1.8759,-1.8251,-1.805,-1.8043,-1.755,-1.702,-1.6466,-1.5875,-1.5389,-1.5028,-1.4777,-1.4731,-1.4685,-1.4593,-1.45,-1.4407,-1.4303,-1.4145,-1.4154,-1.3995,-1.3645,-1.3752,-1.2726,-1.1902,-1.1356,-1.0565,-1.038,-1.014,-0.9739,-0.9269,-0.9252,-0.9055,-0.9124,-0.9218,-0.9035,-0.9072,-0.9072,-0.9055,-0.9013,-0.8996,-0.8996,-0.8996,-0.8996,-0.8975,-0.8996,-0.8635,-0.7915,-0.686,-0.6034,-0.5723,-0.5701,-0.5701,-0.5701,-0.5701,-0.5701,-0.5685,-0.5696,-0.5696,-0.5701,-0.5701,-0.5701,-0.5701,-0.5701,-0.5701,-0.5328,-0.4932,-0.3899,-0.2998,-0.2909,-0.2909,-0.2909,-0.2909,-0.2865,-0.2801,-0.2779,-0.2754,-0.2709,-0.269,-0.2422,-0.2201,-0.2201,-0.2201,-0.2178,-0.0785,0.0697,0.0697,0.0697,0.0697,0.0697,0.0764,0.0942,0.1099,0.1211,0.13,0.1411,0.1411,0.1411,0.1411,0.1411,0.1411,0.1411,0.1433,0.1967,0.2699,0.3741,0.4876,0.4985,0.5007,-2.0562,-2.0562,-2.0562,-1.9914,-1.8924,-1.8521,-1.8518,-1.8691,-1.8123,-1.792,-1.8073,-1.7745,-1.7142,-1.6384,-1.6128,-1.5471,-1.4905,-1.4546,-1.45,-1.4454,-1.4337,-1.4197,-1.408,-1.3952,-1.3871,-1.381,-1.3739,-1.3563,-1.3164,-1.2445,-1.2069,-1.1634,-1.0902,-1.0718,-1.0465,-1.0098,-0.991,-0.967,-0.9371,-0.9406,-0.9465,-0.9308,-0.932,-0.9329,-0.9115,-0.9055,-0.9026,-0.8992,-0.8964,-0.8955,-0.8846,-0.8825,-0.8935,-0.8349,-0.7502,-0.5933,-0.5701,-0.5701,-0.5701,-0.5701,-0.5701,-0.5701,-0.5701,-0.5701,-0.5701,-0.5701,-0.5701,-0.5701,-0.5701,-0.5701,-0.5701,-0.5415,-0.467,-0.3638,-0.2976,-0.2909,-0.2909,-0.2909,-0.2887,-0.2868,-0.2779,-0.26,-0.2578,-0.269,-0.2625,-0.2357,-0.2201,-0.2223,-0.2201,-0.2201,-0.1369,0.0202,0.0697,0.0697,0.0697,0.0697,0.0742,0.0809,0.0943,0.1121,0.1323,0.1411,0.1411,0.1419,0.1431,0.1424,0.1411,0.1485,0.1706,0.2111,0.2818,0.3902,0.478,0.5032,0.5174,-2.0246,-2.0067,-2.008,-1.941,-1.839,-1.7772,-1.7838,-1.8193,-1.7865,-1.7849,-1.8057,-1.7826,-1.7178,-1.6373,-1.6118,-1.5512,-1.4463,-1.428,-1.4244,-1.4197,-1.408,-1.3962,-1.3797,-1.3692,-1.3658,-1.3573,-1.342,-1.3242,-1.2822,-1.2329,-1.1884,-1.1832,-1.1198,-1.1008,-1.0857,-1.072,-1.061,-1.0368,-1.0112,-0.9904,-0.9785,-0.9742,-0.9799,-0.9636,-0.9329,-0.912,-0.908,-0.8997,-0.8786,-0.8761,-0.8602,-0.8622,-0.848,-0.7884,-0.7126,-0.5744,-0.5701,-0.5701,-0.5701,-0.5701,-0.5701,-0.5712,-0.5723,-0.5701,-0.5701,-0.5701,-0.5701,-0.5701,-0.5701,-0.5701,-0.5701,-0.5528,-0.432,-0.3154,-0.3021,-0.2909,-0.2909,-0.2909,-0.2868,-0.2845,-0.269,-0.2467,-0.2444,-0.2581,-0.2603,-0.2402,-0.2333,-0.24,-0.2312,-0.2201,-0.1167,0.0337,0.0629,0.0697,0.0697,0.0697,0.0719,0.0742,0.0764,0.0965,0.1256,0.1414,0.1394,0.1436,0.1461,0.1481,0.1552,0.1916,0.2206,0.269,0.3359,0.4465,0.5291,0.5572,0.5631,-1.9837,-1.9371,-1.9267,-1.8685,-1.7859,-1.7385,-1.7368,-1.7629,-1.7601,-1.7794,-1.7947,-1.7739,-1.7089,-1.6321,-1.606,-1.5386,-1.4596,-1.4204,-1.4047,-1.3973,-1.3939,-1.3821,-1.3692,-1.361,-1.361,-1.3467,-1.3242,-1.2977,-1.2711,-1.2181,-1.1753,-1.1828,-1.1468,-1.1224,-1.1181,-1.1155,-1.1053,-1.0951,-1.0694,-1.0465,-1.0328,-1.0345,-1.0371,-1.0058,-0.9623,-0.9206,-0.9142,-0.8861,-0.8432,-0.8468,-0.8484,-0.8524,-0.7836,-0.7117,-0.6264,-0.5859,-0.5836,-0.5793,-0.5755,-0.5701,-0.5701,-0.5728,-0.5771,-0.5966,-0.6085,-0.5788,-0.5712,-0.5961,-0.6031,-0.5777,-0.5701,-0.5658,-0.4845,-0.3942,-0.3532,-0.3218,-0.2923,-0.2918,-0.2887,-0.2868,-0.2823,-0.2578,-0.229,-0.2402,-0.2424,-0.2335,-0.2439,-0.252,-0.2395,-0.2238,-0.1067,0.0341,0.0587,0.07,0.0697,0.0697,0.0697,0.0697,0.0699,0.0787,0.1055,0.1237,0.1399,0.1495,0.1583,0.1668,0.1778,0.2156,0.2745,0.3581,0.4316,0.5231,0.5734,0.5863,0.5945,-1.937,-1.9148,-1.8151,-1.7617,-1.7473,-1.7078,-1.692,-1.7015,-1.7015,-1.7312,-1.7617,-1.724,-1.6747,-1.6212,-1.6084,-1.5449,-1.4538,-1.4241,-1.3983,-1.383,-1.3747,-1.3739,-1.361,-1.361,-1.361,-1.3467,-1.3194,-1.2711,-1.2197,-1.1744,-1.1452,-1.1452,-1.1301,-1.1301,-1.1301,-1.1301,-1.1293,-1.1276,-1.113,-1.0976,-1.0908,-1.0465,-1.0226,-1.0294,-1.0083,-0.9759,-0.952,-0.902,-0.8942,-0.9018,-0.892,-0.8547,-0.7875,-0.7134,-0.6442,-0.595,-0.6121,-0.6067,-0.5906,-0.582,-0.5793,-0.6009,-0.6191,-0.6593,-0.6582,-0.6031,-0.5896,-0.6225,-0.6285,-0.5977,-0.576,-0.5722,-0.54,-0.4669,-0.3979,-0.3463,-0.2956,-0.2942,-0.2928,-0.2909,-0.2909,-0.2667,-0.2357,-0.2267,-0.2203,-0.2326,-0.2538,-0.2589,-0.2407,-0.2146,-0.1101,0.0093,0.0548,0.0705,0.07,0.0705,0.0709,0.0707,0.0731,0.0817,0.0922,0.121,0.1518,0.1636,0.1756,0.1773,0.1948,0.2419,0.311,0.3931,0.4688,0.5364,0.5517,0.5594,0.586,-1.8948,-1.8551,-1.7363,-1.687,-1.6909,-1.6705,-1.6676,-1.6751,-1.6676,-1.6874,-1.7228,-1.6916,-1.6524,-1.6158,-1.6105,-1.5627,-1.4681,-1.4386,-1.419,-1.3962,-1.37,-1.3621,-1.361,-1.3631,-1.361,-1.3491,-1.2963,-1.2412,-1.1719,-1.1469,-1.1326,-1.1301,-1.1301,-1.1301,-1.1301,-1.1301,-1.1301,-1.1293,-1.1301,-1.1301,-1.1301,-1.0899,-1.0711,-1.0839,-1.0723,-1.0352,-0.9827,-0.9341,-0.9137,-0.9048,-0.8866,-0.873,-0.8146,-0.7467,-0.6874,-0.655,-0.6487,-0.6525,-0.6272,-0.6083,-0.6058,-0.6347,-0.6144,-0.6328,-0.696,-0.6523,-0.6517,-0.6787,-0.6766,-0.6506,-0.6506,-0.6457,-0.5356,-0.4455,-0.3912,-0.3421,-0.3167,-0.31,-0.3005,-0.2909,-0.289,-0.2845,-0.2674,-0.2928,-0.2822,-0.2477,-0.266,-0.2676,-0.2494,-0.2201,-0.1096,-0.0049,0.0508,0.0718,0.0699,0.0711,0.0727,0.0724,0.0755,0.0918,0.1078,0.1368,0.1627,0.1736,0.1786,0.179,0.207,0.2491,0.3001,0.3694,0.4502,0.5321,0.5356,0.5434,0.5791,-1.8494,-1.7765,-1.6807,-1.6402,-1.6402,-1.6402,-1.6545,-1.6676,-1.6516,-1.6545,-1.6733,-1.6751,-1.6486,-1.6274,-1.6125,-1.5609,-1.5211,-1.4863,-1.4593,-1.4293,-1.3941,-1.3869,-1.3765,-1.3662,-1.3512,-1.3238,-1.2779,-1.2092,-1.1368,-1.1301,-1.1301,-1.1301,-1.1301,-1.1301,-1.1301,-1.1301,-1.1301,-1.1301,-1.1301,-1.1301,-1.1301,-1.1301,-1.125,-1.1258,-1.1217,-1.0847,-1.0275,-0.973,-0.9308,-0.9151,-0.8976,-0.8915,-0.8726,-0.8165,-0.7477,-0.7115,-0.6762,-0.6842,-0.6831,-0.6536,-0.667,-0.6697,-0.615,-0.6247,-0.6944,-0.7069,-0.7052,-0.7042,-0.7047,-0.6988,-0.6983,-0.6684,-0.5464,-0.4276,-0.3807,-0.3466,-0.3365,-0.3187,-0.2993,-0.2881,-0.293,-0.291,-0.3112,-0.3371,-0.3214,-0.2866,-0.2691,-0.2691,-0.2573,-0.2193,-0.1474,-0.0264,0.0687,0.0779,0.0735,0.0728,0.0753,0.081,0.0841,0.1036,0.1227,0.1477,0.1662,0.1758,0.1797,0.1797,0.2076,0.2493,0.2998,0.363,0.4501,0.5301,0.5352,0.5489,0.5873,-1.7678,-1.6705,-1.6459,-1.6402,-1.6402,-1.6402,-1.6441,-1.6459,-1.6431,-1.6431,-1.6477,-1.6488,-1.6376,-1.6324,-1.6324,-1.6008,-1.5631,-1.5328,-1.5111,-1.4852,-1.4386,-1.4231,-1.4117,-1.3958,-1.3308,-1.2954,-1.2653,-1.2088,-1.161,-1.143,-1.131,-1.1336,-1.1302,-1.1318,-1.1301,-1.1318,-1.1336,-1.1353,-1.1413,-1.143,-1.1345,-1.1353,-1.1301,-1.1301,-1.1267,-1.1049,-1.0645,-0.9997,-0.9772,-0.9661,-0.9496,-0.939,-0.9217,-0.8961,-0.837,-0.7578,-0.722,-0.702,-0.696,-0.6864,-0.7014,-0.7009,-0.6636,-0.6712,-0.7106,-0.7106,-0.7095,-0.7095,-0.7031,-0.687,-0.6811,-0.6676,-0.5774,-0.4415,-0.3583,-0.3555,-0.3491,-0.3125,-0.2788,-0.2894,-0.3078,-0.313,-0.329,-0.3369,-0.3259,-0.2942,-0.2691,-0.2691,-0.2691,-0.227,-0.1821,-0.0728,0.0476,0.0896,0.0863,0.0806,0.0817,0.0857,0.0905,0.0969,0.1167,0.1513,0.1682,0.1769,0.1797,0.1797,0.213,0.2352,0.3264,0.395,0.4704,0.5301,0.5352,0.5434,0.5709]},{"header":{"parameterUnit":"m.s-1","parameterCategory":1,"la1":31.0,"la2":29.5877,"lo1":-88.7671,"lo2":-86.6584,"dy":0.0162,"dx":0.0185,"nx":115,"ny":88,"refTime":"2026-05-17T12:00:00:Z","depth":0,"parameterNumber":3,"parameterNumberName":"V-component_of_WINDS"},"data":[0.0,0.0,0.0,0.0,0.0,0.0,0.0,0.0,0.0,0.0,0.0,0.0,0.0,0.0,0.0,0.0,0.0,0.0,0.0,0.0,0.0,0.0,0.0,0.0,0.0,0.0,0.0,0.0,0.0,0.0,0.0,0.0,0.0,0.0,0.0,0.0,0.0,0.0,0.0,0.0,0.0,0.0,0.0,0.0,0.0,0.0,0.0,0.0,0.0,0.0,0.0,0.0,0.0,0.0,0.0,0.0,0.0,0.0,0.0,0.0,0.0,0.0,0.0,0.0,0.0,0.0,0.0,0.0,0.0,0.0,0.0,0.0,0.0,0.0,0.0,0.0,0.0,0.0,0.0,0.0,0.0,0.0,0.0,0.0,0.0,0.0,0.0,0.0,0.0,0.0,0.0,0.0,0.0,0.0,0.0,0.0,0.0,0.0,0.0,0.0,0.0,0.0,0.0,0.0,0.0,0.0,0.0,0.0,0.0,0.0,0.0,0.0,0.0,0.0,0.0,0.0,0.0,0.0,0.0,0.0,0.0,0.0,0.0,0.0,0.0,0.0,0.0,0.0,0.0,0.0,0.0,0.0,0.0,0.0,0.0,0.0,0.0,0.0,0.0,0.0,0.0,0.0,0.0,0.0,0.0,0.0,0.0,0.0,0.0,0.0,0.0,0.0,0.0,0.0,0.0,0.0,0.0,0.0,0.0,0.0,0.0,0.0,0.0,0.0,0.0,0.0,0.0,0.0,0.0,0.0,0.0,0.0,0.0,0.0,0.0,0.0,0.0,0.0,0.0,0.0,0.0,0.0,0.0,0.0,0.0,0.0,0.0,0.0,0.0,0.0,0.0,0.0,0.0,0.0,0.0,0.0,0.0,0.0,0.0,0.0,0.0,0.0,0.0,0.0,0.0,0.0,0.0,0.0,0.0,0.0,0.0,0.0,0.0,0.0,0.0,0.0,0.0,0.0,0.0,0.0,0.0,0.0,0.0,0.0,0.0,0.0,0.0,0.0,0.0,0.0,0.0,0.0,0.0,0.0,0.0,0.0,0.0,0.0,0.0,0.0,0.0,0.0,0.0,0.0,0.0,0.0,0.0,0.0,0.0,0.0,0.0,0.0,0.0,0.0,0.0,0.0,0.0,0.0,0.0,0.0,0.0,0.0,0.0,0.0,0.0,0.0,0.0,0.0,0.0,0.0,0.0,0.0,0.0,0.0,0.0,0.0,0.0,0.0,0.0,0.0,0.0,0.0,0.0,0.0,0.0,0.0,0.0,0.0,0.0,0.0,0.0,0.0,0.0,0.0,0.0,0.0,0.0,0.0,0.0,0.0,0.0,0.0,0.0,0.0,0.0,0.0,0.0,0.0,0.0,0.0,0.0,0.0,0.0,0.0,0.0,0.0,0.0,0.0,0.0,0.0,0.0,0.0,0.0,0.0,0.0,0.0,0.0,0.0,0.0,0.0,0.0,0.0,0.0,0.0,0.0,0.0,0.0,0.0,0.0,0.0,0.0,0.0,0.0,0.0,0.0,0.0,0.0,0.0,0.0,0.0,0.0,0.0,0.0,0.0,0.0,0.0,0.0,0.0,0.0,0.0,0.0,0.0,0.0,0.0,0.0,0.0,0.0,0.0,0.0,0.0,0.0,0.0,0.0,0.0,0.0,0.0,0.0,0.0,0.0,0.0,0.0,0.0,0.0,0.0,0.0,0.0,0.0,0.0,0.0,0.0,0.0,0.0,0.0,0.0,0.0,0.0,0.0,0.0,0.0,0.0,0.0,0.0,0.0,0.0,0.0,0.0,0.0,0.0,0.0,0.0,0.0,0.0,0.0,0.0,0.0,0.0,0.0,0.0,0.0,0.0,0.0,0.0,0.0,0.0,0.0,0.0,0.0,0.0,0.0,0.0,0.0,0.0,0.0,0.0,0.0,0.0,0.0,0.0,0.0,0.0,0.0,0.0,0.0,0.0,0.0,0.0,0.0,0.0,0.0,0.0,0.0,0.0,0.0,0.0,0.0,0.0,0.0,0.0,0.0,0.0,0.0,0.0,0.0,0.0,0.0,0.0,0.0,0.0,0.0,0.0,0.0,0.0,0.0,0.0,0.0,0.0,0.0,0.0,0.0,0.0,0.0,0.0,0.0,0.0,0.0,0.0,0.0,0.0,0.0,0.0,0.0,0.0,0.0,0.0,0.0,0.0,0.0,0.0,0.0,0.0,0.0,0.0,0.0,0.0,0.0,0.0,0.0,0.0,0.0,0.0,0.0,0.0,0.0,0.0,0.0,0.0,0.0,0.0,0.0,0.0,0.0,0.0,0.0,0.0,0.0,0.0,0.0,0.0,0.0,0.0,0.0,0.0,0.0,0.0,0.0,0.0,0.0,0.0,0.0,0.0,0.0,0.0,0.0,0.0,0.0,0.0,0.0,0.0,0.0,0.0,0.0,0.0,0.0,0.0,0.0,0.0,0.0,0.0,0.0,0.0,0.0,0.0,0.0,0.0,0.0,0.0,0.0,0.0,0.0,0.0,0.0,0.0,0.0,0.0,0.0,0.0,0.0,0.0,0.0,0.0,0.0,0.0,0.0,0.0,0.0,0.0,0.0,0.0,0.0,0.0,0.0,0.0,0.0,0.0,0.0,0.0,0.0,0.0,0.0,0.0,0.0,0.0,0.0,0.0,0.0,0.0,0.0,0.0,0.0,0.0,0.0,0.0,0.0,0.0,0.0,0.0,0.0,0.0,0.0,0.0,0.0,0.0,0.0,0.0,0.0,0.0,0.0,0.0,0.0,0.0,0.0,0.0,0.0,0.0,0.0,0.0,0.0,0.0,0.0,0.0,0.0,0.0,0.0,0.0,0.0,0.0,0.0,0.0,0.0,0.0,0.0,0.0,0.0,0.0,0.0,0.0,0.0,0.0,0.0,0.0,0.0,0.0,0.0,0.0,0.0,0.0,0.0,0.0,0.0,0.0,0.0,0.0,0.0,0.0,0.0,0.0,0.0,0.0,0.0,0.0,0.0,0.0,0.0,0.0,0.0,0.0,0.0,0.0,0.0,0.0,0.0,0.0,0.0,0.0,0.0,0.0,0.0,0.0,0.0,0.0,0.0,0.0,0.0,0.0,0.0,0.0,0.0,0.0,0.0,0.0,0.0,0.0,0.0,0.0,0.0,0.0,0.0,0.0,0.0,0.0,0.0,0.0,0.0,0.0,0.0,0.0,0.0,0.0,0.0,0.0,0.0,0.0,0.0,0.0,0.0,0.0,0.0,0.0,0.0,0.0,0.0,0.0,0.0,0.0,0.0,0.0,0.0,0.0,0.0,0.0,0.0,0.0,0.0,0.0,0.0,0.0,0.0,0.0,0.0,0.0,0.0,0.0,0.0,0.0,0.0,0.0,0.0,0.0,0.0,0.0,0.0,0.0,0.0,0.0,0.0,0.0,0.0,0.0,0.0,0.0,0.0,0.0,0.0,0.0,0.0,0.0,0.0,0.0,0.0,0.0,0.0,0.0,0.0,0.0,0.0,0.0,0.0,0.0,0.0,0.0,0.0,0.0,0.0,0.0,0.0,0.0,0.0,0.0,0.0,0.0,0.0,0.0,0.0,0.0,0.0,0.0,0.0,0.0,0.0,0.0,0.0,0.0,0.0,0.0,0.0,0.0,0.0,0.0,0.0,0.0,0.0,0.0,0.0,0.0,0.0,0.0,0.0,0.0,0.0,0.0,0.0,0.0,0.0,0.0,0.0,0.0,0.0,0.0,0.0,0.0,0.0,0.0,0.0,0.0,0.0,0.0,0.0,0.0,0.0,0.0,0.0,0.0,0.0,0.0,0.0,0.0,0.0,0.0,0.0,0.0,0.0,0.0,0.0,0.0,0.0,0.0,0.0,0.0,0.0,0.0,0.0,0.0,0.0,0.0,0.0,0.0,0.0,0.0,0.0,0.0,0.0,0.0,0.0,0.0,0.0,0.0,0.0,0.0,0.0,0.0,0.0,0.0,0.0,0.0,0.0,0.0,0.0,0.0,0.0,0.0,0.0,0.0,0.0,0.0,0.0,0.0,0.0,0.0,0.0,0.0,0.0,0.0,0.0,0.0,0.0,0.0,0.0,0.0,0.0,0.0,0.0,0.0,0.0,0.0,0.0,0.0,0.0,0.0,0.0,0.0,0.0,0.0,0.0,0.0,0.0,0.0,0.0,0.0,0.0,0.0,0.0,0.0,0.0,0.0,0.0,0.0,0.0,0.0,0.0,0.0,0.0,0.0,0.0,0.0,0.0,0.0,0.0,0.0,0.0,0.0,0.0,0.0,0.0,0.0,0.0,0.0,0.0,0.0,0.0,0.0,0.0,0.0,0.0,0.0,0.0,0.0,0.0,0.0,0.0,0.0,0.0,0.0,0.0,0.0,0.0,0.0,0.0,0.0,0.0,0.0,0.0,0.0,0.0,0.0,0.0,0.0,0.0,0.0,0.0,0.0,0.0,0.0,0.0,0.0,0.0,0.0,0.0,0.0,0.0,0.0,0.0,0.0,0.0,0.0,0.0,0.0,0.0,0.0,0.0,0.0,0.0,0.0,0.0,0.0,0.0,0.0,0.0,0.0,0.0,0.0,0.0,0.0,0.0,0.0,0.0,0.0,0.0,0.0,0.0,0.0,0.0,0.0,0.0,0.0,0.0,0.0,0.0,0.0,0.0,0.0,0.0,0.0,0.0,0.0,0.0,0.0,0.0,0.0,0.0,0.0,0.0,0.0,0.0,0.0,0.0,0.0,0.0,0.0,0.0,0.0,0.0,0.0,0.0,0.0,0.0,0.0,0.0,0.0,0.0,0.0,0.0,0.0,0.0,0.0,0.0,0.0,0.0,0.0,0.0,0.0,0.0,0.0,0.0,0.0,0.0,0.0,0.0,0.0,0.0,0.0,0.0,0.0,0.0,0.0,0.0,0.0,0.0,0.0,0.0,0.0,0.0,0.0,0.0,0.0,0.0,0.0,0.0,0.0,0.0,0.0,0.0,0.0,0.0,0.0,0.0,0.0,0.0,0.0,0.0,0.0,0.0,0.0,0.0,0.0,0.0,0.0,0.0,0.0,0.0,0.0,0.0,0.0,0.0,0.0,0.0,0.0,0.0,0.0,0.0,0.0,0.0,0.0,0.0,0.0,0.0,0.0,0.0,0.0,0.0,0.0,0.0,0.0,0.0,0.0,0.0,0.0,0.0,0.0,0.0,0.0,0.0,0.0,0.0,0.0,0.0,0.0,0.0,0.0,0.0,0.0,0.0,0.0,0.0,0.0,0.0953,0.0633,0.0,0.0,0.0,0.0,0.0,0.0,0.0,0.0,0.0,0.0,0.0,0.0,0.0,0.0,0.0,0.0,0.0,0.0,0.0,0.0,0.0,0.0,0.0,0.0,0.0,0.0,0.0,0.0,0.0,0.0,0.0,0.0,0.0,0.0,0.0,0.0,0.0,0.0,0.0,0.0,0.0,0.0,0.0,0.0,0.0,0.0,0.0,0.0,0.0,0.0,0.0,0.0,0.0,0.0,0.0,0.0,0.0,0.0,0.0,0.0,0.0,0.0,0.0,0.0,0.0,0.0,0.0,0.0,0.0,0.0,0.0,0.0,0.0,0.0,0.0,0.0,0.0,0.0,0.0,0.0,0.0,0.0,0.0,0.0,0.0,0.0,0.0,0.0,0.0,0.0,0.0,0.0,0.0,0.0,0.0,0.0,0.0,0.0,0.0,0.0,0.0,0.0,0.0,0.0,0.0,0.0,0.0,0.0,0.0,0.0,0.0,0.1223,0.3721,0.38,0.0,0.0,0.0,0.0,0.0,0.0,0.0,0.0,0.0,0.0,0.0,0.0,0.0,0.0,0.0,0.0,0.0,0.0,0.0,0.0,0.0,0.0,0.0,0.0,0.0,0.0,0.0,0.0,0.0,0.0,0.0,0.0,0.0,0.0,0.0,0.0,0.0,0.0,0.0,0.0,0.0,0.0,0.0,0.0,0.0,0.0,0.0,0.0,0.0,0.0,0.0,0.0,0.0,0.0,0.0,0.0,0.0,0.0,0.0,0.0,0.0,0.0,0.0,0.0,0.0,0.0,0.0,0.0,0.0,0.0,0.0,0.0,0.0,0.0,0.0,0.0,0.0,0.0,0.0,0.0,0.0,0.0,0.0,0.0,0.0,0.0,0.0,0.0,0.0,0.0,0.0,0.0,0.0,0.0,0.0,0.0,0.0,0.0,0.0,0.0,0.0,0.0,0.0,0.0,0.0,0.0,0.0,0.0,0.0,0.0,0.0,0.0,0.0,0.4299,0.4233,0.288,0.0,0.0,0.0,0.0,0.0,0.0,0.0,0.0,0.0,0.0,0.0,0.0,0.0,0.0,0.0,0.0,0.0,0.0,0.0,0.0,0.0,0.0,0.0,0.0,0.0,0.0,0.0,0.0,0.0,0.0,0.0,0.0,0.0,0.0,0.0,0.0,0.0,0.0,0.0,0.0,0.0,0.0,0.0,0.0,0.0,0.0,0.0,0.0,0.0,0.0,0.0,0.0,0.0,0.0,0.0,0.0,0.0,0.0,0.0,0.0,0.0,0.0,0.0,0.0,0.0,0.0,0.0,0.0,0.0,0.0,0.0,0.0,0.0,0.0,0.0,0.0,0.0,0.0,0.0,0.0,0.0,0.0,0.0,0.0,0.0,0.0,0.0,0.0,0.0,0.0,0.0,0.0,0.0,0.0,0.0,0.0,0.0,0.0,0.0,0.0,0.0,0.0,0.0,0.0,0.0,0.0,0.0,0.0,0.0,0.0,0.4041,0.0,0.4368,0.4293,0.3265,0.1234,0.0,0.0,0.0,0.0,0.0,0.0,0.0,0.0,0.0,0.0,0.0,0.0,0.0,0.0,0.0,0.0,0.0,0.0,0.0,0.0,0.0,0.0,0.0,0.0,0.0,0.0,0.0,0.0,0.0,0.0,0.0,0.0,0.0,0.0,0.0,0.0,0.0,0.0,0.0,0.0,0.0,0.0,0.0,0.0,0.0,0.0,0.0,0.0,0.0,0.0,0.0,0.0,0.0,0.0,0.0,0.0,0.0,0.0,0.0,0.0,0.0,0.0,0.0,0.0,0.0,0.0,0.0,0.0,0.0,0.0,0.0,0.0,0.0,0.0,0.0,0.0,0.0,0.0,0.0,0.0,0.0,0.0,0.0,0.0,0.0,0.0,0.0,0.0,0.0,0.0,0.0,0.0,0.0,0.0,0.0,0.0,0.0,0.0,0.0,0.0,0.0,0.0,0.0,0.0,0.0,0.0,0.0,0.0,0.0,0.3638,0.4365,0.4274,0.4365,0.4251,0.0,0.0,0.0,0.0,0.0,0.0,0.0,0.0,0.0,0.0,0.0,0.0,0.0,0.0,0.0,0.0,0.0,0.0,0.0,0.0,0.0,0.0,0.0,0.0,0.0,0.0,0.0,0.0,0.0,0.0,0.0,0.0,0.0,0.0,0.0,0.0,0.0,0.0,0.0,0.0,0.0,0.0,0.0,0.0,0.0,0.0,0.0,0.0,0.0,0.0,0.0,0.0,0.0,0.0,0.0,0.0,0.0,0.0,0.0,0.0,0.0,0.0,0.0,0.0,0.0,0.0,0.0,0.0,0.0,0.0,0.0,0.0,0.0,0.0,0.0,0.0,0.0,0.0,0.0,0.0,0.0,0.0,0.0,0.0,0.0,0.0,0.0,0.0,0.0,0.0,0.0,0.0,0.0,0.0,0.0,0.0,0.0,0.0,0.0,0.0,0.0,0.0,0.0,0.0,0.0,0.0,0.0,0.0,0.0,0.3381,0.4074,0.4066,0.3382,0.4014,0.3934,0.0,0.0,0.0,0.0,0.0,0.0,0.0,0.0,0.0,0.0,0.0,0.0,0.0,0.0,0.0,0.0,0.0,0.0,0.0,0.0,0.0,0.0,0.0,0.0,0.0,0.0,0.0,0.0,0.0,0.0,0.0,0.0,0.0,0.0,0.0,0.0,0.0,0.0,0.0,0.0,0.0,0.0,0.0,0.0,0.0,0.0,0.0,0.0,0.0,0.0,0.0,0.0,0.0,0.0,0.0,0.0,0.0,0.0,0.0,0.0,0.0,0.0,0.0,0.0,0.0,0.0,0.0,0.0,0.0,0.0,0.0,0.0,0.0,0.0,0.0,0.0,0.0,0.0,0.0,0.0,0.0,0.0,0.0,0.0,0.0,0.0,0.0,0.0,0.0,0.0,0.0,0.0,0.0,0.0,0.0,0.0,0.0,0.0,0.0,0.0,0.0,0.0,0.0,0.0,0.0,0.0,0.0,0.0,0.0,0.3485,0.0,0.3471,0.0,0.3769,0.3476,0.0,0.0,0.0,0.0,0.0,0.0,0.0,0.0,0.0,0.0,0.0,0.0,0.0,0.0,0.0,0.0,0.0,0.0,0.0,0.0,0.0,0.0,0.0,0.0,0.0,0.0,0.0,0.0,0.0,0.0,0.0,0.0,0.0,0.0,0.0,0.0,0.0,0.0,0.0,0.0,0.0,0.0,0.0,0.0,0.0,0.0,0.0,0.0,0.0,0.0,0.0,0.0,0.0,0.0,0.0,0.0,0.0,0.0,0.0,0.0,0.0,0.0,0.0,0.0,0.0,0.0,0.0,0.0,0.0,0.0,0.0,0.0,0.0,0.0,0.0,0.0,0.0,0.0,0.0,0.0,0.0,0.0,0.0,0.0,0.0,0.0,0.0,0.0,0.0,0.0,0.0,0.0,0.0,0.0,0.0,0.0,0.0,0.0,0.0,0.0,0.0,0.0,0.0,0.0,0.0,0.0,0.0,0.0,0.0,0.2273,0.2689,0.2742,0.229,0.3566,0.2964,0.0,0.0,0.0,0.0,0.0,0.0,0.0,0.0,0.0,0.0,0.0,0.0,0.0,0.0,0.0,0.0,0.0,0.0,0.0,0.0,0.0,0.0,0.0,0.0,0.0,0.0,0.0,0.0,0.0,0.0,0.0,0.0,0.0,0.0,0.0,0.0,0.0,0.0,0.0,0.0,0.0,0.0,0.0,0.0,0.0,0.0,0.0,0.0,0.0,0.0,0.0,0.0,0.0,0.0,0.0,0.0,0.0,0.0,0.0,0.0,0.0,0.0,0.0,0.0,0.0,0.0,0.0,0.0,0.0,0.0,0.0,0.0,0.0,0.0,0.0,0.0,0.0,0.0,0.0,0.0,0.0,0.0,0.0,0.0,0.0,0.0,0.0,0.0,0.0,0.0,0.0,0.0,0.0,0.0,0.0,0.0,0.0,0.0,0.0,0.0,0.0,0.0,0.0,0.0,0.0,0.0,0.0,0.0,0.0,0.369,0.3849,0.3844,0.369,0.2179,0.1407,0.0,0.0,0.0,0.0,0.0,0.0,0.0,0.0,0.0,0.0,0.0,0.0,0.0,0.0,0.0,0.0,0.0,0.0,0.0,0.0,0.0,0.0,0.0,0.0,0.0,0.0,0.0,0.0,0.0,0.0,0.0,0.0,0.0,0.0,0.0,0.0,0.0,0.0,0.0,0.0,0.0,0.0,0.0,0.0,0.0,0.0,0.0,0.0,0.0,0.0,0.0,0.0,0.0,0.0,0.0,0.0,0.0,0.0,0.0,0.0,0.0,0.0,0.0,0.0,0.0,0.0,0.0,0.0,0.0,0.0,0.0,0.0,0.0,0.0,0.0,0.0,0.0,0.0,0.0,0.0,0.0,0.0,0.0,0.0,0.0,0.0,0.0,0.0,0.0,0.0,0.0,0.0,0.0,0.0,0.0,0.0,0.0,0.0,0.0,0.0,0.0,0.0,0.0,0.0,0.0,0.0,0.0,0.0,0.0,0.4394,0.4426,0.4392,0.4397,0.2597,0.1558,0.1354,0.0,0.0,0.0,0.0,0.0,0.0,0.0,0.0,0.0,0.0,0.0,0.0,0.0,0.0,0.0,0.0,0.0,0.0,0.0,0.0,0.0,0.0,0.0,0.0,0.0,0.0,0.0,0.0,0.0,0.0,0.0,0.0,0.0,0.0,0.0,0.0,0.0,0.0,0.0,0.0,0.0,0.0,0.0,0.0,0.0,0.0,0.0,0.0,0.0,0.0,0.0,0.0,0.0,0.0,0.0,0.0,0.0,0.0,0.0,0.0,0.0,0.0,0.0,0.0,0.0,0.0,0.0,0.0,0.0,0.0,0.0,0.0,0.0,0.0,0.0,0.0,0.0,0.0,0.0,0.0,0.0,0.0,0.0,0.0,0.0,0.0,0.0,0.0,0.0,0.0,0.0,0.0,0.0,0.0,0.0,0.0,0.0,0.0,0.0,0.0,0.0,0.0,0.0,0.0,0.0,0.0,0.0,0.0,0.4732,0.4526,0.4412,0.4423,0.4384,0.3082,0.0,0.0,0.0,0.0,0.0,0.0,0.0,0.0,0.0,0.0,0.0,0.0,0.0,0.0,0.0,0.0,0.0,0.0,0.0,0.0,0.0,0.0,0.0,0.0,0.0,0.0,0.0,0.0,0.0,0.0,0.0,0.0,0.0,0.0,0.0,0.0,0.0,0.0,0.0,0.0,0.0,0.0,0.0,0.0,0.0,0.0,0.0,0.0,0.0,0.0,0.0,0.0,0.0,0.0,0.0,0.0,0.0,0.0,0.0,0.0,0.0,0.0,0.0,0.0,0.0,0.0,0.0,0.0,0.0,0.0,0.0,0.0,0.0,0.0,0.0,0.0,0.0,0.0,0.0,0.0,0.0,0.0,0.0,0.0,0.0,0.0,0.0,0.0,0.0,0.0,0.0,0.0,0.0,0.0,0.0,0.0,0.0,0.0,0.0,0.0,0.0,0.0,0.0,0.0,0.0,0.0,0.0,0.0,0.0,0.6394,0.5191,0.4508,0.4531,0.4547,0.3637,0.0,0.0,0.0,0.0,0.0,0.0,0.0,0.0,0.0,0.0,0.0,0.0,0.0,0.0,0.0,0.0,0.0,0.0,0.0,0.0,0.0,0.0,0.0,0.0,0.0,0.0,0.0,0.0,0.0,0.0,0.0,0.0,0.0,0.0,0.0,0.0,0.0,0.0,0.0,0.0,0.0,0.0,0.0,0.0,0.0,0.0,0.0,0.0,0.0,0.0,0.0,0.0,0.0,0.0,0.0,0.0,0.0,0.0,0.0,0.0,0.0,0.0,0.0,0.0,0.0,0.0,0.0,0.0,0.0,0.0,0.0,0.0,0.0,0.0,0.0,0.0,0.0,0.0,0.0,0.0,0.0,0.0,0.0,0.0,0.0,0.0,0.0,0.0,0.0,0.0,0.0,0.0,0.0,0.0,0.0,0.0,0.0,0.0,0.0,0.0,0.0,0.0,0.0,0.0,0.0,0.0,0.0,0.0,0.5227,0.6168,0.5159,0.4658,0.4674,0.4634,0.4181,0.0,0.0,0.0,0.0,0.0,0.0,0.0,0.0,0.0,0.0,0.0,0.0,0.0,0.0,0.0,0.0,0.0,0.0,0.0,0.0,0.0,0.0,0.0,0.0,0.0,0.0,0.0,0.0,0.0,0.0,0.0,0.0,0.0,0.0,0.0,0.0,0.0,0.0,0.0,0.0,0.0,0.0,0.0,0.0,0.0,0.0,0.0,0.0,0.0,0.0,0.0,0.0,0.0,0.0,0.0,0.0,0.0,0.0,0.0,0.0,0.0,0.0,0.0,0.0,0.0,0.0,0.0,0.0,0.0,0.0,0.0,0.0,0.0,0.0,0.0,0.0,0.0,0.0,0.0,0.0,0.0,0.0,0.0,0.0,0.0,0.0,0.0,0.0,0.0,0.0,0.0,0.0,0.0,0.0,0.0,0.0,0.0,0.0,0.0,0.0,0.0,0.0,0.0,0.0,0.0,0.0,0.0,0.0,0.4918,0.4975,0.4864,0.4848,0.4914,0.4735,0.4665,0.0,0.0,0.0,0.0,0.0,0.0,0.0,0.0,0.0,0.0,0.0,0.0,0.0,0.0,0.0,0.0,0.0,0.0,0.0,0.0,0.0,0.0,0.0,0.0,0.0,0.0,0.0,0.0,0.0,0.0,0.0,0.0,0.0,0.0,0.0,0.0,0.0,0.0,0.0,0.0,0.0,0.0,0.0,0.0,0.0,0.0,0.0,0.0,0.0,0.0,0.0,0.0,0.0,0.0,0.0,0.0,0.0,0.0,0.0,0.0,0.0,0.0,0.0,0.0,0.0,0.0,0.0,0.0,0.0,0.0,0.0,0.0,0.0,0.0,0.0,0.0,0.0,0.0,0.0,0.0,0.0,0.0,0.0,0.0,0.0,0.0,0.0,0.0,0.0,0.0,0.0,0.0,0.0,0.0,0.0,0.0,0.0,0.0,0.0,0.0,0.0,0.0,0.0,0.0,0.0,0.0,0.0,0.0,0.5238,0.6007,0.5196,0.5036,0.5709,0.5102,0.4752,0.0,0.0,0.0,0.0,0.0,0.0,0.0,0.0,0.0,0.0,0.0,0.0,0.0,0.0,0.0,0.0,0.0,0.0,0.0,0.0,0.0,0.0,0.0,0.0,0.0,0.0,0.0,0.0,0.0,0.0,0.0,0.0,0.0,0.0,0.0,0.0,0.0,0.0,0.0,0.0,0.0,0.0,0.0,0.0,0.0,0.0,0.0,0.0,0.2745,0.0,0.0,0.0,0.0,0.0,0.0,0.0,0.0,0.0,0.0,0.0,0.0,0.0,0.0,0.0,0.0,0.0,0.0,0.0,0.0,0.0,0.0,0.0,0.0,0.0,0.0,0.0,0.0,0.0,0.0,0.0,0.0,0.0,0.0,0.0,0.0,0.0,0.0,0.0,0.0,0.0,0.0,0.0,0.0,0.0,0.0,0.0,0.0,0.0,0.0,0.0,0.0,0.0,0.0,0.0,0.0,0.0,0.0,0.0,0.5063,0.5596,0.5073,0.496,0.5388,0.5029,0.4795,0.0,0.0,0.0,0.0,0.0,0.0,0.0,0.0,0.0,0.0,0.0,0.0,0.0,0.0,0.0,0.0,0.0,0.0,0.0,0.0,0.0,0.0,0.0,0.0,0.0,0.0,0.0,0.0,0.0,0.0,0.0,0.0,0.0,0.0,0.0,0.0,0.0,0.0,0.0,0.0,0.0,0.0,0.0,0.0,0.0,0.0,0.0,0.0,0.0,0.0,0.0,0.0,0.0,0.0,0.0,0.0,0.0,0.0,0.0,0.0,0.0,0.0,0.0,0.0,0.0,0.0,0.0,0.0,0.0,0.0,0.0,0.0,0.0,0.0,0.0,0.0,0.0,0.0,0.0,0.0,0.0,0.0,0.0,0.0,0.0,0.0,0.0,0.0,0.0,0.0,0.0,0.0,0.0,0.0,0.0,0.0,0.0,0.0,0.0,0.0,0.0,0.0,0.0,0.0,0.0,0.0,0.0,0.412,0.4795,0.4795,0.4795,0.4795,0.4795,0.4795,0.4795,0.4795,0.0,0.0,0.0,0.0,0.0,0.0,0.0,0.0,0.0,0.0,0.0,0.0,0.0,0.0,0.0,0.0,0.0,0.0,0.0,0.0,0.0,0.0,0.0,0.0,0.0,0.0,0.0,0.0,0.0,0.0,0.0,0.0,0.0,0.0,0.0,0.0,0.0,0.0,0.0,0.2238,0.0,0.0,0.0,0.0,0.0,0.0,0.0,0.0,0.3619,0.0,0.0,0.0,0.0,0.0,0.0,0.0,0.0,0.0,0.0,0.0,0.0,0.0,0.0,0.0,0.0,0.0,0.0,0.0,0.0,0.0,0.0,0.0,0.0,0.0,0.0,0.0,0.0,0.0,0.0,0.0,0.0,0.0,0.0,0.0,0.0,0.0,0.0,0.0,0.0,0.0,0.0,0.0,0.0,0.0,0.0,0.0,0.0,0.0,0.0,0.0,0.0,0.0,0.0,0.0,0.0,0.4356,0.4658,0.4787,0.4795,0.4795,0.4795,0.4795,0.4795,0.4795,0.4795,0.0,0.0,0.0,0.0,0.0,0.0,0.0,0.0,0.0,0.0,0.0,0.0,0.0,0.0,0.0,0.0,0.0,0.0,0.0,0.0,0.0,0.0,0.0,0.0,0.0,0.0,0.0,0.0,0.0,0.0,0.0,0.0,0.0,0.0,0.0,0.0,0.0,0.0,0.0,0.2262,0.3913,0.0,0.0,0.0,0.0,0.0,0.0,0.0,0.0,0.3149,0.0,0.0,0.0,0.0,0.0,0.0,0.0,0.0,0.0,0.0,0.0,0.0,0.0,0.0,0.0,0.0,0.0,0.0,0.0,0.0,0.0,0.0,0.0,0.0,0.0,0.0,0.0,0.0,0.0,0.0,0.0,0.0,0.0,0.0,0.0,0.0,0.0,0.0,0.0,0.0,0.0,0.0,0.0,0.0,0.0,0.0,0.0,0.0,0.0,0.0,0.0,0.0,0.0,0.0,0.0,0.3498,0.4374,0.4795,0.4795,0.4795,0.4795,0.4795,0.4795,0.4795,0.0,0.0,0.0,0.0,0.0,0.0,0.0,0.0,0.0,0.0,0.0,0.0,0.0,0.0,0.0,0.0,0.0,0.0,0.0,0.0,0.0,0.0,0.0,0.0,0.0,0.0,0.0,0.0,0.0,0.0,0.0,0.0,0.0,0.0,0.0,0.0,0.0,0.0,0.0,0.0,0.3118,0.398,0.4172,0.0,0.0,0.0,0.0,0.0,0.0,0.3089,0.3415,0.0,0.0,0.0,0.0,0.0,0.0,0.0,0.0,0.0,0.0,0.0,0.0,0.0,0.0,0.0,0.0,0.0,0.0,0.0,0.0,0.0,0.0,0.0,0.0,0.0,0.0,0.0,0.0,0.0,0.0,0.0,0.0,0.0,0.0,0.0,0.0,0.0,0.0,0.0,0.0,0.0,0.0,0.0,0.0,0.0,0.0,0.0,0.0,0.0,0.0,0.0,0.0,0.0,0.0,0.0,0.2927,0.4134,0.4795,0.4795,0.4795,0.4795,0.4795,0.4795,0.4795,0.0,0.0,0.0,0.0,0.0,0.0,0.0,0.0,0.0,0.0,0.0,0.0,0.0,0.0,0.0,0.0,0.0,0.0,0.0,0.0,0.0,0.0,0.0,0.0,0.0,0.0,0.0,0.0,0.0,0.0,0.0,0.0,0.0,0.0,0.0,0.0,0.0,0.0,0.0,0.0,0.0,0.4142,0.4465,0.4221,0.0,0.0,0.0,0.0,0.3913,0.3913,0.0,0.0,0.0,0.0,0.0,0.0,0.0,0.0,0.0,0.0,0.0,0.0,0.0,0.0,0.0,0.0,0.0,0.0,0.0,0.0,0.0,0.0,0.0,0.0,0.0,0.0,0.0,0.0,0.0,0.0,0.0,0.0,0.0,0.0,0.0,0.0,0.0,0.0,0.0,0.0,0.0,0.0,0.0,0.0,0.0,0.0,0.0,0.0,0.0,0.0,0.0,0.0,0.0,0.0,0.0,0.0,0.4519,0.4707,0.4795,0.4795,0.4795,0.4795,0.4795,0.4795,0.4787,0.0,0.0,0.0,0.0,0.0,0.0,0.0,0.0,0.0,0.0,0.0,0.0,0.0,0.0,0.0,0.0,0.0,0.0,0.0,0.0,0.0,0.0,0.0,0.0,0.0,0.0,0.0,0.0,0.0,0.0,0.0,0.0,0.0,0.0,0.0,0.0,0.0,0.0,0.0,0.0,0.0,0.4437,0.4494,0.4454,0.4274,0.0,0.0,0.0,0.3913,0.3913,0.0,0.0,0.0,0.0,0.0,0.0,0.0,0.0,0.0,0.0,0.0,0.0,0.0,0.0,0.0,0.0,0.0,0.0,0.0,0.0,0.0,0.0,0.0,0.0,0.0,0.0,0.0,0.0,0.0,0.0,0.0,0.0,0.0,0.0,0.0,0.0,0.0,0.0,0.0,0.0,0.0,0.0,0.0,0.0,0.0,0.0,0.0,0.0,0.0,0.0,0.0,0.0,0.0,0.0,0.0,0.3856,0.4646,0.4715,0.4733,0.4682,0.4731,0.475,0.473,0.4785,0.4787,0.0,0.0,0.0,0.0,0.0,0.0,0.0,0.0,0.0,0.0,0.0,0.0,0.0,0.0,0.0,0.0,0.0,0.0,0.0,0.0,0.0,0.0,0.0,0.0,0.0,0.0,0.0,0.0,0.0,0.0,0.0,0.0,0.0,0.0,0.0,0.0,0.0,0.0,0.0,0.0,0.0,0.0,0.4757,0.4713,0.0,0.0,0.0,0.4977,0.6751,0.0,0.0,0.0,0.0,0.0,0.0,0.0,0.0,0.0,0.0,0.0,0.0,0.0,0.0,0.0,0.0,0.0,0.0,0.0,0.0,0.0,0.0,0.0,0.0,0.0,0.0,0.0,0.0,0.0,0.0,0.0,0.0,0.0,0.0,0.0,0.0,0.0,0.0,0.0,0.0,0.0,0.0,0.0,0.0,0.0,0.0,0.0,0.0,0.0,0.0,0.0,0.0,0.0,0.0,0.0,0.0,0.0,0.4608,0.4666,0.4672,0.4635,0.4666,0.4704,0.4726,0.4755,0.0,0.0,0.0,0.0,0.0,0.0,0.0,0.0,0.0,0.0,0.0,0.0,0.0,0.0,0.0,0.0,0.0,0.0,0.0,0.0,0.0,0.0,0.0,0.0,0.0,0.0,0.0,0.0,0.0,0.0,0.0,0.0,0.0,0.0,0.0,0.0,0.0,0.0,0.0,0.0,0.0,0.0,0.5806,0.612,0.6009,0.57,0.0,0.0,0.6709,0.9046,0.6726,0.4994,0.0,0.0,0.0,0.0,0.0,0.0,0.0,0.0,0.0,0.0,0.0,0.0,0.0,0.0,0.0,0.0,0.0,0.0,0.0,0.0,0.0,0.0,0.0,0.0,0.0,0.0,0.0,0.0,0.0,0.0,0.0,0.0,0.0,0.0,0.0,0.0,0.0,0.0,0.0,0.0,0.0,0.0,0.0,0.0,0.0,0.0,0.0,0.0,0.0,0.0,0.0,0.0,0.0,0.0,0.0,0.4702,0.4677,0.4635,0.4706,0.4635,0.4664,0.4783,0.4789,0.4789,0.0,0.0,0.0,0.0,0.0,0.0,0.0,0.0,0.0,0.0,0.0,0.0,0.0,0.0,0.0,0.0,0.0,0.0,0.0,0.0,0.0,0.0,0.0,0.0,0.0,0.0,0.0,0.0,0.0,0.0,0.0,0.0,0.0,0.0,0.0,0.0,0.0,0.0,0.0,0.0,0.0,0.9207,0.9364,0.9073,0.8745,0.0,0.0,0.9162,0.9358,0.6653,0.4547,0.4651,0.0,0.0,0.0,0.0,0.0,0.0,0.0,0.0,0.0,0.0,0.0,0.0,0.0,0.0,0.0,0.0,0.0,0.0,0.0,0.0,0.0,0.0,0.0,0.0,0.0,0.0,0.0,0.0,0.0,0.0,0.0,0.0,0.0,0.0,0.0,0.0,0.0,0.0,0.0,0.0,0.0,0.0,0.0,0.0,0.0,0.0,0.0,0.0,0.0,0.0,0.0,0.0,0.0,0.4105,0.472,0.4646,0.4584,0.4602,0.5108,0.5178,0.474,0.4798,0.4789,0.0,0.0,0.0,0.0,0.0,0.0,0.0,0.0,0.0,0.0,0.0,0.0,0.0,0.0,0.0,0.0,0.0,0.0,0.0,0.0,0.0,0.0,0.0,0.0,0.0,0.0,0.0,0.0,0.0,0.0,0.0,0.0,0.0,0.0,0.0,0.0,0.0,0.0,0.0,0.0,0.0,0.7452,0.9566,0.965,0.0,0.0,0.9538,0.9521,0.9141,0.8026,0.7215,0.7215,0.5687,0.0,0.0,0.0,0.0,0.0,0.0,0.0,0.0,0.0,0.0,0.0,0.0,0.0,0.0,0.0,0.0,0.0,0.0,0.0,0.0,0.0,0.0,0.0,0.0,0.0,0.0,0.0,0.0,0.0,0.0,0.0,0.0,0.0,0.0,0.0,0.0,0.0,0.0,0.0,0.0,0.0,0.0,0.0,0.0,0.0,0.0,0.0,0.0,0.0,0.0,0.0,0.0,0.4802,0.4732,0.4641,0.4584,0.4582,0.5406,0.5517,0.4774,0.474,0.4761,0.0,0.0,0.0,0.0,0.0,0.0,0.0,0.0,0.0,0.0,0.0,0.0,0.0,0.0,0.0,0.0,0.0,0.0,0.0,0.0,0.0,0.0,0.0,0.0,0.0,0.0,0.0,0.0,0.0,0.0,0.0,0.0,0.0,0.0,0.0,0.0,0.0,0.0,0.0,0.0,0.0,0.7286,0.9657,0.9875,0.9765,0.971,0.9743,0.9575,0.8983,0.8919,0.8598,0.7674,0.0,0.0,0.0,0.0,0.0,0.0,0.0,0.0,0.0,0.0,0.0,0.0,0.0,0.0,0.0,0.0,0.0,0.0,0.0,0.0,0.0,0.0,0.0,0.0,0.0,0.0,0.0,0.0,0.0,0.0,0.0,0.0,0.0,0.0,0.0,0.0,0.0,0.0,0.0,0.0,0.0,0.0,0.0,0.0,0.0,0.0,0.0,0.0,0.0,0.0,0.0,0.0,0.0,0.0,0.4791,0.4661,0.4635,0.4699,0.5437,0.5517,0.486,0.4704,0.4677,0.4716,0.0,0.0,0.0,0.0,0.0,0.0,0.0,0.0,0.0,0.0,0.0,0.0,0.0,0.0,0.0,0.0,0.0,0.0,0.0,0.0,0.0,0.0,0.0,0.0,0.0,0.0,0.0,0.0,0.0,0.0,0.0,0.0,0.0,0.0,0.0,0.0,0.0,0.0,0.0,0.989,0.9909,0.9984,1.0001,0.9913,0.9736,0.9706,0.9517,0.8984,0.8919,0.7869,0.0,0.0,0.0,0.0,0.0,0.0,0.0,0.0,0.0,0.0,0.0,0.0,0.0,0.0,0.0,0.0,0.0,0.0,0.0,0.0,0.0,0.0,0.0,0.0,0.0,0.0,0.0,0.5384,0.2983,0.0,0.0,0.0,0.0,0.0,0.0,0.0,0.0,0.0,0.0,0.0,0.7088,0.7461,0.0,0.0,0.0,0.0,0.0,0.0,0.0,0.0,0.0,0.0,0.0,0.0,0.4734,0.4677,0.4666,0.467,0.4671,0.6006,0.6366,0.5618,0.6111,0.4885,0.1735,0.0,0.0,0.0,0.0,0.0,0.0,0.0,0.0,0.0,0.0,0.0,0.0,0.0,0.0,0.0,0.0,0.0,0.0,0.0,0.0,0.0,0.0,0.0,0.0,0.0,0.0,0.0,0.0,0.0,0.0,0.0,0.0,0.0,0.0,0.0,0.0,0.0,0.8757,0.9855,1.0003,1.0003,1.0003,1.0003,0.9936,0.0,0.0,0.0,0.0,0.0,0.0,0.0,0.0,0.0,0.0,0.0,0.0,0.0,0.0,0.711,0.6745,0.5079,0.3827,0.4282,0.0,0.0,0.0,0.0,0.0,0.0,0.0,0.0,0.0,0.0,0.0,0.0,0.0,0.0,0.0,0.0,0.4823,0.0,0.0,0.0,0.0,0.0,0.0,0.0,0.0,0.816,0.8104,0.7592,0.8102,0.7929,0.0,0.7415,0.6781,0.0,0.0,0.0,0.0,0.0,0.0,0.0,0.0,0.4752,0.4963,0.4754,0.4635,0.4679,0.627,0.679,0.6043,0.628,0.4923,0.1795,0.3777,0.4982,0.0,0.0,0.0,0.0,0.0,0.0,0.0,0.0,0.0,0.0,0.0,0.0,0.0,0.0,0.0,0.0,0.0,0.0,0.0,0.0,0.0,0.0,0.0,0.0,0.0,0.0,0.0,0.0,0.0,0.0,0.0,0.0,0.0,0.4654,0.7827,1.0091,1.0075,1.007,1.0073,1.007,0.0,0.0,0.0,0.0,0.0,0.0,0.0,0.926,0.9474,0.8587,0.7856,0.7839,0.5828,0.4906,0.716,0.0,0.0,0.8257,0.6901,0.5551,0.5294,0.6737,0.762,0.6402,0.6757,0.7227,0.0,0.0,0.0,0.0,0.0,0.0,0.0,0.0,0.8103,0.9015,0.0,0.8492,0.0,0.0,0.0,0.0,0.0,0.0,0.0,0.0,0.8769,0.9065,0.9065,0.9043,0.8613,0.7943,0.8552,0.8129,0.6795,0.6294,0.0,0.0,0.0,0.0,0.0,0.0,0.5015,0.5684,0.503,0.4652,0.4689,0.6215,0.6749,0.6171,0.5359,0.486,0.4781,0.4881,0.4979,0.4922,0.4984,0.0,0.0,0.0,0.0,0.0,0.0,0.0,0.0,0.0,0.0,0.0,0.0,0.0,0.0,0.0,0.0,0.0,0.0,0.0,0.0,0.0075,0.0,0.0,0.0,0.0,0.0,0.0,0.0,0.0,0.0,0.0,0.4945,0.8076,1.0236,1.001,0.0,0.0,0.0,0.0,0.5029,0.5063,0.7573,0.9496,0.9474,0.9599,0.959,0.9322,0.0,0.0,0.474,0.4721,0.4694,0.4717,0.4735,0.5399,0.8175,0.8666,0.8695,0.855,0.8124,0.7709,0.7351,0.757,0.7878,1.0628,0.0,0.0,0.0,0.0,0.9709,1.0192,1.076,1.0753,1.0743,1.0701,1.0148,0.0,0.0,0.0,0.0,0.0,0.0,0.9795,1.0248,1.0482,1.0531,1.0486,0.9952,0.9597,0.936,0.9044,0.8671,0.8282,0.8127,0.7199,0.5552,0.0,0.0,0.0,0.0,0.6295,0.637,0.5738,0.5381,0.5378,0.5945,0.702,0.8594,0.7193,0.5922,0.4826,0.4892,0.4941,0.4981,0.5005,0.0,0.0,0.0,0.0,0.0,0.0,0.0,0.0,0.0,0.0,0.0,0.0,0.0,0.0,0.0,0.0,0.0,0.0,0.0,0.3202,0.1352,0.0,0.0,0.0,0.0,0.0,0.0,0.0,0.0,0.0,0.0,0.5064,0.811,0.9366,0.0,0.0,0.6522,0.6437,0.5542,0.4934,0.4941,0.0,0.0,0.0,0.8167,0.8894,0.6543,0.5381,0.4789,0.4774,0.4722,0.4706,0.4706,0.4581,0.4801,0.5619,0.7515,0.874,0.8717,0.8322,0.7997,0.7883,0.7983,0.8011,1.2712,1.1923,1.0906,1.0487,1.0559,1.0938,1.1401,1.1901,1.1901,1.1868,1.1767,1.1493,1.0898,1.0145,0.9798,0.0,0.0,0.0,1.0683,1.1087,1.1004,1.1004,1.1023,1.0605,1.0387,1.0377,0.9704,0.9378,0.9383,0.9083,0.8151,0.6719,0.0,0.0,0.666,0.6755,0.6921,0.711,0.6479,0.6143,0.6143,0.6554,0.7681,0.9492,0.8276,0.69,0.5479,0.5058,0.4593,0.3994,0.3355,0.3637,0.0,0.0,0.0,0.0,0.0,0.0,0.0,0.0,0.0,0.0,0.0,0.0577,0.0,0.0,0.0,0.0,0.1229,0.2797,0.475,0.3105,0.0,0.0,0.0,0.0,0.0,0.0,0.0,0.7148,0.5754,0.4833,0.5112,0.6917,0.7448,0.5365,0.6208,0.6994,0.6862,0.0,0.6852,0.6852,0.6809,0.678,0.6751,0.7302,0.7055,0.5146,0.4785,0.4795,0.4793,0.4744,0.4708,0.4694,0.4634,0.4562,0.4528,0.688,0.8846,0.869,0.7949,0.7509,0.8049,0.7751,0.7424,1.4361,1.4327,1.176,1.0755,1.0889,1.1551,1.1896,1.1942,1.1942,1.2431,1.3168,1.253,1.2235,1.2193,1.1475,0.0,1.0808,1.1005,1.1088,1.1057,1.0863,1.0919,1.1126,1.11,1.1059,1.1026,1.0427,1.0119,1.0113,0.9399,0.8688,0.7984,0.7899,0.7848,0.7781,0.7168,0.7225,0.7875,0.7217,0.6827,0.6715,0.7556,0.8417,0.9318,0.8538,0.7561,0.6479,0.5383,0.4116,0.2635,0.0914,0.1426,0.4473,0.0,0.0,0.0,0.0,0.0,0.0,0.0,0.0,0.0,0.0,0.0,0.0,0.0,0.0,0.0,0.302,0.0,0.4687,0.4778,0.0,0.0,0.0,0.5207,0.5475,0.8031,0.9812,0.9874,0.0,0.0,0.5108,0.0,0.5495,0.5495,0.8098,0.997,0.9822,0.9671,0.9801,0.9597,0.9727,0.9717,0.9309,0.7378,0.5763,0.5545,0.5179,0.5227,0.4882,0.4755,0.4717,0.4706,0.4704,0.4843,0.4837,0.6973,0.8503,0.8243,0.7179,0.6567,0.7502,0.6964,0.6494,1.4671,1.4709,1.3671,1.3045,1.2834,1.3002,1.281,1.2368,1.2361,1.2495,1.2681,1.2511,1.2496,1.2582,1.2543,1.2495,1.2417,1.2529,1.2512,1.2417,1.2373,1.2365,1.2347,1.1791,1.1514,1.1474,1.075,1.0483,1.0591,0.9895,0.9511,0.946,0.892,0.8349,0.7831,0.818,0.8472,0.8724,0.799,0.7098,0.6036,0.6701,0.7392,0.8027,0.6967,0.6539,0.6816,0.5541,0.4627,0.4188,0.154,0.0371,0.1172,0.3691,0.0,0.0,0.0,0.0,0.0,0.0,0.0,0.0,0.0,0.0327,0.1155,0.0,0.1075,0.0,0.2288,0.1201,0.123,0.3526,0.0,0.0,0.4969,0.6134,0.8667,0.7412,0.6333,0.6346,0.5601,0.5089,0.5089,0.7372,0.8998,0.9017,0.9584,0.9999,0.983,0.9801,0.9801,0.9808,0.9815,0.978,0.9658,0.911,0.8458,0.8528,0.8425,0.7584,0.5191,0.4785,0.4757,0.472,0.4706,0.548,0.7319,0.6736,0.5629,0.5569,0.5951,0.6103,0.5364,0.5626,0.59,1.506,1.5116,1.4888,1.4526,1.4029,1.3971,1.373,1.3415,1.3425,1.3447,1.3468,1.3202,1.3123,1.318,1.3294,1.3112,1.2732,1.3128,1.3105,1.2741,1.262,1.263,1.2741,1.2341,1.213,1.2131,1.1432,1.114,1.1139,1.0483,1.0182,1.0201,0.9601,0.9092,0.8728,0.8863,0.8981,0.8997,0.8618,0.7725,0.6284,0.6919,0.7303,0.7329,0.7012,0.7052,0.7541,0.5787,0.4484,0.3715,0.1352,0.0,0.0,0.1797,0.2012,0.0,0.0,0.0,0.0,0.0,0.0,0.0,0.0,0.0,0.0,0.0,0.2423,0.0,0.1115,0.0624,0.2127,0.5369,0.6756,0.5115,0.5038,0.5851,0.7725,0.6231,0.5089,0.5089,0.5089,0.5089,0.5185,0.8088,1.0197,1.0197,1.0178,1.0113,0.9996,0.9944,0.9927,0.9922,0.9943,0.9857,0.974,0.9698,0.9668,0.9621,0.9546,0.8464,0.5404,0.4795,0.4777,0.4722,0.4706,0.5134,0.6561,0.5721,0.4513,0.4592,0.5079,0.5666,0.6059,0.565,0.4936,1.5315,1.5344,1.5565,1.5325,1.4785,1.467,1.455,1.4452,1.4503,1.4592,1.4637,1.4122,1.3881,1.3886,1.3897,1.3425,1.264,1.3384,1.333,1.2627,1.2426,1.2456,1.2626,1.2642,1.2626,1.261,1.2171,1.1906,1.1763,1.1108,1.0727,1.0624,1.013,0.9858,0.9752,0.932,0.9117,0.9145,0.9101,0.8413,0.6992,0.7484,0.7518,0.7048,0.7531,0.8011,0.835,0.623,0.4411,0.306,0.1099,0.0,0.0,0.0,0.0,0.0,0.0,0.0,0.0,0.0,0.0,0.0,0.0,0.0,0.0,0.2993,0.359,0.1465,0.0898,0.1874,0.4841,0.7847,0.8433,0.5488,0.5098,0.5093,0.51,0.5098,0.51,0.51,0.5093,0.5089,0.5224,0.8081,1.0201,1.0202,1.0194,1.019,1.0191,1.014,1.0111,1.0096,1.0076,0.9936,0.9754,0.9698,0.9675,0.955,0.9513,0.8536,0.6059,0.5549,0.5454,0.5368,0.5062,0.4734,0.4552,0.457,0.4499,0.4496,0.4561,0.528,0.6926,0.5885,0.4255,1.4918,1.4949,1.5239,1.533,1.5257,1.5226,1.486,1.4244,1.4151,1.4287,1.4518,1.4415,1.4356,1.4283,1.4329,1.425,1.4087,1.4304,1.3984,1.3236,1.3188,1.2864,1.2323,1.2292,1.2298,1.2282,1.2178,1.2215,1.2336,1.156,1.1249,1.1379,1.0704,1.0089,0.9593,0.0,0.0,0.0,0.9399,0.865,0.7721,0.723,0.6982,0.6922,0.6531,0.0,0.8926,0.7162,0.6192,0.6234,0.2297,0.0,0.0,0.0,0.0,0.0,0.0,0.0,0.0,0.0,0.0,0.0,0.3203,0.2635,0.3934,0.2223,0.3005,0.7734,0.5801,0.4395,0.5039,0.5664,0.582,0.5195,0.5094,0.5104,0.5098,0.5091,0.5096,0.5096,0.5097,0.511,0.5467,0.8111,1.0219,1.022,1.0197,1.0197,1.0197,1.019,1.0171,1.0115,0.9983,0.9846,0.9725,0.9706,0.9691,0.9663,0.9577,0.9237,0.8623,0.8478,0.8527,0.8349,0.6438,0.4701,0.4664,0.4586,0.4491,0.4482,0.448,0.4654,0.5109,0.4794,0.4284,1.5064,0.0,1.4936,1.4905,0.0,1.4967,1.4848,1.4655,1.4722,1.4938,1.525,1.4922,1.4841,1.499,1.5006,1.4817,1.4519,1.4837,1.4413,1.3402,1.3391,1.2999,1.2313,1.2308,1.2298,1.2313,1.2328,1.2359,1.2378,1.2052,1.1927,1.1923,1.1333,1.0864,1.0487,1.0414,1.0135,0.9595,0.9634,0.9064,0.7933,0.7161,0.6839,0.6878,0.0,0.0,0.0,0.0,0.0,0.0,0.0,0.0,0.0,0.0,0.0,0.0,0.0,0.0731,0.2443,0.483,0.5909,0.5131,0.4277,0.4147,0.5051,0.3503,0.3957,0.7285,0.6094,0.5098,0.5098,0.5098,0.5098,0.5098,0.5096,0.5093,0.5094,0.5097,0.5098,0.5098,0.5093,0.5653,0.7472,0.9061,1.0213,1.0251,1.0179,1.015,1.015,1.0185,1.0183,1.0102,1.0025,0.9957,0.9893,0.976,0.9702,0.9687,0.9579,0.9495,0.95,0.95,0.9491,0.9228,0.6857,0.4708,0.4704,0.4642,0.4571,0.4524,0.4485,0.4491,0.4448,0.4428,0.4367,1.5486,1.5311,1.4834,1.4651,1.4635,1.4527,1.4674,1.5028,0.0,0.0,0.0,1.5496,1.5449,1.5732,1.5697,1.5371,1.4924,1.5352,1.4933,1.3789,1.3642,1.3219,1.2581,1.244,1.2399,1.2399,1.2429,1.2419,1.2297,1.2393,1.2409,1.227,1.1917,1.1657,1.15,1.1114,1.035,0.9253,0.9893,0.9559,0.8144,0.7523,0.7164,0.7104,0.6644,0.6621,0.7084,0.7453,0.7725,0.7935,0.7454,0.7824,0.9156,0.6532,0.3699,0.1133,0.0895,0.2134,0.4926,0.7654,0.8058,0.5271,0.5088,0.51,0.5089,0.5089,0.5093,0.5097,0.5098,0.5098,0.5098,0.5098,0.5371,0.5918,0.6016,0.6055,0.6055,0.6016,0.6191,0.6016,0.6191,0.7051,0.9727,1.0215,1.0312,1.0273,1.0186,1.0102,1.01,1.0147,1.0152,1.01,1.0078,1.0086,1.0068,0.993,0.9782,0.9793,0.965,0.9552,0.9508,0.95,0.95,0.9496,0.7233,0.601,0.5548,0.5141,0.4696,0.455,0.4513,0.448,0.4477,0.4451,0.4419,1.6085,1.5928,1.5476,1.5215,1.506,1.4672,1.4533,1.4674,1.5536,1.6066,1.6258,1.6221,1.6244,1.6296,1.6333,1.6352,1.6299,1.6339,1.5961,0.0,1.4574,1.3897,1.3235,1.2603,1.2307,1.2297,1.2323,1.2323,1.2302,1.2323,1.2307,1.2297,1.2224,1.1996,1.1558,1.097,1.0365,0.9805,1.0291,1.0014,0.8966,0.8845,0.8462,0.7875,0.7644,0.7393,0.7102,0.6799,0.6874,0.7371,0.6907,0.6946,0.7539,0.592,0.4678,0.428,0.4317,0.4617,0.504,0.5558,0.5596,0.5176,0.5087,0.5098,0.5087,0.5089,0.5093,0.5098,0.5176,0.5098,0.5098,0.5234,0.6426,0.8984,0.9512,0.9551,0.9395,0.9375,0.9336,0.9316,0.957,0.9512,1.0117,1.0312,1.0312,1.0293,1.0218,1.0157,1.0129,1.01,1.01,1.0096,1.0094,1.0094,1.0086,1.0069,1.0019,1.0056,0.984,0.9665,0.9561,0.9536,0.9532,0.9517,0.9026,0.8749,0.84,0.6372,0.518,0.4806,0.4637,0.4505,0.4485,0.4488,0.446,1.6636,1.6525,1.6014,1.555,1.5162,1.4697,1.4705,1.5059,1.5536,1.5754,1.5812,1.5854,1.6066,1.6382,1.6409,1.6448,1.6541,1.649,1.6153,1.5576,1.4837,1.4133,1.3435,1.2743,1.2409,1.2409,1.2409,1.2409,1.2419,1.2409,1.2419,1.2419,1.2373,1.2164,1.1765,1.1441,1.0824,1.0003,1.0278,1.0006,0.9121,0.9087,0.8739,0.8014,0.7805,0.7288,0.6487,0.6378,0.642,0.6573,0.5951,0.6098,0.7177,0.5766,0.4907,0.4907,0.4964,0.5024,0.5094,0.5099,0.5099,0.5118,0.5506,0.5568,0.5129,0.5104,0.51,0.5179,0.6691,0.7872,0.793,0.793,0.8594,1.0098,1.0312,1.0312,1.0312,1.0312,1.0312,1.0312,1.0312,1.0312,1.0312,1.0312,1.0312,1.0293,1.0242,1.0193,1.0152,1.0131,1.0105,1.0108,1.0099,1.0094,1.0094,1.0103,1.0102,1.0101,0.9998,0.9913,0.9828,0.9796,0.9762,0.9781,0.9841,0.9746,0.9426,0.8149,0.6776,0.5518,0.4874,0.4581,0.4488,0.4465,0.4437,1.7229,1.7149,1.659,1.5963,1.5295,1.4883,1.4924,1.5269,1.5299,1.5359,1.5404,1.5522,1.5883,1.6371,1.6328,1.6396,1.6488,1.6423,1.6195,1.5744,1.4952,1.4273,1.3695,1.2899,1.2514,1.2514,1.2514,1.2514,1.2514,1.2514,1.2514,1.2499,1.2483,1.2351,1.2114,1.1761,1.114,1.0302,1.0072,0.9683,0.9133,0.9087,0.8825,0.8295,0.8042,0.746,0.651,0.649,0.6447,0.6269,0.5536,0.5598,0.6604,0.5585,0.4907,0.4907,0.4907,0.4961,0.5104,0.5341,0.536,0.5153,0.6023,0.6484,0.6232,0.5498,0.5104,0.5455,0.8129,1.0099,1.0098,1.0176,1.0273,1.0312,1.0312,1.0312,1.0312,1.0312,1.0312,1.0312,1.0312,1.0312,1.0312,1.0312,1.0312,1.0312,1.026,1.0202,1.0194,1.015,1.0119,1.0108,1.011,1.0103,1.0111,1.0094,1.0097,1.0103,1.0092,1.0075,1.0068,1.0046,0.9995,0.9973,0.9992,0.9894,0.9627,0.9209,0.8262,0.6882,0.62,0.5816,0.5825,0.5738,0.511,1.7981,1.7766,1.7342,1.6589,1.5697,1.5435,1.5086,1.4727,1.4794,1.5041,1.5388,1.5869,1.6207,1.6384,1.6328,1.6367,1.6501,1.6436,1.6374,1.6247,1.5097,1.4491,1.4347,1.3136,1.2514,1.2514,1.2514,1.2514,1.2514,1.2514,1.2514,1.2534,1.2668,1.275,1.2604,1.158,1.0982,1.0953,0.9643,0.8993,0.9093,0.9087,0.9047,0.9005,0.8948,0.8668,0.7921,0.748,0.72,0.7117,0.6415,0.5687,0.5151,0.4953,0.4922,0.4999,0.496,0.4966,0.5139,0.6018,0.617,0.5327,0.6637,0.8062,0.9171,0.6847,0.5129,0.5778,0.8299,1.0107,1.0212,1.0219,1.0236,1.029,1.0293,1.0312,1.0312,1.0312,1.0312,1.0312,1.0312,1.0312,1.0312,1.0312,1.0312,1.0293,1.0248,1.0194,1.0212,1.0193,1.0162,1.0119,1.0106,1.0102,1.0103,1.0094,1.0097,1.0103,1.0096,1.0096,1.0092,1.0111,1.0075,1.0012,1.0003,0.9964,0.9846,0.9578,0.8971,0.811,0.8021,0.87,0.866,0.8312,0.7372,1.8163,1.8036,1.7783,1.7243,1.6589,1.6236,1.6016,1.5865,1.5691,1.5756,1.5931,1.605,1.6151,1.6291,1.6287,1.634,1.6421,1.645,1.6488,1.6475,1.5574,1.4968,1.4505,1.3573,1.2894,1.252,1.2514,1.2514,1.2514,1.2514,1.2558,1.2668,1.2763,1.2906,1.2955,1.1722,1.1102,1.122,0.9766,0.9023,0.9099,0.9087,0.9087,0.9087,0.9087,0.882,0.8322,0.8437,0.8213,0.7368,0.6972,0.619,0.4862,0.4864,0.5777,0.7483,0.6847,0.5905,0.5059,0.6628,0.7756,0.8016,0.8212,0.8885,0.994,0.8806,0.8059,0.8243,0.9348,1.0152,1.0193,1.0197,1.02,1.0233,1.024,1.0254,1.0293,1.0312,1.0312,1.0312,1.0312,1.0312,1.0312,1.0312,1.0312,1.0293,1.026,1.0261,1.0261,1.0251,1.021,1.0129,1.0101,1.011,1.0106,1.0102,1.0102,1.0106,1.011,1.0096,1.0096,1.0096,1.0078,1.0017,1.0006,0.9998,0.9973,0.9853,0.9482,0.8963,0.877,0.9201,0.9102,0.905,0.8265,1.8301,1.8183,1.8029,1.7732,1.7297,1.6994,1.6789,1.6694,1.6475,1.6339,1.6264,1.6174,1.615,1.6182,1.6248,1.6316,1.6398,1.6448,1.6517,1.6489,1.5899,1.5339,1.4821,1.4137,1.3447,1.2868,1.2799,1.2688,1.2546,1.2514,1.2577,1.2706,1.2829,1.3006,1.3076,1.1867,1.1268,1.125,0.9881,0.9087,0.9087,0.9087,0.9087,0.9087,0.9087,0.8893,0.8523,0.9173,0.906,0.7976,0.7733,0.7196,0.6236,0.5788,0.683,0.9244,0.8223,0.7033,0.6255,0.7571,0.8877,0.9892,0.9508,0.945,0.9958,1.0094,1.0119,1.0036,1.0104,1.0133,1.0156,1.0191,1.0197,1.0197,1.0197,1.0217,1.0254,1.0266,1.0293,1.0293,1.0312,1.0312,1.0312,1.0312,1.0312,1.0312,1.0311,1.0307,1.0304,1.0261,1.0214,1.0119,1.0096,1.0103,1.0097,1.0103,1.0097,1.0104,1.011,1.0096,1.0096,1.0096,1.0078,1.0022,1.0012,0.9998,0.9981,0.9919,0.9846,0.9676,0.9421,0.9186,0.912,0.9104,0.9029,1.8548,1.8208,1.8169,1.7954,1.7566,1.7497,1.7055,1.6601,1.676,1.6524,1.6076,1.6325,1.6323,1.6097,1.6151,1.6275,1.6382,1.6425,1.6463,1.6451,1.5931,1.5592,1.5513,1.4853,1.4142,1.3399,1.3352,1.3083,1.2546,1.2514,1.2514,1.2554,1.2883,1.3084,1.2947,1.1987,1.1399,1.1295,1.0014,0.9161,0.9121,0.9121,0.9138,0.9104,0.9087,0.9104,0.9148,0.9477,0.9564,0.9383,0.8774,0.8703,0.9163,0.7984,0.8014,0.9392,0.8276,0.8013,0.909,0.8917,0.9061,0.9891,0.9938,0.9959,1.0071,1.0094,1.0129,1.0188,1.0134,1.0098,1.0131,1.0156,1.0191,1.0194,1.0196,1.0187,1.019,1.0205,1.0235,1.0269,1.0293,1.0312,1.0312,1.0312,1.0312,1.0312,1.0312,1.0312,1.0303,1.0217,1.0145,1.011,1.0113,1.0098,1.0094,1.01,1.0101,1.0105,1.0105,1.0096,1.0096,1.0089,1.0058,1.003,1.0014,0.9998,0.9981,0.9931,0.9833,0.9695,0.9527,0.9343,0.914,0.9097,0.9044,1.8445,1.8208,1.8341,1.8227,1.8007,1.8089,1.7925,1.7555,1.7485,1.705,1.6437,1.6447,1.6202,1.5725,1.6011,1.6262,1.6463,1.6503,1.6543,1.6523,1.6328,1.6022,1.5592,1.5323,1.4596,1.3636,1.3478,1.3162,1.2578,1.2514,1.2514,1.2538,1.2754,1.2904,1.2778,1.2253,1.1914,1.1834,1.1009,1.033,0.9829,0.9807,0.9588,0.9144,0.9087,0.9133,0.9194,0.9274,0.9363,0.9479,0.9295,0.9342,0.961,0.9209,0.9126,0.9652,0.9225,0.917,0.9666,0.9566,0.9555,0.9855,0.9973,1.0015,1.0082,1.0094,1.0121,1.0131,1.0127,1.0125,1.0147,1.0149,1.0138,1.0143,1.0164,1.0197,1.0197,1.0197,1.0198,1.0235,1.0273,1.0312,1.0312,1.0312,1.0312,1.0312,1.0312,1.0312,1.0307,1.0266,1.0229,1.0213,1.0214,1.0215,1.0234,1.0142,1.0101,1.0099,1.0096,1.0099,1.0099,1.0096,1.0073,1.0082,1.0038,1.0009,0.9995,0.9946,0.9846,0.9772,0.9593,0.9421,0.9123,0.9138,0.9118,1.8523,1.8411,1.8478,1.842,1.8321,1.8439,1.842,1.8285,1.8186,1.7744,1.7212,1.7071,1.6759,1.6353,1.6349,1.6516,1.672,1.664,1.6567,1.6596,1.6594,1.6357,1.5991,1.5912,1.5311,1.4248,1.3679,1.3241,1.282,1.2599,1.2514,1.2524,1.269,1.2839,1.2817,1.2431,1.2237,1.2177,1.1703,1.0993,1.0301,1.0198,0.9835,0.923,0.9087,0.9123,0.9162,0.9123,0.9201,0.9429,0.9559,0.9638,0.9732,0.9775,0.9801,0.9801,0.9782,0.9801,0.9808,0.9843,0.9825,0.98,0.9906,0.9999,1.0082,1.0094,1.0094,1.0094,1.0094,1.0131,1.0149,1.0145,1.0117,1.0138,1.0162,1.0197,1.0197,1.0197,1.0219,1.0238,1.0267,1.0293,1.0312,1.0312,1.0312,1.0312,1.0312,1.0312,1.031,1.0307,1.0324,1.0324,1.0302,1.0301,1.0299,1.0239,1.0235,1.0227,1.0168,1.0148,1.0114,1.0108,1.0094,1.0106,1.0066,1.0035,0.9979,0.9933,0.9872,0.9815,0.9717,0.9567,0.9354,0.9199,0.9159,1.8784,1.8745,1.8567,1.8517,1.8503,1.8517,1.8498,1.8528,1.8679,1.8471,1.8038,1.8121,1.7916,1.7755,1.7182,1.7089,1.7124,1.6809,1.6604,1.6596,1.6594,1.6594,1.6515,1.6499,1.6133,1.5339,1.4137,1.3494,1.3384,1.2815,1.2514,1.2528,1.2678,1.2829,1.3066,1.2548,1.2343,1.2353,1.192,1.1177,1.0348,1.0324,0.9956,0.9254,0.9121,0.9087,0.9087,0.9087,0.9182,0.9385,0.9525,0.9657,0.9761,0.9801,0.9801,0.9801,0.9801,0.9801,0.9801,0.9789,0.9796,0.9815,0.9854,0.9957,1.0074,1.0094,1.0098,1.0102,1.0102,1.0102,1.0131,1.0175,1.019,1.0196,1.0197,1.0197,1.0197,1.0197,1.0216,1.0285,1.0293,1.0312,1.0312,1.0311,1.031,1.0312,1.0312,1.0312,1.0312,1.031,1.0305,1.0324,1.0324,1.0324,1.0324,1.0323,1.0356,1.0386,1.0296,1.0239,1.0163,1.0146,1.0103,1.0109,1.0068,1.0019,0.9987,0.9942,0.9863,0.9813,0.9746,0.9721,0.9595,0.9417,0.9209,1.8917,1.8803,1.8741,1.8702,1.8702,1.8702,1.8702,1.8741,1.8931,1.8623,1.8108,1.8317,1.8208,1.7886,1.7838,1.7683,1.7324,1.7291,1.7072,1.6673,1.6594,1.6594,1.6594,1.6594,1.6231,1.5466,1.4169,1.3505,1.3399,1.2846,1.2514,1.2524,1.2558,1.26,1.2726,1.2756,1.2866,1.2899,1.2905,1.2552,1.1816,1.127,1.0659,0.9904,0.9375,0.9087,0.9087,0.9087,0.9199,0.939,0.9434,0.9569,0.975,0.9801,0.9801,0.9801,0.9801,0.9801,0.9801,0.9801,0.9801,0.9808,0.9817,0.9926,1.007,1.0094,1.011,1.015,1.0159,1.0178,1.0161,1.0188,1.0352,1.0217,1.0197,1.0197,1.0197,1.0197,1.0213,1.0228,1.0265,1.0293,1.0312,1.0292,1.0311,1.031,1.0312,1.0312,1.043,1.07,1.0324,1.0324,1.0324,1.0793,1.1105,1.1457,1.1573,1.1274,1.0957,1.0735,1.0569,1.015,1.0114,1.0185,1.0144,1.0119,1.0068,0.9954,0.9879,0.9818,0.9782,0.9765,0.9761,0.9623,0.9399,1.9243,1.8912,1.8841,1.8803,1.8803,1.8803,1.8803,1.8836,1.9026,1.8836,1.8571,1.8779,1.8785,1.8566,1.8683,1.8331,1.7726,1.7726,1.729,1.6688,1.6594,1.6594,1.6594,1.6594,1.6404,1.5785,1.4569,1.3916,1.3858,1.2978,1.2528,1.2591,1.2616,1.2697,1.2794,1.3033,1.3192,1.3295,1.3468,1.3242,1.2576,1.2058,1.1443,1.0641,0.9634,0.9438,0.9835,0.9471,0.9199,0.9358,0.9464,0.9628,0.9775,0.9801,0.9801,0.9801,0.9801,0.9801,0.9801,0.9801,0.9801,0.9801,0.9801,0.985,0.9973,1.0041,1.0131,1.015,1.019,1.0197,1.0312,1.1552,1.1978,1.2074,1.0912,1.0312,1.0197,1.0197,1.0197,1.02,1.0235,1.0237,1.026,1.0292,1.0312,1.031,1.031,1.119,1.1619,1.23,1.2142,1.2141,1.259,1.2746,1.2414,1.259,1.2825,1.2333,1.1761,1.152,1.1321,1.0487,1.0116,1.0472,1.0571,1.0584,1.0535,1.0133,0.9936,0.9875,0.9962,0.9801,0.979,0.9776,0.9599,1.9711,1.9111,1.8912,1.8841,1.8841,1.8822,1.8841,1.886,1.9064,1.924,1.9398,1.9498,1.9671,1.9813,1.9566,1.9076,1.8408,1.7978,1.7464,1.688,1.6657,1.6594,1.6594,1.6594,1.6546,1.631,1.5232,1.4679,1.4569,1.331,1.2661,1.2899,1.2847,1.2935,1.3149,1.3278,1.3379,1.3493,1.3556,1.3242,1.2663,1.2465,1.2162,1.1443,1.0256,1.0048,1.0809,1.014,0.9437,0.9366,0.9569,0.9721,0.9779,0.9801,0.9801,0.9801,0.9801,0.9801,0.9801,0.9801,0.9801,0.9801,0.9801,0.9801,0.9846,0.996,1.0068,1.0158,1.0633,1.0808,1.1411,1.3081,1.4706,1.4745,1.2074,1.0488,1.0544,1.0525,1.0197,1.0197,1.0199,1.02,1.022,1.0259,1.0488,1.0898,1.0838,1.1637,1.3841,1.4524,1.5129,1.4973,1.4406,1.427,1.382,1.3859,1.4055,1.3742,1.2995,1.2384,1.2127,1.132,1.126,1.1523,1.1457,1.1335,1.1239,1.1123,1.0752,1.0643,1.0475,1.004,0.9816,0.9802,0.9895,1.9711,1.9116,1.9045,1.9026,1.9011,1.9026,1.9026,1.9064,1.9273,1.9402,1.9584,1.9962,2.017,2.0292,2.0358,2.0034,1.9327,1.8711,1.8062,1.7415,1.6801,1.6625,1.6594,1.6594,1.6594,1.6452,1.5735,1.5355,1.5228,1.3873,1.334,1.3507,1.3038,1.2931,1.3113,1.3253,1.332,1.3395,1.3549,1.3528,1.326,1.2749,1.2421,1.2196,1.1653,1.1365,1.1441,1.1115,1.0317,0.9373,0.9464,0.9661,0.9783,0.9797,0.9801,0.9801,0.9801,0.9801,0.9801,0.9801,0.9801,0.9801,0.9971,0.9801,0.9801,0.9846,0.9966,1.0493,1.2148,1.379,1.4018,1.4706,1.5267,1.4899,1.2461,1.1339,1.2771,1.1724,1.0197,1.0197,1.0352,1.0468,1.0531,1.0664,1.1426,1.2812,1.2383,1.158,1.4408,1.5402,1.5402,1.5402,1.511,1.5246,1.5246,1.5246,1.5227,1.5071,1.4326,1.3307,1.3057,1.2614,1.3256,1.4045,1.3488,1.3259,1.3167,1.3074,1.2487,1.1803,1.2301,1.2387,1.0536,0.9868,1.0109,1.9943,1.9116,1.9116,1.9116,1.9116,1.9116,1.9116,1.912,1.9254,1.9387,1.9584,2.0013,2.0291,2.041,2.0663,2.0431,1.9815,1.9372,1.8615,1.7652,1.6941,1.6625,1.6594,1.6594,1.6594,1.6531,1.5927,1.5624,1.5339,1.4185,1.3733,1.3742,1.3263,1.3075,1.332,1.3362,1.3419,1.3469,1.3557,1.3605,1.357,1.3208,1.3033,1.2971,1.2872,1.2612,1.2463,1.2183,1.1422,1.0389,0.9759,0.9464,0.9658,0.9761,0.9801,0.9801,0.9801,0.9801,0.9801,0.9801,0.9801,1.0027,1.0476,1.0971,1.0759,1.0305,0.9975,1.1194,1.3665,1.4948,1.527,1.5286,1.5286,1.5093,1.3489,1.3179,1.517,1.3601,1.2539,1.2345,1.2345,1.2326,1.2326,1.2328,1.3325,1.4434,1.3828,1.3965,1.5014,1.5228,1.5402,1.5402,1.5402,1.5402,1.5402,1.5402,1.5402,1.5383,1.5168,1.4188,1.4002,1.3783,1.4304,1.4957,1.5053,1.4993,1.456,1.4256,1.4003,1.3819,1.4541,1.384,1.1884,1.0822,1.0933,2.0262,1.9116,1.9116,1.9116,1.9116,1.9116,1.9116,1.9116,1.9232,1.9384,1.9621,1.994,2.0291,2.0461,2.0696,2.0478,1.9957,1.9767,1.8852,1.7857,1.7004,1.6594,1.6594,1.6594,1.6594,1.6531,1.5959,1.5814,1.5529,1.4438,1.3962,1.4031,1.3573,1.3336,1.3462,1.354,1.3597,1.3581,1.3589,1.3605,1.3605,1.3518,1.3482,1.3515,1.3498,1.3534,1.3494,1.3173,1.2465,1.1776,1.0276,0.9806,0.987,1.0025,1.0465,1.0655,1.0785,1.058,0.9953,1.0046,0.9986,1.0153,1.1647,1.2904,1.23,1.1281,1.0785,1.186,1.4005,1.5056,1.5272,1.5286,1.5286,1.5228,1.5093,1.5209,1.5286,1.5286,1.5286,1.5286,1.5209,1.5267,1.5286,1.5304,1.5287,1.4977,1.4609,1.4844,1.5171,1.5305,1.5402,1.5402,1.5402,1.5402,1.5402,1.5402,1.5402,1.5402,1.5402,1.497,1.4953,1.4886,1.5016,1.5236,1.517,1.5133,1.4993,1.4861,1.4824,1.4787,1.4815,1.4011,1.2944,1.263,1.2552,2.0268,1.9116,1.9116,1.9116,1.9116,1.9116,1.9116,1.9153,1.9596,1.9759,1.999,2.0375,2.0611,2.0696,2.0761,2.0684,2.0462,2.0004,1.9041,1.7746,1.6928,1.6628,1.661,1.6594,1.6594,1.6546,1.6467,1.6386,1.6101,1.549,1.4989,1.4659,1.4124,1.3707,1.3455,1.3576,1.3605,1.3605,1.3605,1.3605,1.3605,1.3605,1.3613,1.3638,1.3669,1.3763,1.3848,1.3731,1.3555,1.3071,1.2002,1.1112,1.1403,1.2597,1.3244,1.3295,1.3328,1.246,1.0681,1.0989,1.1133,1.0432,1.161,1.2891,1.412,1.2705,1.201,1.2609,1.4015,1.5124,1.5275,1.5286,1.5286,1.5286,1.5286,1.5286,1.5286,1.5286,1.5286,1.5286,1.5286,1.5286,1.5286,1.5299,1.5306,1.5324,1.5348,1.5391,1.5407,1.5403,1.5402,1.5402,1.5402,1.5402,1.5402,1.5421,1.542,1.5418,1.5417,1.5416,1.5419,1.5409,1.5354,1.5278,1.5207,1.5155,1.5119,1.5089,1.4976,1.4996,1.4982,1.4487,1.4069,1.4008,1.3871,1.9986,1.913,1.9116,1.9116,1.9116,1.9116,1.9116,1.9157,1.9417,1.9726,2.0008,2.0339,2.0544,2.0794,2.081,2.081,2.0652,2.0099,1.923,1.8219,1.7462,1.6957,1.6625,1.6594,1.6594,1.6594,1.6594,1.6594,1.642,1.5984,1.5464,1.5305,1.4546,1.4053,1.3767,1.3674,1.3614,1.3605,1.3605,1.3605,1.3605,1.3605,1.3605,1.3638,1.37,1.3801,1.3888,1.3888,1.3915,1.3757,1.3162,1.2664,1.2798,1.3924,1.4606,1.4706,1.4669,1.4094,1.2794,1.2775,1.3017,1.2125,1.2607,1.3416,1.4321,1.3887,1.3564,1.3664,1.4376,1.5084,1.5265,1.5286,1.5286,1.5286,1.5286,1.5286,1.5286,1.5286,1.5286,1.5286,1.5286,1.5286,1.53,1.5286,1.5283,1.5297,1.5302,1.5357,1.5406,1.5402,1.5402,1.5402,1.5402,1.5402,1.5402,1.542,1.5416,1.5412,1.5405,1.5404,1.5413,1.541,1.5407,1.5322,1.5258,1.5159,1.5112,1.5108,1.5094,1.5034,1.5013,1.5017,1.4894,1.4512,1.4372,1.9798,1.9116,1.9116,1.9116,1.9101,1.9139,1.9176,1.9176,1.9273,1.9711,2.0008,2.0096,2.0477,2.0728,2.081,2.081,2.062,2.0099,1.9325,1.8582,1.7904,1.7241,1.6752,1.6594,1.6594,1.6594,1.6594,1.6594,1.6436,1.6067,1.5812,1.5682,1.4973,1.442,1.4266,1.3965,1.3712,1.3624,1.3605,1.363,1.3638,1.3638,1.3638,1.3653,1.3723,1.3816,1.3881,1.3903,1.3955,1.4086,1.4027,1.3976,1.4065,1.4274,1.458,1.4574,1.4613,1.4484,1.4261,1.4428,1.4502,1.4685,1.41,1.4027,1.4555,1.4681,1.4541,1.4593,1.4863,1.4973,1.5231,1.5286,1.5286,1.5286,1.5286,1.5286,1.5286,1.5286,1.5286,1.5286,1.5286,1.5286,1.5295,1.5293,1.5292,1.5287,1.5292,1.5304,1.537,1.5402,1.5402,1.5402,1.5402,1.5402,1.5402,1.5421,1.5417,1.5505,1.5494,1.6095,1.5956,1.5605,1.5622,1.5392,1.5297,1.5202,1.512,1.5112,1.5083,1.5026,1.5021,1.5021,1.497,1.4904,1.4837,2.0161,1.9116,1.9116,1.9116,1.9139,1.9328,1.942,1.9515,1.9892,2.0206,2.034,2.0561,2.0662,2.081,2.081,2.081,2.0668,2.0178,1.9451,1.8694,1.8062,1.7399,1.672,1.6594,1.6594,1.6594,1.6594,1.6594,1.662,1.6467,1.6168,1.5754,1.5577,1.519,1.4546,1.4176,1.4144,1.3926,1.3795,1.3759,1.3792,1.3704,1.3694,1.3694,1.3746,1.3834,1.3863,1.3896,1.3962,1.4075,1.4177,1.4216,1.4216,1.4188,1.4161,1.4236,1.4505,1.4706,1.4706,1.4706,1.4734,1.4718,1.4526,1.4488,1.4728,1.4769,1.4774,1.4794,1.4827,1.4937,1.526,1.5277,1.5286,1.5286,1.5286,1.5286,1.5286,1.5286,1.5286,1.5286,1.5286,1.5286,1.5293,1.5283,1.5295,1.5292,1.5285,1.5306,1.5348,1.5389,1.5402,1.5402,1.5402,1.5402,1.5402,1.5421,1.5437,1.5641,1.6059,1.7654,1.734,1.6268,1.5891,1.6428,1.59,1.5257,1.5204,1.5142,1.5101,1.5072,1.5038,1.5097,1.4982,1.4953,1.4873,2.0465,1.9624,1.9624,1.942,1.9149,1.9236,1.9384,1.9548,1.9803,2.0135,2.0359,2.0545,2.0695,2.0761,2.081,2.081,2.0684,2.051,1.9688,1.882,1.8315,1.7604,1.6752,1.6625,1.6594,1.6594,1.6594,1.6672,1.6776,1.6659,1.6495,1.6372,1.6216,1.5791,1.5365,1.5221,1.504,1.4736,1.4434,1.4234,1.4206,1.3978,1.375,1.3773,1.3778,1.3834,1.3881,1.3888,1.3969,1.41,1.4223,1.4362,1.4429,1.4411,1.4306,1.435,1.4557,1.4706,1.4706,1.4706,1.4714,1.4744,1.4729,1.4744,1.4765,1.477,1.477,1.4799,1.4799,1.4853,1.5022,1.5168,1.5277,1.5286,1.5286,1.5286,1.5286,1.5286,1.5286,1.5286,1.5286,1.5286,1.5286,1.5293,1.53,1.5295,1.5294,1.5307,1.5343,1.5371,1.5389,1.5402,1.5402,1.5402,1.5402,1.5421,1.6045,1.6308,1.6878,1.8472,1.8997,1.8061,1.8081,1.8546,1.7548,1.6062,1.5287,1.5236,1.5174,1.5391,1.5963,1.6221,1.5401,1.4978,1.5149,2.0843,2.0262,2.0161,1.9783,1.9319,1.9201,1.9347,1.9566,1.9693,2.0032,2.0427,2.0495,2.0613,2.0761,2.081,2.081,2.081,2.0778,2.0052,1.9214,1.8915,1.8188,1.7149,1.6799,1.6783,1.6594,1.6594,1.6712,1.6786,1.6776,1.6828,1.6803,1.6577,1.6436,1.6303,1.6055,1.6064,1.5736,1.5383,1.5055,1.4873,1.4366,1.3988,1.3966,1.3903,1.3848,1.3888,1.3888,1.3959,1.4072,1.4183,1.435,1.4629,1.4706,1.4706,1.4706,1.4706,1.4706,1.4706,1.4706,1.4712,1.4727,1.4705,1.4749,1.4789,1.4794,1.4794,1.4799,1.4799,1.4804,1.4875,1.5047,1.5202,1.5286,1.5286,1.5286,1.5286,1.5286,1.5286,1.5286,1.5286,1.5286,1.5286,1.5286,1.5293,1.5295,1.5295,1.5297,1.5314,1.5338,1.5369,1.5407,1.5402,1.5402,1.5402,1.5402,1.6475,1.774,1.8446,1.9699,2.0089,2.0031,2.007,1.9699,1.8839,1.7444,1.6405,1.6006,1.6844,1.7445,1.7652,1.7606,1.7274,1.6606,1.6328,2.1496,2.0857,2.0335,2.0045,1.9924,1.9593,1.9636,1.9937,2.015,2.0477,2.0728,2.0745,2.0761,2.0794,2.081,2.081,2.081,2.0747,2.0352,1.9609,1.9514,1.8804,1.7701,1.7588,1.7054,1.672,1.6594,1.6594,1.6712,1.6857,1.6955,1.7003,1.7136,1.708,1.6767,1.6757,1.6366,1.6008,1.5839,1.5772,1.5688,1.5198,1.495,1.4633,1.4292,1.3934,1.3906,1.3896,1.3962,1.4051,1.4005,1.421,1.4596,1.4706,1.4706,1.4706,1.4706,1.4706,1.4706,1.4706,1.4706,1.4706,1.4717,1.4744,1.478,1.4809,1.4799,1.4799,1.4799,1.4799,1.4799,1.4854,1.5022,1.519,1.5286,1.5286,1.5286,1.5286,1.5286,1.5286,1.5286,1.5286,1.5286,1.5286,1.5286,1.5289,1.5295,1.5282,1.5302,1.5327,1.5367,1.5408,1.5402,1.5402,1.6125,1.6008,1.7276,1.8954,1.9666,2.0524,2.0498,2.0498,2.0498,2.005,1.9329,1.911,1.8584,1.8567,1.9186,1.9154,1.8921,1.9223,1.9601,1.8762,1.762,2.2149,2.1511,2.0892,2.0407,2.005,1.951,1.9563,1.9955,2.0131,2.0409,2.076,2.081,2.081,2.081,2.081,2.081,2.081,2.081,2.0431,1.9941,1.9736,1.9073,1.7983,1.7667,1.7306,1.6815,1.661,1.6594,1.6701,1.6882,1.7055,1.7252,1.7462,1.7558,1.7335,1.7503,1.747,1.7189,1.6741,1.6277,1.6133,1.6063,1.5772,1.5052,1.4693,1.4352,1.4054,1.3896,1.3918,1.3984,1.3911,1.409,1.4429,1.4602,1.4706,1.4706,1.4706,1.4706,1.4706,1.4712,1.4712,1.4706,1.4712,1.4729,1.4789,1.4799,1.4799,1.4799,1.4799,1.4799,1.4799,1.4799,1.4981,1.5157,1.5282,1.5286,1.5286,1.5286,1.5286,1.5286,1.5286,1.5286,1.5286,1.5286,1.5286,1.5291,1.5285,1.529,1.5303,1.5343,1.5371,1.5406,1.5402,1.5402,1.6456,1.712,1.8583,1.991,1.993,2.0559,2.0522,2.0498,2.0498,2.0498,2.0089,2.007,2.0329,2.0092,1.9712,1.983,1.999,2.0001,1.9993,1.9861,1.8992,2.2635,2.2164,2.1511,2.0973,2.0524,1.9856,1.9971,2.0485,2.0552,2.0846,2.1151,2.1173,2.1,2.081,2.081,2.081,2.081,2.081,2.051,2.0178,1.9909,1.9388,1.8709,1.8267,1.7825,1.6878,1.6988,1.6831,1.6746,1.6942,1.7228,1.742,1.7749,1.7899,1.8042,1.809,1.8107,1.8038,1.7502,1.7089,1.6893,1.7176,1.6615,1.5896,1.5255,1.4912,1.4545,1.4334,1.4324,1.457,1.4061,1.4027,1.4203,1.4517,1.4691,1.4706,1.4706,1.4709,1.4714,1.4714,1.4703,1.4727,1.4737,1.4759,1.4799,1.4799,1.4799,1.4799,1.4799,1.4799,1.4799,1.4799,1.4989,1.5148,1.5286,1.5286,1.5286,1.5286,1.5286,1.5286,1.5286,1.5286,1.5286,1.5286,1.5289,1.5291,1.5293,1.5392,1.5678,1.5987,1.6777,1.7165,1.7256,1.7295,1.7822,1.8895,2.0242,2.0594,2.0594,2.0587,2.0531,2.0519,2.0498,2.0498,2.0498,2.0376,2.0248,2.0163,2.0084,2.0029,1.9996,2.0004,1.9988,1.9988,1.9982,2.2873,2.2772,2.2193,2.1873,2.1728,2.1162,2.1213,2.1675,2.1751,2.205,2.2307,2.1962,2.1236,2.0921,2.081,2.081,2.081,2.081,2.0715,2.0684,2.0652,2.0146,1.9578,1.9183,1.8804,1.7715,1.746,1.7142,1.6881,1.7138,1.7308,1.7467,1.7922,1.8172,1.8267,1.8274,1.8335,1.8318,1.8076,1.8096,1.8031,1.8105,1.7791,1.6966,1.608,1.5562,1.594,1.5536,1.536,1.5711,1.4808,1.4254,1.4492,1.4581,1.4754,1.5486,1.5542,1.5365,1.4931,1.4729,1.4724,1.4778,1.4864,1.4887,1.4794,1.4799,1.4799,1.4968,1.5343,1.5493,1.5249,1.493,1.5744,1.5179,1.5286,1.5286,1.5286,1.5286,1.5286,1.5286,1.569,1.6387,1.5787,1.5903,1.5344,1.5289,1.6723,1.6902,1.7283,1.7723,1.904,1.9687,1.9836,1.993,1.9989,2.0594,2.0594,2.0594,2.0594,2.0565,2.0531,2.0525,2.0518,2.0498,2.049,2.0335,2.0204,2.0142,2.0084,2.0022,1.9988,1.9988,1.9988,1.9988,1.9988,2.2888,2.2859,2.2649,2.2316,2.1946,2.1278,2.139,2.1935,2.2013,2.2077,2.228,2.1537,2.1063,2.0857,2.081,2.081,2.081,2.081,2.081,2.081,2.0731,2.0399,2.002,1.9641,1.9057,1.8045,1.7769,1.7443,1.6853,1.7371,1.7514,1.7738,1.8117,1.8208,1.8294,1.8328,1.8368,1.8388,1.8378,1.8368,1.8455,1.844,1.8107,1.7281,1.6878,1.6273,1.6238,1.6343,1.6291,1.6124,1.5606,1.5413,1.5253,1.5122,1.5855,1.7133,1.7356,1.6605,1.5181,1.4886,1.4748,1.4911,1.5174,1.5422,1.5174,1.4874,1.4818,1.5306,1.6699,1.7356,1.7825,1.7804,1.7647,1.6071,1.5458,1.5632,1.5768,1.6019,1.6019,1.6348,1.7642,1.8819,1.7758,1.6638,1.5923,1.5422,1.7047,1.8418,1.8706,1.8937,1.9992,2.0586,2.0598,2.0594,2.0594,2.0594,2.0594,2.0593,2.0592,2.0565,2.0554,2.0524,2.0498,2.0498,2.0498,2.0426,2.0317,2.02,2.0102,2.0043,2.001,1.9988,1.9988,1.9988,1.9988,2.2888,2.2888,2.2888,2.2678,2.2214,2.1786,2.1966,2.2526,2.2631,2.257,2.242,2.1758,2.1284,2.1158,2.0857,2.081,2.081,2.081,2.081,2.081,2.0747,2.0494,2.0241,1.9973,1.9625,1.8564,1.8395,1.8225,1.7628,1.7872,1.8037,1.8189,1.8367,1.8548,1.8345,1.8406,1.8445,1.8465,1.8445,1.8388,1.8495,1.8477,1.8362,1.7756,1.7519,1.7344,1.7186,1.7291,1.7274,1.7142,1.6932,1.6914,1.6731,1.6816,1.7521,1.8729,1.933,1.8346,1.6829,1.5679,1.5306,1.501,1.5914,1.622,1.623,1.5892,1.5925,1.6774,1.8575,1.9801,1.9801,1.9325,1.9052,1.7751,1.765,1.7739,1.7642,1.7755,1.7564,1.7564,1.8916,1.996,1.953,1.8355,1.8026,1.7515,1.8366,1.9469,1.9706,1.9927,2.0207,2.0586,2.0595,2.0594,2.0594,2.0594,2.0592,2.0563,2.0563,2.0566,2.0559,2.0528,2.0498,2.0498,2.0498,2.0498,2.0443,2.0338,2.0188,2.0049,2.0028,2.001,1.9988,1.9988,1.9988,2.2888,2.2888,2.2888,2.291,2.2846,2.283,2.3201,2.373,2.3783,2.3736,2.3554,2.2959,2.2313,2.1758,2.1173,2.0936,2.081,2.081,2.081,2.081,2.0844,2.0747,2.0749,2.0574,2.0258,1.9909,1.9618,1.9317,1.8788,1.8779,1.8783,1.8873,1.9091,1.9059,1.8483,1.8455,1.8495,1.8495,1.8502,1.8485,1.8495,1.8495,1.8389,1.8319,1.8222,1.8064,1.8064,1.8073,1.8073,1.8021,1.8038,1.8038,1.8008,1.8645,1.9144,1.9487,1.9611,1.9455,1.9251,1.7993,1.679,1.585,1.6919,1.76,1.8675,1.8412,1.7637,1.8431,1.9538,1.9801,1.9801,1.9794,1.9654,1.9619,1.941,1.9299,1.9145,1.9106,1.8858,1.8684,1.9532,2.0366,2.0385,2.023,2.0141,2.0058,2.0255,2.0444,2.0502,2.0547,2.0565,2.0585,2.0594,2.0594,2.0594,2.0594,2.059,2.0559,2.0532,2.0556,2.0536,2.0524,2.0498,2.0498,2.0498,2.0498,2.0498,2.049,2.0349,2.0204,2.0069,2.0036,2.001,1.9988,1.9988,2.2888,2.2888,2.2888,2.3031,2.3194,2.2986,2.3444,2.4199,2.4078,2.3916,2.3755,2.318,2.2501,2.1948,2.16,2.1221,2.0842,2.081,2.081,2.0827,2.0909,2.099,2.1006,2.0975,2.0766,2.0329,2.0192,1.9991,1.9218,1.9434,1.9622,1.9728,1.9675,1.9472,1.9118,1.8861,1.8495,1.8495,1.8495,1.8495,1.8495,1.8495,1.8495,1.8495,1.8495,1.8495,1.8495,1.8495,1.8495,1.8495,1.8495,1.8495,1.8631,1.9219,1.9667,1.9718,1.9731,1.9738,1.97,1.907,1.88,1.8237,1.7994,1.8656,1.9463,1.9369,1.9426,1.9576,1.9782,1.9801,1.9801,1.9801,1.9793,2.0104,2.0054,2.0073,2.0015,2.0054,1.9976,1.988,2.0363,2.0379,2.0414,2.0429,2.0455,2.0502,2.0479,2.0457,2.0507,2.0551,2.0602,2.0601,2.0594,2.0594,2.0594,2.0594,2.057,2.0539,2.0529,2.0524,2.0521,2.0498,2.0498,2.0498,2.0498,2.0498,2.0498,2.0497,2.0464,2.0373,2.0208,2.0073,2.0004,1.9988,1.9988,2.2888,2.2888,2.2888,2.3164,2.3508,2.3216,2.361,2.4364,2.432,2.427,2.4128,2.3578,2.2898,2.236,2.1968,2.1475,2.0858,2.0909,2.0925,2.0909,2.1023,2.1103,2.1199,2.1246,2.1052,2.0738,2.0729,2.059,2.0279,2.025,2.0416,2.0524,2.0296,2.0355,2.0019,1.9468,1.8495,1.8495,1.8495,1.8495,1.8495,1.8495,1.8495,1.8495,1.8495,1.8495,1.8495,1.8495,1.8495,1.8495,1.8495,1.8495,1.8725,1.9079,1.9603,1.9732,1.9801,1.9801,1.9757,1.9738,1.9501,1.9501,1.92,1.9257,1.967,1.9632,1.9688,1.9782,1.9801,1.9801,1.9801,1.9801,1.9966,2.0262,2.0379,2.0379,2.0379,2.0379,2.0379,2.0379,2.0386,2.0386,2.0386,2.0414,2.0432,2.0463,2.0505,2.0507,2.0507,2.0539,2.0583,2.0594,2.0594,2.0594,2.0594,2.0594,2.0568,2.052,2.0511,2.0524,2.0498,2.0498,2.0498,2.0498,2.0498,2.0498,2.0498,2.0494,2.0487,2.0411,2.0295,2.0148,2.0028,1.9988,1.9988,2.2925,2.2888,2.2925,2.3319,2.3876,2.3681,2.3931,2.4503,2.4835,2.4958,2.4891,2.4211,2.3533,2.2873,2.2359,2.1674,2.102,2.1055,2.1087,2.1119,2.1183,2.1246,2.1309,2.1356,2.132,2.1385,2.1396,2.1366,2.1483,2.1337,2.1361,2.1413,2.1074,2.1166,2.0848,2.0023,1.9057,1.9022,1.8618,1.8758,1.8951,1.8628,1.8653,1.8653,1.8618,1.853,1.8495,1.8495,1.8495,1.8495,1.8505,1.8495,1.8623,1.8876,1.9306,1.9661,1.9795,1.9801,1.9801,1.9801,1.9801,1.9801,1.9745,1.9782,1.9782,1.9801,1.9801,1.9801,1.9801,1.9801,1.9801,1.9884,1.9966,2.0174,2.0366,2.0379,2.0379,2.0379,2.0379,2.0386,2.0414,2.0417,2.0401,2.0407,2.0429,2.0463,2.0507,2.0507,2.0507,2.051,2.0551,2.0594,2.0594,2.0594,2.0594,2.0594,2.0591,2.0545,2.0537,2.0531,2.0525,2.0498,2.0498,2.0498,2.0498,2.0498,2.0498,2.0498,2.0497,2.0433,2.0329,2.0184,2.002,1.9993,1.9988,2.3037,2.3037,2.3037,2.3523,2.4277,2.4634,2.4686,2.458,2.5001,2.5123,2.4989,2.4936,2.4143,2.3076,2.2874,2.2095,2.1536,2.1215,2.1246,2.1278,2.1356,2.145,2.1527,2.1587,2.1616,2.1678,2.1723,2.1811,2.1962,2.1997,2.2228,2.2348,2.1866,2.1914,2.1516,2.076,2.0374,1.9882,1.9268,1.9338,1.9461,1.919,1.9162,1.918,1.8741,1.8618,1.861,1.854,1.8532,1.8514,1.8545,1.8555,1.8524,1.8753,1.9107,1.9712,1.9801,1.9801,1.9801,1.9801,1.9801,1.9801,1.9801,1.9801,1.9801,1.9801,1.9801,1.9801,1.9801,1.9801,1.9801,1.9861,2.0029,2.0242,2.037,2.0379,2.0379,2.0379,2.0382,2.0405,2.0417,2.0441,2.0444,2.0429,2.0457,2.049,2.0507,2.0505,2.0507,2.0507,2.054,2.0585,2.0594,2.0594,2.0594,2.0594,2.0592,2.059,2.0564,2.0536,2.0524,2.0498,2.0498,2.0615,2.0791,2.0693,2.0498,2.0591,2.0809,2.0517,2.0372,2.0193,2.0104,2.0565,2.0751,2.329,2.3392,2.3407,2.3915,2.4684,2.5204,2.5182,2.4926,2.5162,2.5197,2.5025,2.5166,2.4476,2.3275,2.3072,2.2518,2.1342,2.1371,2.1419,2.145,2.1527,2.1603,2.1709,2.1753,2.1751,2.1827,2.1899,2.1984,2.2209,2.2531,2.2769,2.273,2.2461,2.2446,2.2259,2.1978,2.1814,2.1259,2.0732,2.042,2.0174,2.0086,2.0146,1.9812,1.918,1.8803,1.8931,1.8863,1.8682,1.8629,1.8659,1.865,1.8715,1.8974,1.9251,1.9789,1.9801,1.9801,1.9801,1.9801,1.9801,1.9839,1.9876,1.9801,1.9801,1.9801,1.9801,1.9801,1.9801,1.9801,1.9801,1.985,2.0108,2.0343,2.0363,2.0379,2.0379,2.0379,2.0405,2.0408,2.0429,2.0457,2.046,2.0463,2.046,2.0485,2.0473,2.0465,2.0495,2.0507,2.0553,2.0603,2.0596,2.0594,2.0594,2.0594,2.0593,2.0592,2.0591,2.0563,2.0528,2.0537,2.0578,2.0869,2.1219,2.1512,2.2192,2.136,2.1214,2.0961,2.1359,2.2192,2.2471,2.2665,2.2691,2.3588,2.3921,2.4006,2.4461,2.5095,2.5473,2.5508,2.5352,2.5371,2.5236,2.5103,2.5275,2.4633,2.3692,2.3587,2.2864,2.2052,2.1819,2.1735,2.162,2.1619,2.1694,2.1753,2.1781,2.1781,2.1869,2.1984,2.2141,2.2295,2.2611,2.2881,2.2842,2.2938,2.2949,2.2861,2.2809,2.2663,2.2452,2.1926,2.1516,2.1235,2.127,2.1323,2.0736,1.984,1.9087,1.955,1.9443,1.8994,1.902,1.9056,1.9145,1.9036,2.0168,2.0408,2.0101,2.027,2.012,1.9989,1.9801,1.9801,1.9895,2.0045,2.0721,2.1134,2.0101,1.9839,2.0702,2.0946,2.0064,1.9801,1.9813,1.9988,2.0762,2.1251,2.0906,2.0476,2.0437,2.0382,2.0405,2.0411,2.0444,2.0497,2.0485,2.0482,2.0492,2.1404,2.1493,2.0623,2.0641,2.0793,2.0817,2.0695,2.0691,2.0594,2.0594,2.0594,2.0594,2.0652,2.059,2.0559,2.0588,2.0656,2.1726,2.2992,2.3848,2.429,2.3181,2.2155,2.1837,2.2599,2.4347,2.4835,2.4423,2.4182,2.3973,2.4126,2.4812,2.5218,2.5365,2.568,2.5807,2.5768,2.5768,2.5546,2.5336,2.55,2.5243,2.4379,2.43,2.3619,2.2766,2.2353,2.2216,2.1919,2.1787,2.1723,2.1781,2.1781,2.1781,2.1869,2.2013,2.2295,2.2581,2.2863,2.3033,2.3033,2.3107,2.3107,2.3107,2.3107,2.3089,2.3054,2.2821,2.2505,2.2364,2.1516,2.1024,2.1164,2.0789,2.0403,2.071,2.0868,2.0689,2.0678,2.0699,2.0136,1.9189,2.1874,2.1925,2.0664,2.1347,2.1159,2.0596,2.0214,2.012,2.0871,2.1591,2.2898,2.286,2.0946,2.0477,2.1622,2.1828,2.0758,2.0089,2.012,2.033,2.1391,2.2284,2.156,2.0866,2.0769,2.0672,2.0379,2.0379,2.0432,2.049,2.0697,2.0527,2.1672,2.3653,2.3883,2.1762,2.1082,2.1456,2.1426,2.093,2.0828,2.0691,2.0828,2.0945,2.0906,2.0944,2.0804,2.0604,2.1313,2.2057,2.3772,2.5114,2.5348,2.51,2.4294,2.3427,2.3026,2.3303,2.4837,2.5144,2.4847,2.4886,2.4307,2.4563,2.5441,2.5793,2.5791,2.597,2.5989,2.5917,2.5989,2.586,2.5602,2.574,2.5506,2.4882,2.48,2.4411,2.3438,2.3023,2.2708,2.2344,2.1978,2.1797,2.1781,2.1814,2.1781,2.1855,2.2172,2.2508,2.2876,2.3003,2.3095,2.3107,2.3107,2.3107,2.3107,2.3107,2.3107,2.3089,2.3107,2.3107,2.3107,2.2347,2.1961,2.2224,2.2107,2.1765,2.1815,2.2006,2.1922,2.1578,2.1273,2.1076,2.1015,2.2895,2.3487,2.2748,2.2623,2.2755,2.1872,2.1215,2.104,2.2135,2.134,2.1978,2.4174,2.2654,2.2635,2.3574,2.3498,2.2598,2.2598,2.2612,2.2857,2.3607,2.4019,2.3779,2.3459,2.335,2.2082,2.0379,2.0402,2.0408,2.1022,2.2821,2.2775,2.3326,2.531,2.5465,2.3481,2.2098,2.2317,2.2422,2.2182,2.1218,2.0652,2.1004,2.1492,2.1413,2.1608,2.1035,2.1007,2.2361,2.3635,2.4822,2.5543,2.5601,2.5247,2.4738,2.4662,2.435,2.4591,2.5166,2.5199,2.5162,2.5082,2.4655,2.5137,2.5881,2.6185,2.6185,2.6185,2.6096,2.5989,2.6114,2.6096,2.5952,2.5917,2.5507,2.5179,2.495,2.4561,2.4166,2.3785,2.3354,2.2874,2.2311,2.2195,2.2029,2.1864,2.1888,2.2032,2.2301,2.2681,2.3052,2.3107,2.3107,2.3107,2.3107,2.3107,2.3107,2.3107,2.3107,2.3107,2.3107,2.3107,2.3107,2.3107,2.3002,2.3019,2.3061,2.287,2.2876,2.2923,2.2823,2.2508,2.2009,2.1929,2.2152,2.3464,2.4081,2.3925,2.3581,2.3863,2.3724,2.2792,2.3262,2.3356,2.1359,2.1697,2.4118,2.4651,2.4595,2.4557,2.4474,2.4471,2.4452,2.4515,2.4776,2.5048,2.5281,2.5468,2.5344,2.5269,2.3324,2.1172,2.1185,2.1208,2.2323,2.418,2.4832,2.5405,2.5601,2.5601,2.5279,2.4453,2.4096,2.4237,2.4209,2.3014,2.1726,2.1531,2.2272,2.3208,2.3344,2.2065,2.1606,2.3313,2.4534,2.5134,2.5699,2.5699,2.5658,2.5307,2.5331,2.5228,2.5207,2.521,2.518,2.515,2.5063,2.5246,2.597,2.615,2.6185,2.6185,2.6185,2.6184,2.615,2.6168,2.6168,2.6115,2.6132,2.6017,2.5935,2.5935,2.5556,2.4894,2.453,2.4183,2.3768,2.3023,2.2775,2.2592,2.2392,2.2149,2.2381,2.2709,2.2794,2.3478,2.337,2.3125,2.3177,2.3172,2.3142,2.3107,2.3142,2.3242,2.3277,2.3335,2.337,2.326,2.3212,2.3107,2.3107,2.3102,2.3099,2.3223,2.3552,2.3519,2.3396,2.3211,2.3169,2.3323,2.3652,2.4137,2.4499,2.4179,2.4381,2.4174,2.3938,2.4362,2.4343,2.3048,2.3311,2.4681,2.4681,2.4643,2.4643,2.4621,2.4667,2.4663,2.47,2.4886,2.5202,2.5492,2.5496,2.5445,2.5453,2.4706,2.4006,2.3983,2.3976,2.4172,2.5166,2.5181,2.5573,2.5601,2.5601,2.5601,2.5622,2.5638,2.5654,2.5679,2.5668,2.4711,2.3091,2.3404,2.4536,2.512,2.3984,2.376,2.4739,2.5668,2.5701,2.5699,2.5699,2.5634,2.5595,2.5436,2.5299,2.5229,2.521,2.518,2.5162,2.5101]}]]